[[[{"header":{"parameterUnit":"kt","parameterCategory":2,"dx":1,"dy":1,"la1":29.587661999999998,"la2":31.0,"lo1":-88.76705300000003,"lo2":-86.6583820000003,"nx":115,"ny":88,"refTime":"2022-10-28T12:00:00:Z","depth":0,"parameterNumber":1,"parameterNumberName":"U-component_of_WINDS"},"data":[1.4311,1.5829,1.6909,1.8639,2.057,2.0784,2.0784,2.0784,2.0784,2.0784,2.0784,2.0784,2.0784,2.0784,2.0784,2.0784,2.0784,2.0784,2.0784,2.0784,2.0784,2.0784,2.0784,2.0784,2.0784,2.0784,2.0784,2.0784,2.0997,2.0997,2.1841,2.3089,2.3512,2.4339,2.6004,2.6633,2.6842,2.7261,2.747,2.8305,2.7888,2.7271,2.6842,2.748,2.8743,2.9576,2.9784,2.9991,3.1452,3.2919,3.3767,3.419,3.419,3.419,3.419,3.419,3.419,3.419,3.419,3.419,3.419,3.419,3.419,3.419,3.419,3.419,3.419,3.419,3.419,3.419,3.419,3.419,3.419,3.419,3.419,3.419,3.419,3.419,3.419,3.419,3.419,3.4177,3.4138,3.3904,3.3748,3.3488,3.3242,3.2631,3.1969,3.1618,3.1281,3.1125,3.0943,3.0761,3.0761,3.0761,3.0761,3.0761,3.0761,3.0761,3.0761,3.0761,3.1047,3.1528,3.1865,3.2307,3.2839,3.3592,3.3826,3.4047,3.4138,3.406,3.3969,3.367,3.3216,1.0866,1.1295,1.5399,1.8631,2.057,2.0784,2.0784,2.0784,2.0784,2.0784,2.0784,2.0784,2.0784,2.0784,2.0784,2.0784,2.0784,2.0784,2.0784,2.0784,2.0784,2.0784,2.0784,2.0784,2.0784,2.0784,2.0784,2.0784,2.0784,2.0784,2.0997,2.0997,2.1202,2.1415,2.2037,2.3301,2.455,2.4752,2.5594,2.6842,2.6433,2.5603,2.3926,2.3926,2.5182,2.6433,2.6224,2.6853,2.916,3.0832,3.229,3.2919,3.3343,3.3754,3.3767,3.419,3.419,3.419,3.419,3.419,3.419,3.419,3.419,3.419,3.419,3.419,3.419,3.419,3.419,3.419,3.419,3.419,3.419,3.419,3.419,3.419,3.419,3.419,3.419,3.419,3.4177,3.4164,3.3969,3.3644,3.341,3.3138,3.2722,3.2112,3.1593,3.1268,3.1047,3.0878,3.0761,3.0761,3.0761,3.0761,3.0761,3.0761,3.0761,3.0761,3.08,3.0943,3.119,3.1606,3.2164,3.2696,3.3216,3.354,3.3813,3.406,3.393,3.367,3.3579,3.3371,3.3112,0.8272,0.8265,1.2582,1.6253,1.8631,1.993,2.057,2.0784,2.0784,2.0784,2.0784,2.0784,2.0784,2.0784,2.0784,2.0784,2.0784,2.0784,2.0784,2.0784,2.0784,2.0784,2.0784,2.0784,2.0784,2.0784,2.0784,2.0784,2.0784,2.0784,2.0784,2.0997,2.0997,2.0997,2.0997,2.1628,2.2249,2.2249,2.3089,2.3503,2.3301,2.2886,2.1628,2.2045,2.3301,2.4771,2.4761,2.4972,2.7062,2.8733,2.9149,2.9991,3.2302,3.2714,3.3125,3.3767,3.419,3.419,3.419,3.419,3.419,3.419,3.419,3.419,3.419,3.419,3.419,3.419,3.419,3.419,3.419,3.419,3.419,3.419,3.419,3.419,3.419,3.419,3.419,3.4164,3.4099,3.4047,3.3696,3.3371,3.2917,3.2644,3.2255,3.1683,3.1281,3.0917,3.0852,3.0761,3.0761,3.0761,3.0761,3.0761,3.0761,3.0761,3.0761,3.0761,3.0787,3.1021,3.1424,3.2021,3.2592,3.3021,3.3229,3.3462,3.3735,3.3696,3.3488,3.3242,3.3034,3.2826,3.2333,0.6535,0.6533,1.0213,1.3881,1.7124,1.8424,1.9495,2.057,2.057,2.057,2.0349,2.0357,2.0357,2.0143,2.0143,2.0143,2.0357,2.0357,2.057,2.057,2.0784,2.0784,2.0784,2.0784,2.0784,2.0784,2.0784,2.0784,2.0784,2.0784,2.0784,2.0784,2.0784,2.0784,2.0784,2.0997,2.1202,2.1202,2.162,2.1628,2.1628,2.0989,2.0784,2.1415,2.2045,2.3301,2.4137,2.4339,2.5804,2.7679,2.6224,2.7898,3.1246,3.1659,3.2701,3.3754,3.419,3.419,3.419,3.419,3.419,3.419,3.419,3.419,3.4177,3.419,3.419,3.419,3.419,3.419,3.419,3.419,3.419,3.419,3.419,3.419,3.419,3.419,3.419,3.4112,3.4021,3.3761,3.341,3.2982,3.2476,3.206,3.1709,3.1359,3.0956,3.0813,3.0774,3.0761,3.0761,3.0761,3.0761,3.0761,3.0761,3.0761,3.0761,3.0761,3.0761,3.1151,3.1618,3.2307,3.2761,3.2891,3.3073,3.3268,3.3203,3.3112,3.293,3.2709,3.2501,3.2125,3.1515,0.6535,0.6315,0.9353,1.2812,1.6271,1.6265,1.7553,1.9937,1.993,1.9716,1.9288,1.9295,1.9295,1.9509,1.9509,1.9509,1.9509,1.9937,2.0151,2.0143,2.0357,2.057,2.057,2.0784,2.057,2.0784,2.0784,2.0784,2.0784,2.0784,2.0784,2.0784,2.0784,2.0784,2.0784,2.0784,2.0784,2.0784,2.0784,2.0784,2.0784,2.0784,2.0784,2.0784,2.1202,2.2045,2.3301,2.4761,2.6014,2.8941,3.0199,3.0406,3.2071,3.2701,3.3125,3.3754,3.3972,3.3972,3.3754,3.3972,3.4177,3.419,3.4177,3.4086,3.3904,3.3826,3.3774,3.3774,3.3735,3.3735,3.3891,3.3943,3.4086,3.4164,3.4177,3.419,3.419,3.419,3.4099,3.3878,3.3709,3.3268,3.2917,3.2501,3.1982,3.1644,3.1307,3.0995,3.0774,3.0774,3.0761,3.0761,3.0761,3.0761,3.0761,3.0761,3.0761,3.0761,3.0761,3.0787,3.0969,3.1372,3.1839,3.2216,3.2592,3.2748,3.2761,3.2631,3.2566,3.2476,3.2333,3.2151,3.18,3.1372,3.0969,0.6103,0.5885,0.7623,0.9353,1.1511,1.4317,1.5393,1.5829,1.6903,1.7553,1.7567,1.8653,1.9081,1.9081,1.9081,1.9081,1.9081,1.9295,1.9509,1.9502,1.9502,1.9723,1.9937,2.0143,2.0151,2.0578,2.057,2.0784,2.0784,2.0784,2.0784,2.0784,2.0784,2.0784,2.0784,2.0784,2.0784,2.0784,2.0784,2.0784,2.0784,2.0784,2.0784,2.0784,2.0784,2.1202,2.2037,2.2045,2.2665,2.4339,2.4761,2.6014,2.7898,2.9761,3.0601,3.2664,3.3267,3.3434,3.3012,3.3472,3.3946,3.419,3.4177,3.3826,3.3514,3.332,3.3294,3.3294,3.3268,3.3294,3.3488,3.3696,3.3904,3.4099,3.4125,3.4138,3.4138,3.4138,3.393,3.3644,3.3268,3.2826,3.2372,3.1956,3.1567,3.1268,3.0969,3.0761,3.0761,3.0761,3.0761,3.0761,3.0761,3.0761,3.0761,3.0761,3.0761,3.0761,3.0774,3.0917,3.1216,3.1489,3.1683,3.2021,3.2385,3.2463,3.2501,3.2268,3.1943,3.1774,3.1644,3.1502,3.1216,3.0891,3.0852,0.5669,0.5454,0.6105,0.6756,0.7617,1.1074,1.2155,1.1943,1.4317,1.5405,1.5847,1.7788,1.8445,1.8438,1.8653,1.8438,1.8653,1.8653,1.8867,1.8867,1.9074,1.9081,1.9295,1.9502,1.9723,1.9937,2.0151,2.0143,2.057,2.057,2.057,2.0784,2.0784,2.0784,2.0784,2.0784,2.0784,2.0784,2.0784,2.0784,2.0784,2.0784,2.0784,2.0784,2.0784,2.162,2.2037,2.2257,2.2877,2.3503,2.3715,2.4349,2.6194,2.7968,2.9568,3.1647,3.2328,3.3089,3.2038,3.2849,3.3605,3.3553,3.3579,3.3112,3.28,3.2579,3.2605,3.2696,3.2735,3.2826,3.3008,3.3099,3.3216,3.332,3.3358,3.3371,3.3371,3.3358,3.3307,3.306,3.293,3.2463,3.1943,3.1528,3.1255,3.0943,3.0761,3.0761,3.0761,3.0761,3.0761,3.0761,3.0761,3.0761,3.0761,3.0761,3.0761,3.0761,3.0787,3.0878,3.1138,3.1346,3.1541,3.1761,3.1969,3.2086,3.2125,3.18,3.1398,3.1203,3.1125,3.0917,3.0761,3.0787,3.0774,0.5234,0.5236,0.5236,0.5454,0.5454,0.6103,0.697,0.8482,1.2591,1.4328,1.4117,1.629,1.7372,1.7372,1.7372,1.7587,1.7587,1.8016,1.8231,1.8445,1.8653,1.8867,1.8867,1.9074,1.9081,1.9081,1.9288,1.9716,1.9937,2.0151,2.0357,2.057,2.0784,2.0784,2.0784,2.0784,2.0784,2.0784,2.0784,2.0784,2.0784,2.0784,2.0784,2.0784,2.0997,2.162,2.2232,2.3019,2.4055,2.5725,2.7803,2.9278,3.0632,3.2191,3.2834,3.3016,3.2261,3.2171,3.174,3.2184,3.2735,3.254,3.2527,3.2514,3.232,3.2151,3.2086,3.2112,3.2099,3.2281,3.2476,3.2514,3.2566,3.2696,3.2748,3.2735,3.2722,3.2696,3.267,3.2514,3.2385,3.2073,3.1541,3.1216,3.0943,3.0761,3.0761,3.0761,3.0761,3.0761,3.0761,3.0761,3.0761,3.0761,3.0761,3.0761,3.0761,3.0761,3.0787,3.0891,3.1021,3.1229,3.1437,3.1593,3.1657,3.1567,3.1424,3.1164,3.0904,3.0813,3.0774,3.0593,3.0476,3.0554,3.0281,0.472,0.4727,0.4995,0.5018,0.458,0.458,0.5234,0.6538,0.8916,1.1078,1.238,1.4117,1.5853,1.6942,1.7372,1.7372,1.7372,1.7587,1.7593,1.7587,1.7801,1.8016,1.8224,1.8224,1.8438,1.8653,1.8867,1.9074,1.9509,1.9723,2.0151,2.0357,2.057,2.0784,2.0784,2.0784,2.0784,2.0784,2.0784,2.0784,2.0784,2.0784,2.0784,2.076,2.0973,2.117,2.1758,2.1852,2.1894,2.2217,2.311,2.3941,2.5345,2.6646,2.7994,2.9576,2.9586,2.911,3.0411,3.1192,3.1586,3.1364,3.1372,3.1359,3.1359,3.1489,3.1463,3.1437,3.1307,3.1528,3.1826,3.1917,3.2099,3.2501,3.254,3.2514,3.2488,3.245,3.2398,3.2047,3.1839,3.1515,3.1138,3.0904,3.0761,3.0761,3.0761,3.0761,3.0761,3.0761,3.0761,3.0761,3.0761,3.0761,3.0761,3.0761,3.0761,3.0761,3.0865,3.0982,3.1086,3.1073,3.132,3.1528,3.1333,3.1125,3.0852,3.0723,3.0723,3.0645,3.0424,3.0255,3.0229,2.9917,2.9528,0.4002,0.401,0.4509,0.4311,0.4078,0.4097,0.4324,0.476,0.5865,0.7614,0.9996,1.2817,1.477,1.6074,1.672,1.7372,1.7372,1.7372,1.7372,1.7372,1.7372,1.7372,1.7372,1.7801,1.8016,1.8016,1.8438,1.8867,1.9081,1.9723,1.9937,2.0364,2.057,2.0784,2.0784,2.0784,2.0784,2.0784,2.0784,2.0776,2.0784,2.0776,2.072,2.0586,2.0586,2.0499,2.0574,2.0614,2.0517,2.0675,2.1989,2.2439,2.341,2.4756,2.5714,2.6884,2.7045,2.6255,2.7606,2.8732,2.9582,2.9803,2.9753,2.9964,3.0603,3.0761,3.0761,3.0826,3.0917,3.1047,3.1242,3.1346,3.1476,3.1891,3.2008,3.1995,3.2021,3.1995,3.1969,3.1606,3.1346,3.106,3.0943,3.08,3.0761,3.0761,3.0761,3.0761,3.0761,3.0761,3.0761,3.0761,3.0761,3.0761,3.0761,3.0761,3.0761,3.0761,3.0865,3.0969,3.0956,3.093,3.1086,3.1177,3.0969,3.0761,3.0761,3.0749,3.0645,3.0307,2.9904,2.9658,2.9645,2.9385,2.8957,0.3311,0.3319,0.3586,0.3367,0.3326,0.3373,0.3612,0.3618,0.3886,0.5216,0.7828,1.1299,1.3249,1.4554,1.6074,1.6942,1.7157,1.7372,1.7372,1.7372,1.7372,1.7372,1.7372,1.7372,1.7587,1.7593,1.7801,1.8438,1.8867,1.9509,2.0151,2.0578,2.0357,2.057,2.0784,2.0784,2.0784,2.0784,2.0784,2.0752,2.072,2.0697,2.0507,2.0349,2.0271,2.0152,1.9994,1.9828,1.9742,1.9904,2.1005,2.1719,2.2307,2.3624,2.4665,2.5408,2.4862,2.4685,2.4801,2.4781,2.5975,2.7431,2.8352,2.8725,3.0023,3.0761,3.0761,3.0761,3.0761,3.08,3.0787,3.0813,3.0865,3.1021,3.1073,3.1099,3.1151,3.1164,3.1242,3.1086,3.0891,3.0774,3.0774,3.0761,3.0761,3.0761,3.0761,3.0761,3.0761,3.0761,3.0761,3.0761,3.0761,3.0761,3.0761,3.0761,3.0761,3.0761,3.0787,3.0826,3.0826,3.0826,3.0813,3.08,3.0723,3.0645,3.0684,3.0697,3.0203,2.971,2.9333,2.9151,2.9073,2.8905,2.8541,0.3255,0.3262,0.3315,0.3307,0.3266,0.3315,0.3339,0.3348,0.3403,0.4736,0.7177,0.8262,1.0646,1.3254,1.4776,1.5638,1.672,1.7372,1.7372,1.7372,1.7372,1.7372,1.7372,1.7372,1.7372,1.7372,1.7587,1.8016,1.8438,1.9081,1.9723,1.9937,1.993,1.993,2.0143,2.057,2.0784,2.0784,2.076,2.0697,2.0444,2.0413,2.0263,1.9971,1.9915,1.9805,1.9678,1.9481,1.9386,1.9704,1.9788,2.004,2.0346,2.0665,2.154,2.2251,2.2928,2.3438,2.3796,2.3796,2.3607,2.5125,2.6461,2.7781,2.8898,2.9825,3.0469,3.0629,3.0813,3.0774,3.0774,3.0839,3.0865,3.0878,3.0865,3.0761,3.0761,3.0761,3.0761,3.0761,3.0761,3.0774,3.0761,3.0761,3.0761,3.0761,3.0761,3.0761,3.0761,3.0761,3.0761,3.0761,3.0761,3.0761,3.0761,3.0761,3.0761,3.0761,3.0761,3.0761,3.0761,3.0774,3.0774,3.0606,3.0515,3.0515,3.0346,3.0073,2.9632,2.9112,2.8983,2.8814,2.8684,2.832,2.7996,0.3197,0.32,0.3233,0.3228,0.3201,0.3257,0.3281,0.3291,0.3342,0.4446,0.5547,0.6661,0.864,1.1066,1.2596,1.477,1.5853,1.6726,1.7157,1.7372,1.7372,1.7372,1.7372,1.7372,1.7372,1.7372,1.7593,1.8016,1.8231,1.8867,1.9295,1.9509,1.9288,1.9295,1.9509,1.993,2.0051,2.021,2.0117,2.0195,2.0152,2.0057,1.9907,1.9584,1.9544,1.9497,1.9347,1.9126,1.9055,1.8968,1.8842,1.8987,1.9148,1.8955,1.9691,2.0423,2.0614,2.097,2.1532,2.1351,2.116,2.2671,2.4184,2.57,2.6637,2.8556,2.9566,3.0228,3.0756,3.1567,3.1385,3.1242,3.1099,3.1034,3.0956,3.0813,3.0761,3.0761,3.0761,3.0761,3.0761,3.0761,3.0761,3.0761,3.0761,3.0761,3.0761,3.0761,3.0761,3.0761,3.0761,3.0761,3.0761,3.0761,3.0761,3.0761,3.0761,3.0761,3.0761,3.0761,3.0761,3.0723,3.0411,3.0333,3.0216,2.9956,2.9697,2.945,2.8996,2.8385,2.8229,2.8346,2.8074,2.7684,2.7593,0.3143,0.3143,0.3146,0.3147,0.3151,0.3204,0.3226,0.323,0.3283,0.3517,0.3944,0.5465,0.6622,0.799,1.1028,1.2778,1.3686,1.6074,1.6505,1.672,1.7157,1.7372,1.7372,1.7372,1.7372,1.7378,1.7593,1.8016,1.8445,1.8653,1.8653,1.8867,1.8653,1.8867,1.9067,1.8994,1.9061,1.9341,1.9407,1.9439,1.9406,1.9484,1.9336,1.907,1.9158,1.9047,1.8755,1.8771,1.8779,1.8779,1.8731,1.8708,1.8708,1.8708,1.8708,1.9083,1.9275,1.9275,1.9458,1.9275,1.8908,1.9291,2.0658,2.2834,2.4712,2.6884,2.8364,2.901,3.0394,3.1623,3.1971,3.206,3.1735,3.1567,3.132,3.1164,3.1034,3.0969,3.0839,3.0787,3.0761,3.0761,3.0761,3.0761,3.0761,3.0761,3.0761,3.0891,3.0878,3.1021,3.0956,3.0761,3.0761,3.0736,3.0736,3.0658,3.058,3.0554,3.0489,3.0528,3.0502,3.0242,2.9879,2.9801,2.9723,2.9346,2.9021,2.8684,2.8255,2.7645,2.745,2.771,2.7593,2.7463,2.7424,0.3143,0.3143,0.3143,0.3143,0.3144,0.3157,0.3167,0.3172,0.3226,0.3252,0.347,0.3928,0.5253,0.7019,0.8108,0.9871,1.1493,1.3681,1.4554,1.5422,1.629,1.7157,1.7372,1.7372,1.7372,1.7372,1.7587,1.7801,1.8016,1.8016,1.7801,1.7801,1.7989,1.7989,1.8162,1.8207,1.8263,1.8731,1.8563,1.8487,1.8428,1.836,1.8166,1.8181,1.8254,1.8424,1.8531,1.8715,1.8523,1.8523,1.8523,1.8523,1.8715,1.8715,1.8708,1.8708,1.8516,1.8516,1.8523,1.8747,1.8715,1.8979,1.9656,2.1119,2.3112,2.5247,2.6938,2.852,2.9736,3.0938,3.1853,3.2398,3.2268,3.2086,3.1761,3.1567,3.1398,3.1177,3.1034,3.1047,3.1034,3.0943,3.0995,3.0891,3.0839,3.0813,3.0865,3.1008,3.119,3.1424,3.1203,3.0774,3.0736,3.0645,3.0645,3.0593,3.0398,3.0294,3.0151,3.0034,2.9736,2.9476,2.932,2.9281,2.9255,2.8892,2.8463,2.7996,2.7541,2.745,2.7385,2.7385,2.7385,2.7385,2.7385,0.3143,0.3143,0.3143,0.3143,0.3143,0.3143,0.3143,0.3149,0.3179,0.3193,0.3202,0.3253,0.3908,0.5189,0.6491,0.762,0.9001,1.1166,1.272,1.4096,1.4991,1.6284,1.715,1.7372,1.7372,1.7372,1.7372,1.7587,1.7593,1.7593,1.7372,1.7352,1.726,1.7393,1.7558,1.7503,1.7594,1.7689,1.7675,1.757,1.7516,1.7415,1.7537,1.7576,1.7769,1.7954,1.7939,1.8139,1.8139,1.7939,1.8331,1.8331,1.8331,1.8523,1.8708,1.8516,1.8323,1.8139,1.837,1.8486,1.8742,1.882,1.945,2.0121,2.151,2.3485,2.5618,2.6825,2.8608,3.0378,3.1417,3.2388,3.2707,3.2683,3.232,3.2125,3.1904,3.1567,3.1359,3.1359,3.1385,3.1567,3.1683,3.1644,3.1631,3.1502,3.1424,3.1372,3.1437,3.1489,3.1112,3.0761,3.0632,3.0437,3.0372,3.0268,2.9969,2.9697,2.9567,2.9424,2.9073,2.884,2.8749,2.8697,2.8567,2.8294,2.7957,2.7645,2.7489,2.7424,2.7385,2.7385,2.7385,2.7385,2.7385,0.3143,0.3143,0.3143,0.3143,0.3143,0.3143,0.3143,0.3143,0.3146,0.3143,0.3153,0.3197,0.322,0.3845,0.553,0.6245,0.7155,0.8879,1.0842,1.2864,1.3796,1.5329,1.6877,1.7339,1.7372,1.7372,1.7372,1.7352,1.7187,1.718,1.722,1.7167,1.697,1.6877,1.7059,1.6799,1.6449,1.6599,1.6758,1.6877,1.6847,1.6804,1.6997,1.7161,1.7354,1.7554,1.7354,1.7554,1.7554,1.7347,1.7554,1.7754,1.7761,1.8323,1.8516,1.8331,1.7977,1.7413,1.7896,1.8514,1.8888,1.9148,1.9615,1.9773,2.0757,2.2163,2.3623,2.3641,2.7187,2.9625,3.0345,3.1607,3.2269,3.2006,3.168,3.1822,3.1958,3.1343,3.1969,3.1956,3.1826,3.2034,3.1752,3.2061,3.2113,3.2112,3.1904,3.1683,3.1502,3.1164,3.08,3.0606,3.0463,2.9982,2.9801,2.9606,2.932,2.9034,2.897,2.8892,2.8554,2.8268,2.8177,2.8061,2.7775,2.7541,2.7554,2.7541,2.7437,2.7385,2.7385,2.7385,2.7385,2.7385,2.7385,0.3143,0.3143,0.3143,0.3143,0.3143,0.3143,0.3143,0.3143,0.3143,0.3143,0.3144,0.3156,0.3164,0.3374,0.3825,0.4095,0.4157,0.6445,0.8751,1.0695,1.2486,1.4895,1.6454,1.722,1.7319,1.726,1.7286,1.7128,1.6824,1.6745,1.6693,1.6699,1.6653,1.6581,1.6521,1.6297,1.6198,1.6066,1.6072,1.5905,1.5838,1.5818,1.6011,1.639,1.6576,1.6776,1.6969,1.7161,1.7161,1.7161,1.7161,1.7354,1.7354,1.7354,1.7354,1.7584,1.7994,1.7909,1.8226,1.8643,1.9236,1.9259,1.9773,2.0128,2.0455,2.1049,2.2114,2.3616,2.5584,2.6433,2.7888,2.8426,2.8742,2.9021,2.9937,3.0562,3.0668,3.1367,3.2006,3.1776,3.2307,3.2074,3.1248,3.1299,3.0525,3.0313,3.0089,2.9927,2.9778,2.964,2.9825,2.9892,2.9841,2.9515,2.919,2.9009,2.8645,2.8424,2.8372,2.8333,2.8035,2.7775,2.7697,2.7658,2.7385,2.7385,2.7385,2.7385,2.7385,2.7385,2.7385,2.7385,2.7385,2.7385,2.7385,0.2159,0.3143,0.3143,0.3143,0.3143,0.3143,0.3143,0.3143,0.3143,0.3143,0.3143,0.3143,0.3143,0.3151,0.3179,0.322,0.3464,0.4703,0.6366,0.8475,1.0826,1.3171,1.5079,1.6434,1.6727,1.695,1.6943,1.6745,1.6515,1.6475,1.6515,1.6455,1.6343,1.629,1.6225,1.6014,1.5882,1.5836,1.5723,1.5631,1.5625,1.5625,1.5631,1.6011,1.6197,1.639,1.639,1.6583,1.6583,1.639,1.6583,1.6769,1.6576,1.6597,1.6646,1.701,1.7356,1.7698,1.8503,1.8976,1.956,1.9409,2.0117,2.0507,2.0578,2.0626,2.1382,2.2453,2.3089,2.455,2.5564,2.6832,2.7271,2.7637,2.81,2.8616,2.9192,3.0626,3.014,2.9377,2.9533,2.9549,2.9609,2.9478,2.8772,2.8334,2.8121,2.7793,2.7664,2.7814,2.8077,2.8348,2.8971,2.8686,2.8697,2.8346,2.7918,2.784,2.7801,2.7736,2.7567,2.7567,2.7463,2.7385,2.7385,2.7385,2.7385,2.7385,2.7385,2.7385,2.7385,2.7385,2.7385,2.7385,2.7385,0.0585,0.2541,0.2548,0.275,0.3143,0.3143,0.3143,0.3143,0.3143,0.3143,0.3143,0.3143,0.3143,0.3144,0.3144,0.3169,0.3206,0.3619,0.485,0.693,0.8622,1.1093,1.3366,1.5094,1.6054,1.6187,1.6343,1.6337,1.6297,1.635,1.6244,1.6264,1.6106,1.6,1.5928,1.5776,1.5671,1.5671,1.5644,1.5625,1.5625,1.5625,1.5625,1.5625,1.6011,1.6011,1.5818,1.6011,1.6004,1.5625,1.6004,1.6204,1.6197,1.5818,1.616,1.6553,1.7052,1.7385,1.8038,1.8952,1.9301,1.9631,1.9939,2.0102,2.0336,2.057,2.0484,2.1146,2.2188,2.3271,2.3516,2.4431,2.5796,2.6004,2.6081,2.665,2.6794,2.7582,2.7773,2.6427,2.6298,2.6375,2.6659,2.673,2.6361,2.6232,2.6086,2.6007,2.6497,2.6905,2.7021,2.7438,2.8074,2.8237,2.8216,2.7775,2.7515,2.7528,2.7515,2.7463,2.7437,2.7398,2.7385,2.7385,2.7385,2.7385,2.7385,2.7385,2.7385,2.7385,2.7385,2.7385,2.7385,2.7385,2.7385,-0.2103,0.0191,0.0,0.1177,0.2946,0.3143,0.2946,0.3143,0.3143,0.2946,0.3143,0.3143,0.3143,0.3143,0.3143,0.3146,0.3157,0.3359,0.396,0.5974,0.7038,0.9478,1.2131,1.362,1.4397,1.5594,1.5822,1.5816,1.5816,1.577,1.5869,1.5783,1.571,1.5743,1.5717,1.5638,1.5625,1.5625,1.5625,1.5625,1.5625,1.5625,1.5625,1.5625,1.5625,1.5625,1.5625,1.5631,1.5631,1.5625,1.5625,1.5625,1.5625,1.5644,1.5763,1.6252,1.6669,1.7013,1.7465,1.7986,1.8424,1.7775,1.827,1.89,1.9294,1.9294,1.9506,1.9907,2.0308,2.0708,2.0512,2.131,2.1436,2.1518,2.2815,2.356,2.3715,2.3524,2.3779,2.2882,2.3308,2.3736,2.3938,2.3691,2.4027,2.4042,2.4147,2.444,2.5853,2.6561,2.6785,2.7303,2.7704,2.7931,2.7827,2.745,2.7437,2.7437,2.7424,2.7398,2.7398,2.7385,2.7385,2.7385,2.7372,2.7385,2.7385,2.7372,2.7372,2.7385,2.7307,2.7087,2.7152,2.7359,2.7294,-0.4497,-0.2252,-0.134,-0.0193,0.0967,0.1955,0.2356,0.2356,0.2553,0.2749,0.275,0.2946,0.3143,0.3143,0.3143,0.3143,0.3143,0.3143,0.373,0.4523,0.5922,0.8126,1.0719,1.1344,1.2942,1.5302,1.5625,1.5625,1.5625,1.5638,1.5625,1.5625,1.5631,1.5625,1.5625,1.5625,1.5625,1.5625,1.5625,1.5625,1.5625,1.5625,1.5625,1.5625,1.5625,1.5625,1.5625,1.5625,1.5625,1.5585,1.548,1.5447,1.5578,1.5493,1.5831,1.6362,1.6868,1.7006,1.743,1.7921,1.8045,1.7685,1.7871,1.7991,1.8058,1.8211,1.8416,1.8818,1.8818,1.9008,1.9205,1.9205,1.9325,1.9516,2.0261,2.0752,2.0713,2.0168,1.982,1.9962,2.0556,2.1013,2.0794,2.031,2.0421,2.0849,2.0941,2.225,2.3799,2.5232,2.5851,2.683,2.7377,2.7723,2.7463,2.7385,2.7385,2.7385,2.7385,2.7385,2.7385,2.7385,2.7359,2.7372,2.7359,2.7359,2.7152,2.7346,2.7346,2.71,2.6853,2.671,2.6645,2.6645,2.6658,-0.6793,-0.4776,-0.3189,-0.2085,-0.0955,0.0387,0.1173,0.157,0.1964,0.216,0.2356,0.2749,0.2946,0.2946,0.2946,0.3143,0.3143,0.3143,0.3143,0.3339,0.4901,0.6654,0.8414,0.9397,1.1535,1.407,1.5238,1.5625,1.5625,1.5625,1.5625,1.5625,1.5625,1.5625,1.5625,1.5625,1.5625,1.5625,1.5625,1.5625,1.5625,1.5625,1.5625,1.5625,1.5625,1.5625,1.5625,1.5625,1.5592,1.548,1.5288,1.5222,1.5407,1.5315,1.5691,1.6288,1.6621,1.6882,1.7534,1.752,1.7599,1.718,1.7137,1.7212,1.7111,1.7089,1.7244,1.7544,1.7742,1.7925,1.8107,1.8305,1.8445,1.8366,1.856,1.8629,1.8177,1.7891,1.7703,1.764,1.7803,1.7632,1.7624,1.8094,1.8173,1.764,1.8535,1.998,2.159,2.3342,2.4837,2.6445,2.7045,2.7554,2.7385,2.7385,2.7385,2.7385,2.7385,2.7385,2.7385,2.7372,2.7204,2.7191,2.7243,2.6983,2.6658,2.6788,2.6749,2.6554,2.6321,2.6217,2.61,2.5931,2.5905,-0.9527,-0.72,-0.7342,-0.4864,-0.1709,-0.0955,0.0,0.1175,0.1568,0.1569,0.1767,0.216,0.2356,0.2356,0.275,0.3143,0.3143,0.3143,0.3143,0.3142,0.3533,0.4901,0.6849,0.8602,1.0748,1.2895,1.4844,1.5431,1.5625,1.5625,1.5625,1.5625,1.5625,1.5625,1.5625,1.5625,1.5625,1.5625,1.5625,1.5625,1.5625,1.5625,1.5625,1.5625,1.5625,1.5625,1.5625,1.5585,1.5499,1.5249,1.4959,1.5031,1.5216,1.5236,1.548,1.6078,1.6045,1.6025,1.6225,1.6308,1.5918,1.5885,1.5865,1.593,1.6079,1.6191,1.6287,1.6643,1.6512,1.6724,1.7076,1.7601,1.7626,1.7843,1.7759,1.7484,1.7121,1.6853,1.6758,1.6758,1.6782,1.6774,1.7274,1.7935,1.8456,1.7182,1.8825,2.0124,2.1249,2.2676,2.4186,2.537,2.6043,2.7044,2.7044,2.7044,2.688,2.6538,2.6373,2.7044,2.7044,2.7204,2.7035,2.6827,2.6684,2.6476,2.6243,2.5905,2.5776,2.5646,2.5131,2.5389,2.558,2.5269,2.5165,-1.0679,-0.9532,-0.8639,-0.7111,-0.515,-0.2981,-0.1705,-0.077,0.0386,0.1165,0.1177,0.1571,0.1964,0.1964,0.2356,0.2749,0.2749,0.2946,0.3143,0.3143,0.3143,0.4119,0.6266,0.8407,1.0355,1.2507,1.4651,1.5431,1.5638,1.5625,1.5625,1.5638,1.5625,1.5625,1.5631,1.5625,1.5625,1.5625,1.5625,1.5625,1.5625,1.5625,1.5625,1.5625,1.5625,1.5625,1.5598,1.546,1.5321,1.5196,1.5091,1.5137,1.5387,1.5288,1.5381,1.5756,1.571,1.5671,1.5763,1.571,1.5552,1.5414,1.5367,1.5411,1.5224,1.5322,1.5486,1.5666,1.5671,1.578,1.6087,1.647,1.6692,1.701,1.6836,1.6773,1.6718,1.6655,1.6663,1.6663,1.6663,1.6663,1.6834,1.7338,1.733,1.7492,1.9165,2.0169,2.0665,2.2007,2.3188,2.3355,2.3699,2.4186,2.4352,2.453,2.453,2.4186,2.4352,2.6043,2.6437,2.7035,2.6498,2.606,2.5956,2.584,2.5451,2.5156,2.4852,2.4586,2.3942,2.3982,2.4414,2.4399,2.4438,-1.1344,-1.0991,-0.9721,-0.856,-0.7184,-0.4733,-0.2971,-0.1701,0.0,0.0578,0.0779,0.1175,0.1375,0.1375,0.1964,0.216,0.2356,0.2749,0.2946,0.2946,0.2946,0.3923,0.5486,0.8017,1.016,1.1725,1.4064,1.5671,1.5743,1.5763,1.5763,1.5743,1.577,1.5723,1.5631,1.5625,1.5625,1.5625,1.5625,1.5625,1.5625,1.5625,1.5625,1.5625,1.5625,1.5625,1.5598,1.5341,1.5163,1.5091,1.5077,1.5209,1.542,1.5295,1.5321,1.5592,1.5631,1.5631,1.5631,1.5631,1.5532,1.5321,1.5361,1.5183,1.4906,1.4886,1.5024,1.5092,1.5124,1.5173,1.548,1.5618,1.5972,1.6257,1.6062,1.5994,1.6305,1.6476,1.6476,1.6476,1.6655,1.6655,1.6826,1.716,1.733,1.733,1.8665,2.0169,2.0169,2.1001,2.2509,2.2185,2.185,2.184,2.184,2.2175,2.2331,2.2154,2.3056,2.4496,2.4504,2.5092,2.4977,2.4517,2.3777,2.323,2.3242,2.3748,2.3769,2.3546,2.3374,2.378,2.3824,2.3683,2.3615,-1.1344,-1.1154,-1.0986,-0.8992,-0.6262,-0.556,-0.3635,-0.0743,0.0,0.0,0.0,0.0583,0.0784,0.0981,0.1374,0.1571,0.1767,0.216,0.2356,0.2356,0.2356,0.2553,0.3336,0.6651,0.8793,1.0156,1.3477,1.5561,1.5934,1.5981,1.6053,1.602,1.602,1.5928,1.5717,1.5451,1.5651,1.5631,1.5625,1.5625,1.5625,1.5625,1.5625,1.5625,1.5605,1.5592,1.5545,1.5302,1.5044,1.4847,1.4866,1.5005,1.517,1.5203,1.5335,1.5598,1.5625,1.5625,1.5625,1.5625,1.5598,1.5559,1.5353,1.548,1.5028,1.4969,1.4717,1.4893,1.4787,1.4924,1.5227,1.5152,1.5374,1.5691,1.5546,1.5559,1.5464,1.5807,1.5978,1.6134,1.6476,1.6663,1.6655,1.7833,1.7833,1.7663,1.9174,1.9672,1.9672,1.9832,2.1337,2.1505,2.1011,2.0843,2.0338,2.0665,2.1108,2.0998,2.1383,2.1468,2.0961,2.1572,2.19,2.1434,2.0898,2.0326,2.0345,2.1417,2.188,2.1968,2.2516,2.3696,2.3631,2.3044,2.2937,-1.1482,-1.1159,-1.1144,-1.0317,-0.8971,-0.6511,-0.4808,-0.3447,-0.1099,0.0,0.0,0.0,0.0386,0.0387,0.0781,0.0981,0.1178,0.1571,0.1571,0.1375,0.1571,0.1767,0.2159,0.392,0.5675,0.8988,1.2113,1.4318,1.5607,1.5974,1.608,1.6119,1.6251,1.6192,1.5941,1.5901,1.5803,1.5644,1.5631,1.5625,1.5625,1.5625,1.5625,1.5598,1.5447,1.5361,1.5328,1.5071,1.4952,1.5018,1.5031,1.5176,1.5427,1.546,1.5513,1.5611,1.5625,1.5625,1.5625,1.5625,1.5625,1.5238,1.4264,1.4016,1.4917,1.4113,1.428,1.491,1.5143,1.5031,1.5137,1.5151,1.5062,1.5356,1.529,1.5351,1.548,1.5691,1.5677,1.565,1.5948,1.6127,1.6298,1.7143,1.7322,1.6989,1.7833,1.8173,1.8165,1.8335,1.8504,1.8674,1.8959,1.911,1.8977,1.926,1.97,1.9699,1.9697,1.9047,1.8593,1.9353,1.9684,1.9257,1.9514,1.9137,1.9223,2.0019,2.0278,2.0132,2.0322,2.114,2.1563,2.1419,2.2009,-1.1561,-1.1159,-1.1144,-1.0792,-0.9753,-0.6965,-0.5262,-0.4442,-0.1435,0.0,0.0,0.0,0.0,0.0,0.0387,0.0586,0.0589,0.0781,0.0977,0.0589,0.1178,0.1375,0.1375,0.1571,0.3722,0.7432,1.0998,1.3832,1.5553,1.6218,1.6343,1.637,1.6541,1.6468,1.6218,1.6198,1.606,1.5803,1.577,1.571,1.5631,1.5625,1.5572,1.548,1.5295,1.5189,1.5176,1.4998,1.4998,1.517,1.5269,1.5414,1.5578,1.5625,1.5625,1.5625,1.5625,1.5625,1.5625,1.5625,1.5625,1.5238,1.4264,1.4264,1.5038,1.4258,1.4246,1.5199,1.5453,1.5321,1.5242,1.505,1.5099,1.5018,1.4897,1.4809,1.5028,1.5041,1.5169,1.5135,1.5435,1.5777,1.5777,1.5948,1.6298,1.6469,1.6647,1.6818,1.6818,1.6997,1.6655,1.6632,1.6497,1.6932,1.7636,1.8178,1.8128,1.7771,1.7741,1.7368,1.7444,1.7871,1.7786,1.7785,1.8386,1.8562,1.8679,1.8952,1.8962,1.8815,1.9171,1.9297,1.9245,1.9808,2.0547,-1.1556,-1.1175,-1.1144,-1.0273,-0.8705,-0.6788,-0.4705,-0.2979,-0.1068,0.0,0.0,0.0,0.0,0.0,0.0,0.0,0.0,0.0,0.0,0.0196,0.0588,0.0784,0.0786,0.1178,0.2943,0.55,1.0345,1.3743,1.6003,1.6473,1.6844,1.689,1.6897,1.6785,1.6488,1.6482,1.635,1.6132,1.6066,1.5948,1.5671,1.5664,1.5552,1.5308,1.5209,1.5176,1.5163,1.5157,1.5157,1.5209,1.5447,1.5611,1.5618,1.5625,1.5625,1.5625,1.5625,1.5625,1.5625,1.5625,1.5625,1.5431,1.5431,1.5044,1.5431,1.5238,1.5044,1.5425,1.5578,1.5572,1.5506,1.5242,1.4998,1.4781,1.4405,1.4214,1.428,1.4095,1.4069,1.4619,1.5106,1.5271,1.5442,1.5613,1.5785,1.6111,1.6081,1.622,1.6561,1.6513,1.66,1.6529,1.6308,1.6126,1.6632,1.7098,1.6423,1.5835,1.6062,1.6338,1.6464,1.6281,1.6361,1.6324,1.6943,1.7159,1.7298,1.8134,1.8076,1.8693,1.8524,1.8703,1.8406,1.8396,1.9233,-1.1413,-1.1165,-1.1144,-1.0797,-1.0095,-0.8184,-0.6441,-0.4533,-0.2632,-0.1057,0.0,0.0,0.0,0.0,0.0,0.0,0.0,0.0,0.0,0.0,0.0193,0.0194,0.0196,0.0393,0.1185,0.2596,0.5416,0.9319,1.3393,1.5733,1.6923,1.6956,1.7141,1.7088,1.6838,1.6785,1.664,1.6409,1.6356,1.631,1.6205,1.6027,1.5882,1.575,1.5394,1.5104,1.4913,1.5084,1.5189,1.5222,1.5466,1.5625,1.5625,1.5625,1.5625,1.5625,1.5618,1.5625,1.5625,1.5625,1.5618,1.5431,1.4451,1.407,1.5238,1.4264,1.4264,1.5193,1.5466,1.5321,1.5269,1.5064,1.4873,1.4768,1.4609,1.4537,1.4603,1.4352,1.437,1.4484,1.4695,1.4942,1.5263,1.5599,1.5933,1.6476,1.6242,1.6125,1.6245,1.6103,1.5929,1.5913,1.5834,1.5771,1.5805,1.5801,1.5128,1.5072,1.5321,1.5378,1.5305,1.4983,1.4935,1.4952,1.528,1.5509,1.6216,1.7091,1.7994,1.8874,1.8562,1.77,1.7653,1.7313,1.7231,-1.1196,-1.1138,-1.1054,-1.107,-1.0792,-0.8358,-0.6792,-0.5401,-0.2965,-0.1048,0.0,0.0,0.0,0.0,0.0,0.0,0.0,0.0,0.0,0.0,0.0,0.0,0.0,0.0,0.0197,0.1006,0.302,0.671,1.1853,1.5246,1.6659,1.6909,1.7066,1.7286,1.7128,1.7095,1.6943,1.6666,1.6528,1.6436,1.631,1.606,1.5981,1.604,1.5598,1.5262,1.5091,1.5249,1.5341,1.5341,1.5526,1.5625,1.5618,1.5532,1.5427,1.5335,1.5321,1.5321,1.5321,1.5321,1.5321,1.5125,1.3981,1.3969,1.4746,1.417,1.3797,1.4903,1.5124,1.4979,1.4866,1.4623,1.4445,1.4445,1.4438,1.4405,1.4412,1.4293,1.4161,1.4135,1.4196,1.4358,1.4616,1.4927,1.5222,1.5783,1.5749,1.5617,1.5719,1.574,1.5613,1.5574,1.5479,1.5353,1.4945,1.4405,1.4434,1.445,1.4711,1.4906,1.5156,1.5045,1.4998,1.5187,1.5163,1.5418,1.563,1.6479,1.6637,1.7443,1.7167,1.6568,1.6838,1.6492,1.6054,-1.0932,-1.1085,-1.0885,-1.0922,-1.0777,-0.7468,-0.5738,-0.5401,-0.1919,-0.0175,0.0,0.0,0.0,0.0,0.0,0.0,0.0,0.0,0.0,0.0,0.0,0.0,0.0,0.0,0.0195,0.0805,0.2624,0.6151,1.1209,1.4843,1.6492,1.6486,1.6929,1.7144,1.7306,1.7293,1.7194,1.6857,1.6607,1.6376,1.6112,1.5803,1.5776,1.5981,1.577,1.5598,1.5598,1.5618,1.5618,1.5618,1.5592,1.5592,1.5572,1.5321,1.5058,1.484,1.4801,1.4794,1.4807,1.482,1.482,1.4801,1.4656,1.4801,1.4853,1.4669,1.4669,1.4794,1.4754,1.4596,1.4359,1.4135,1.3963,1.3943,1.3917,1.3924,1.3738,1.3943,1.3884,1.3897,1.3897,1.3805,1.3561,1.3482,1.3927,1.4369,1.4534,1.4643,1.5254,1.5351,1.5289,1.5234,1.5062,1.4643,1.3791,1.3794,1.4125,1.4487,1.4788,1.5063,1.5254,1.559,1.5574,1.5566,1.5463,1.5448,1.555,1.5742,1.5885,1.6038,1.5917,1.6061,1.6731,1.6012,1.5502,-1.1831,-1.1729,-1.166,-1.1498,-1.1043,-0.8502,-0.6692,-0.5393,-0.2965,-0.1222,0.0,0.0,0.0,0.0,0.0,0.0,0.0,0.0,0.0,0.0,0.0,0.0,0.0,0.0,0.0,0.0403,0.0,0.3737,0.8886,1.3561,1.6062,1.6492,1.6707,1.6832,1.7075,1.7055,1.691,1.6633,1.6541,1.6455,1.6317,1.5882,1.5664,1.5737,1.5664,1.5625,1.5625,1.5625,1.5625,1.5618,1.542,1.5308,1.5295,1.5038,1.4853,1.4781,1.4768,1.4768,1.4768,1.4768,1.4768,1.4768,1.4768,1.4768,1.4768,1.4768,1.4768,1.4728,1.4379,1.3947,1.4009,1.3924,1.3884,1.3878,1.3878,1.3878,1.3878,1.3878,1.3878,1.3878,1.3878,1.3845,1.3785,1.3916,1.4308,1.449,1.4445,1.4417,1.4325,1.4257,1.41,1.4047,1.4017,1.3843,1.3699,1.381,1.4299,1.4684,1.4888,1.5247,1.5758,1.5708,1.5605,1.5921,1.5692,1.5653,1.5826,1.5724,1.5797,1.6079,1.6292,1.6191,1.6725,1.5983,1.563,-1.2258,-1.2122,-1.2009,-1.1797,-1.1313,-0.9226,-0.7632,-0.653,-0.3991,-0.2093,-0.1222,-0.1048,-0.1048,-0.1048,-0.0349,0.0,0.0,0.0,0.0,0.0,0.0,0.0,0.0,0.0,0.0,0.0,0.0,0.2479,0.7118,1.0366,1.3183,1.5311,1.5739,1.6085,1.635,1.6545,1.646,1.6495,1.6376,1.6258,1.592,1.5607,1.5625,1.5625,1.5625,1.5625,1.5618,1.5506,1.5447,1.5427,1.5176,1.5011,1.5011,1.4748,1.459,1.459,1.4477,1.4412,1.4412,1.4405,1.4405,1.4405,1.4412,1.4412,1.4405,1.4405,1.4412,1.4194,1.3384,1.3018,1.3712,1.3878,1.3878,1.3878,1.3878,1.3878,1.3878,1.3878,1.3878,1.3878,1.3878,1.3878,1.3871,1.3969,1.4105,1.4305,1.4121,1.4097,1.4075,1.3873,1.3699,1.3597,1.3356,1.3349,1.3367,1.3657,1.4149,1.4525,1.4932,1.5216,1.5934,1.5953,1.6063,1.6292,1.604,1.5937,1.6079,1.5866,1.5653,1.5866,1.6116,1.6159,1.6884,1.6198,1.5239,-1.2325,-1.2259,-1.2006,-1.1718,-1.1556,-0.9442,-0.8528,-0.7904,-0.4642,-0.3126,-0.3283,-0.2945,-0.2772,-0.2434,-0.087,0.0,0.0,0.0,0.0,0.0,0.0,0.0,0.0,0.0,0.0,0.0,0.0,0.2237,0.6586,0.6814,0.9083,1.3415,1.4456,1.5076,1.5647,1.5647,1.5825,1.6193,1.5965,1.5514,1.4876,1.5238,1.5431,1.5431,1.5431,1.5425,1.5366,1.5138,1.5176,1.513,1.488,1.4728,1.4702,1.4425,1.4247,1.4234,1.3963,1.3628,1.3798,1.3798,1.3798,1.3798,1.3805,1.3818,1.3851,1.3654,1.3457,1.3109,1.1734,1.1723,1.3318,1.3483,1.3483,1.3693,1.3878,1.3878,1.3878,1.3878,1.3878,1.3878,1.3878,1.3878,1.3858,1.3713,1.3615,1.375,1.3613,1.3623,1.3858,1.3809,1.3731,1.3703,1.3394,1.3242,1.3093,1.3317,1.3809,1.4183,1.4877,1.5252,1.5567,1.6112,1.6529,1.588,1.5992,1.5805,1.5789,1.5826,1.5437,1.5716,1.5684,1.5574,1.5527,1.5416,1.5171,-1.3322,-1.311,-1.2827,-1.241,-1.1754,-0.9564,-0.8398,-0.8061,-0.605,-0.605,-0.6951,-0.43,-0.3009,-0.2884,-0.0851,0.0,0.0,0.0,0.0,0.0,0.0,0.0,0.0,0.0,0.0,0.0,0.0,0.2221,0.6074,0.6563,0.8877,1.301,1.4035,1.4352,1.4763,1.4763,1.4854,1.4646,1.4579,1.433,1.427,1.4264,1.4264,1.4264,1.4445,1.436,1.4152,1.4475,1.4524,1.4302,1.4403,1.4431,1.4405,1.3943,1.366,1.3634,1.3377,1.3218,1.3218,1.3212,1.3218,1.3218,1.3218,1.3311,1.3341,1.218,1.1393,1.1229,0.9936,0.9673,1.1314,1.1689,1.2276,1.368,1.3878,1.3673,1.3871,1.3878,1.3878,1.3878,1.3878,1.3706,1.3871,1.3654,1.3733,1.3594,1.3449,1.3095,1.3045,1.2998,1.3201,1.3322,1.3502,1.3561,1.3423,1.3581,1.3896,1.4481,1.4518,1.4741,1.4851,1.5013,1.4902,1.5066,1.4813,1.4916,1.5224,1.5132,1.5231,1.5503,1.5487,1.5455,1.5234,1.5013,1.4713,-1.368,-1.3607,-1.3199,-1.2775,-1.2454,-1.0939,-1.0044,-0.9793,-0.8935,-0.9073,-0.9629,-0.6159,-0.4591,-0.4146,-0.1498,-0.0168,0.0,0.0,0.0,0.0,0.0,0.0,0.0,0.0957,0.136,0.157,0.2377,0.4574,0.7552,0.7821,0.947,1.2692,1.3093,1.3432,1.3907,1.3896,1.4017,1.407,1.3838,1.3713,1.3708,1.3847,1.3909,1.3909,1.3903,1.3828,1.3867,1.3933,1.38,1.3641,1.3589,1.3594,1.3713,1.3311,1.3119,1.3251,1.3113,1.3027,1.3027,1.3027,1.3027,1.3027,1.3027,1.304,1.3067,1.065,0.9658,1.0565,0.8957,0.8518,0.9606,1.044,1.1319,1.2289,1.2307,1.2641,1.3161,1.2908,1.2663,1.336,1.2248,1.1974,1.3534,1.2901,1.2687,1.3654,1.3522,1.3251,1.3205,1.3093,1.3159,1.3548,1.3504,1.362,1.3502,1.3502,1.3482,1.3836,1.3852,1.4091,1.4213,1.4459,1.4343,1.4315,1.4336,1.4421,1.4557,1.4765,1.4821,1.5108,1.51,1.5061,1.4903,1.4698,1.4548,-1.3515,-1.3647,-1.3126,-1.2902,-1.2862,-1.2328,-1.2117,-1.1899,-1.1824,-1.1497,-1.0767,-0.7481,-0.596,-0.5509,-0.2113,-0.049,0.0,0.0,0.0,0.0,0.0,0.0,0.0,0.2121,0.3116,0.3318,0.5071,0.7225,0.9198,0.9206,1.0372,1.2129,1.2512,1.2717,1.3111,1.3111,1.3266,1.3759,1.3337,1.3132,1.3161,1.3439,1.3527,1.3483,1.3464,1.3407,1.3362,1.329,1.311,1.3065,1.2716,1.254,1.2768,1.2495,1.2417,1.2658,1.2638,1.2645,1.2836,1.2843,1.2856,1.2902,1.2908,1.2777,1.2338,0.922,0.8056,0.9643,0.7891,0.7114,0.7625,0.8751,0.9733,1.0101,1.0096,1.0743,1.1754,1.0939,1.0716,1.2062,0.988,0.9448,1.1978,1.1498,1.1281,1.2451,1.2956,1.3283,1.32,1.3387,1.3354,1.3322,1.3213,1.2924,1.2352,1.252,1.2607,1.2692,1.3162,1.3595,1.3595,1.3844,1.396,1.4003,1.3923,1.408,1.4051,1.4275,1.4349,1.4326,1.4484,1.4461,1.4603,1.4115,1.392,-1.2988,-1.2783,-1.2454,-1.2322,-1.2295,-1.1946,-1.1966,-1.2059,0.0,0.0,0.0,-0.5969,-0.4586,-0.4434,-0.1748,-0.0482,-0.0491,-0.0164,0.0,0.0,0.0,0.0,0.0,0.1853,0.2828,0.3253,0.4972,0.7133,0.9195,0.9393,1.0372,1.2318,1.2512,1.2512,1.2517,1.2517,1.2518,1.2339,1.2241,1.2111,1.2492,1.2416,1.2459,1.2254,1.2049,1.1856,1.1662,1.1757,1.169,1.1493,1.1663,1.1674,1.1699,1.1259,1.1015,1.1046,1.1147,1.1267,1.1624,1.1798,1.2058,1.2302,1.2315,1.2039,1.1169,0.8171,0.6441,0.6772,0.4164,0.2955,0.459,0.5069,0.5902,0.7478,0.7656,0.7648,0.7976,0.785,0.7862,0.8033,0.7569,0.7585,0.8747,0.9525,0.9837,0.9713,1.1342,1.2638,1.1668,1.1837,1.2,1.1557,1.1353,1.0803,0.9827,1.0253,1.1066,1.1337,1.2156,1.2828,1.2781,1.2782,1.2647,1.2674,1.2593,1.2855,1.2985,1.3251,1.3208,1.3494,1.395,1.4107,1.3957,1.2737,1.1597,-1.2711,0.0,-1.2289,-1.2078,0.0,-1.1623,-1.1583,-1.1695,-1.1405,-1.0509,-0.9051,-0.6618,-0.4963,-0.4032,-0.1796,-0.076,-0.0622,-0.0159,0.0,0.0,0.0,0.0,0.0,0.2027,0.3532,0.45,0.656,0.8481,1.0457,1.0651,1.0977,1.1984,1.1989,1.1931,1.1825,1.1636,1.1651,1.1307,1.1595,1.1887,1.2001,1.1955,1.1936,1.1818,1.1689,0.0,0.0,0.0,0.0,0.0,0.0,0.0,0.0,0.0,0.0,1.0693,1.0594,1.0643,1.0767,1.0928,1.114,1.1425,1.1293,1.1079,1.0519,0.7709,0.5896,0.582,0.3889,0.2418,0.2628,0.3408,0.4202,0.5189,0.5357,0.5669,0.63,0.5884,0.577,0.6409,0.5183,0.5057,0.7006,0.7103,0.6921,0.764,0.9518,1.0442,0.9249,0.9277,0.9924,1.0091,0.9844,0.9604,0.9121,0.9524,1.0211,1.1314,1.1997,1.2381,1.2374,1.2256,1.217,1.2321,1.2464,1.2615,1.2758,1.3058,1.3194,1.3344,1.3651,1.3464,1.2248,1.0732,0.9762,-1.2388,-1.2308,-1.2187,-1.1781,-1.1537,-1.124,-1.1115,-1.1115,-1.1122,-1.0139,-0.8473,-0.6711,-0.5067,-0.3678,-0.1983,-0.1003,-0.0732,-0.0306,0.0,0.0,0.0,0.0,0.0,0.1999,0.3827,0.5483,0.7885,0.9938,1.1274,1.1642,1.173,1.1545,1.154,1.1429,1.1217,0.0,0.0,0.0,1.1166,1.15,1.1695,1.1666,1.1597,1.1551,1.1459,0.0,1.11,1.0996,1.0858,1.0667,1.0407,0.0,0.0,0.0,0.0,0.0,0.0,0.0,0.0,0.0,0.0,0.0,1.0079,0.9966,1.0013,0.7824,0.6067,0.5591,0.3916,0.2497,0.1195,0.225,0.3011,0.3024,0.3029,0.3485,0.4559,0.3716,0.3607,0.5008,0.2869,0.2259,0.5138,0.4599,0.4262,0.5598,0.7303,0.7604,0.5939,0.6259,0.707,0.7871,0.7749,0.798,0.8447,0.8782,0.9618,1.1103,1.1712,1.2026,1.2026,1.2019,1.2013,1.2013,1.2464,1.2758,1.2758,1.2901,1.3051,1.3194,1.3037,1.2045,0.9724,0.8321,0.793,-1.1682,-1.1418,-1.1148,-1.101,-1.095,-1.0654,-1.0528,-1.0659,-1.0659,-0.9081,-0.6457,-0.3922,-0.2634,-0.2549,-0.1983,-0.1419,-0.0998,-0.0734,-0.0302,0.0,0.0,0.0,0.0,0.1865,0.2932,0.3684,0.7134,0.9077,0.9606,1.109,1.1815,1.1788,1.1788,1.1661,1.1413,1.0826,1.0515,1.0488,1.0916,1.1233,1.1424,1.1547,1.1424,1.122,1.0817,1.0587,1.0544,1.0157,0.9932,0.99,0.9675,0.9556,0.9578,0.9133,0.888,0.0,0.9097,0.0,0.0,0.0,0.0,0.0,0.0,0.0,0.0,0.8618,0.717,0.451,0.1937,0.0424,0.0139,0.0283,0.0433,0.0,0.0444,0.0596,0.0,0.0612,0.0613,0.0766,0.0461,0.0462,0.154,0.2455,0.2757,0.2468,0.4663,0.5131,0.216,0.3688,0.5228,0.3995,0.4137,0.4907,0.5208,0.7018,0.8825,0.9128,1.0197,1.1109,1.1109,1.1404,1.1548,1.1548,1.1862,1.2163,1.2314,1.2314,1.2314,1.2163,1.1217,0.9467,0.6624,0.548,0.5213,-1.2411,-1.1831,-1.1562,-1.1514,-1.1637,-1.1363,-1.1174,-1.1174,-1.1032,-0.967,-0.7644,-0.5667,-0.3779,-0.2407,-0.1983,-0.1713,-0.1449,-0.0891,-0.0457,-0.0312,-0.016,0.0,0.0,0.0826,0.1833,0.2858,0.458,0.5989,0.7254,0.8978,0.961,0.9508,1.0649,1.0874,1.052,1.0214,1.0187,1.0435,1.0647,1.0927,1.127,1.1291,1.1181,1.0783,1.0742,1.0509,1.0245,1.0044,0.9881,0.9754,0.9527,0.9249,0.9238,0.8708,0.8417,0.0,0.0,0.0,0.0,0.0,0.0,0.0,0.0,0.0,0.0,0.0,0.6453,0.3973,0.1465,0.0,0.0,0.0,0.0,0.0,0.0,0.0,0.0,0.0,0.0,0.0,0.0,0.0,0.0299,0.0897,0.1201,0.061,0.1654,0.1914,0.0434,0.1176,0.2835,0.3881,0.3473,0.3654,0.5627,0.715,0.8518,0.9587,1.0499,1.0813,1.0807,1.0952,1.0795,1.0018,1.0024,1.0018,0.9264,0.9113,0.9269,0.9254,0.7967,0.6208,0.448,0.3384,0.3022,-1.2953,-1.2482,-1.1918,-1.1976,-1.2307,-1.1767,-1.172,-1.1852,-1.142,-1.0399,-0.8822,-0.7744,-0.5612,-0.2642,-0.2086,-0.1828,-0.1722,-0.1036,-0.0608,-0.0623,-0.0159,0.0,0.0,0.0,0.0812,0.2108,0.2431,0.3411,0.4894,0.6613,0.7492,0.7572,0.9084,0.9748,0.969,0.9775,1.0002,1.0346,1.0409,1.0615,1.0964,1.0974,1.0895,1.071,1.0647,1.0451,1.0097,1.0034,0.9923,0.9754,0.9474,0.9289,0.922,0.8396,0.0,0.0,0.0,0.0,0.0,0.0,0.0,0.0,0.0,0.6525,0.6705,0.0,0.5694,0.0,0.1398,0.0,0.0,0.0,0.0,0.0,-0.0129,-0.0132,-0.0136,-0.0139,-0.0281,-0.0281,-0.0287,-0.0292,-0.0292,-0.0292,-0.0295,-0.0301,-0.0586,-0.0708,-0.0553,-0.0143,0.1027,0.3208,0.2956,0.359,0.627,0.7207,0.8153,1.0191,1.0191,1.004,1.004,0.9889,0.9274,0.8051,0.7891,0.7589,0.6681,0.653,0.6508,0.5684,0.4254,0.3012,0.2954,0.2061,0.1477,-1.2895,-1.2743,-1.1836,-1.1762,-1.202,-1.1274,-1.1333,-1.1845,-1.142,-1.0295,-0.8734,-0.8924,-0.7139,-0.3941,-0.263,0.0,-0.1591,-0.1116,-0.0867,-0.0593,-0.0152,0.0,0.0,0.0,0.0159,0.0,0.19,0.272,0.3093,0.4847,0.6493,0.7556,0.7567,0.8308,0.9311,0.9838,1.0076,1.0113,1.0325,1.0457,1.0494,1.0494,1.0483,1.0462,1.0256,1.0124,1.0071,0.9886,0.977,0.9738,0.9315,0.9111,0.8739,0.0,0.0,0.0,0.0,0.0,0.0,0.0,0.0,0.0,0.0,0.0,0.0,0.0,0.0,0.0,0.1305,0.0,0.0,-0.0242,0.0,0.0,0.0,-0.0646,-0.0686,-0.0823,-0.0956,-0.0956,0.0,0.0,-0.0852,-0.0852,-0.1004,-0.103,-0.1177,-0.1018,-0.0993,-0.0144,0.0438,0.1141,0.1709,0.2994,0.5598,0.6107,0.696,0.9219,0.8674,0.774,0.758,0.6825,0.593,0.5763,0.592,0.6062,0.6069,0.575,0.5095,0.2013,0.1118,0.096,0.1231,0.1073,0.0927,-1.2263,-1.0741,-1.0392,-1.014,-0.9998,-0.9515,-0.9706,-1.0499,-1.0254,-0.9226,-0.744,-0.7759,-0.6037,-0.2874,-0.2394,0.0,0.0,0.0,-0.1107,-0.0864,-0.0436,-0.0148,0.0,0.0,0.0,0.0,0.0774,0.1088,0.1098,0.292,0.4306,0.5367,0.0,0.0,0.8977,0.9294,0.9595,0.9881,1.0103,1.0293,1.043,1.0441,1.0367,1.0224,1.0129,1.0018,0.9886,0.9801,0.9553,0.9125,0.8808,0.8526,0.0,0.0,0.0,0.0,0.0,0.0,0.0,0.0,0.0,0.0,0.0,0.5437,0.5294,0.0,0.0,0.0,0.1845,0.0592,-0.0413,-0.0547,0.0,0.0,0.0,0.0,0.0,0.0,0.0,-0.0842,-0.0902,-0.0947,-0.0947,-0.1351,-0.1618,-0.161,-0.1497,-0.1361,-0.1324,0.0,0.0844,0.1979,0.2972,0.4268,0.6209,0.6339,0.6622,0.7858,0.6921,0.6071,0.5552,0.4864,0.4142,0.3507,0.32,0.3053,0.2328,0.2038,0.1301,0.0,-0.0277,-0.0273,-0.0136,-0.0133,-0.0131,-1.1543,0.0,0.0,0.0,0.0,-0.8477,-0.8779,-0.941,-0.9085,-0.812,-0.668,-0.7013,0.0,0.0,0.0,0.0,0.0,0.0,-0.1488,-0.1121,-0.0717,-0.0441,-0.0302,-0.0151,-0.0151,-0.0151,0.0,0.0,0.0,0.1614,0.3075,0.4336,0.0,0.0,0.0,0.0,0.9141,0.9543,0.968,0.9753,0.9912,0.9758,0.9524,0.9366,0.9366,0.9292,0.8996,0.9019,0.8672,0.835,0.7992,0.0,0.0,0.0,0.0,0.0,0.0,0.0,0.0,0.0,0.0,0.0,0.0,0.0,0.0,0.0,0.0,0.0,0.0,0.0,-0.0363,-0.0695,-0.0827,0.0,0.0,0.0,0.0,0.0,0.0,0.0,0.0,0.0,-0.1113,-0.1498,-0.1894,0.0,0.0,-0.1321,-0.1643,-0.0132,0.136,0.23,0.338,0.0,0.6025,0.6128,0.6095,0.6282,0.5708,0.489,0.351,0.282,0.2117,0.1109,0.0695,0.0414,-0.0535,-0.1058,-0.1317,-0.1178,-0.1295,-0.1156,-0.1028,-0.0892,-0.0888,0.0,0.0,0.0,0.0,0.0,0.0,0.0,0.0,-0.778,-0.7296,0.0,-0.6861,0.0,0.0,0.0,0.0,0.0,-0.1677,0.0,0.0,-0.1319,-0.1053,-0.103,-0.0735,-0.0589,-0.0587,-0.014,0.0,0.0,0.1198,0.0,0.0,0.0,0.0,0.0,0.0,0.8819,0.9078,0.8777,0.8537,0.855,0.779,0.7482,0.7478,0.7478,0.7474,0.7454,0.7266,0.7186,0.7194,0.6737,0.0,0.0,0.0,0.0,0.0,0.0,0.0,0.0,0.0,0.0,0.0,0.0,0.0,0.0,0.0,0.0,0.0,0.0,0.0,0.0,-0.0546,0.0,0.0,0.0,0.0,0.0,0.0,0.0,0.0,0.0,0.0,-0.1277,-0.1332,-0.1545,-0.2064,0.0,0.0,0.0,0.0,0.1723,0.0858,0.193,0.3292,0.4146,0.4638,0.5018,0.4603,0.0,0.0,0.1228,0.0,-0.0789,-0.1441,-0.1201,-0.1046,-0.159,-0.2105,-0.2304,-0.1809,-0.1846,-0.176,-0.1322,-0.1134,-0.0938,0.0,0.0,0.0,0.0,0.0,0.0,0.0,0.0,0.0,-0.6279,0.0,-0.564,0.0,0.0,0.0,0.0,0.0,0.0,0.0,0.0,-0.125,-0.1027,-0.0648,-0.0528,-0.0395,0.0,0.0,0.0,0.0,0.0,0.0,0.0,0.0,0.0,0.0,0.0,0.7087,0.7874,0.6327,0.5778,0.6389,0.5478,0.502,0.502,0.502,0.5242,0.5807,0.5975,0.5731,0.0,0.0,0.0,0.0,0.0,0.0,0.0,0.0,0.0,0.0,0.0,0.0,0.0,0.0,0.0,0.0,0.0,0.0,0.0,0.0,0.0,0.0,0.0,-0.1288,0.0,0.0,0.0,0.0,0.0,0.0,0.0,0.0,0.0,-0.1555,-0.165,-0.2102,-0.3069,-0.2765,-0.2664,-0.3138,0.0,0.0,0.0,0.0,0.0,0.0,0.0,0.3453,0.3421,0.2875,0.2043,0.1158,-0.0128,-0.1251,-0.1768,0.0,0.0,-0.2127,-0.2406,-0.2537,-0.2306,-0.2323,-0.224,-0.2139,-0.2095,-0.2163,0.0,0.0,0.0,0.0,0.0,0.0,0.0,0.0,0.0,-0.5299,-0.4692,0.0,0.0,0.0,0.0,0.0,0.0,0.0,0.0,0.0,0.0,0.0,-0.0699,-0.06,0.0,0.0,0.0,0.0,0.0,0.0,0.0,0.0,0.0,0.0,0.0,0.0,0.5999,0.7223,0.4688,0.3802,0.5022,0.3652,0.2892,0.289,0.2892,0.3273,0.4244,0.0,0.0,0.0,0.0,0.0,0.0,0.0,0.0,0.0,0.0,0.0,0.0,0.0,0.0,0.0,0.0,0.0,0.0,0.0,0.0,0.0,0.0,0.0,0.0,0.0,-0.0951,0.0,0.0,0.0,0.0,0.0,0.0,0.0,0.0,0.0,0.0,0.0,-0.1737,-0.2912,-0.28,-0.2873,-0.3595,-0.2656,-0.1584,0.0,0.0,0.0,0.0,0.0,0.0,0.0,0.0,0.0,0.0,0.0,0.0,0.0,0.0,-0.21,-0.2407,-0.2672,-0.2799,-0.2672,0.0,0.0,0.0,0.0,0.0,0.0,0.0,0.0,0.0,0.0,0.0,0.0,0.0,0.0,0.0,-0.4394,0.0,0.0,-0.3416,0.0,0.0,0.0,0.0,0.0,0.0,0.0,0.0,0.0,0.0,0.0,0.0,0.0,0.0,0.0,0.0,0.0,0.0,0.0,0.0,0.0,0.0,0.553,0.7188,0.3956,0.2895,0.3963,0.2136,0.1069,0.1069,0.1067,0.1638,0.269,0.0,0.0,0.0,0.0,0.0,0.0,0.0,0.0,0.0,0.0,0.0,0.0,0.0,0.0,0.0,0.0,0.0,0.0,0.0,0.0,0.0,0.0,0.0,0.0,0.0,0.0,0.0287,0.0464,0.0485,0.0,0.0,0.0,0.0,0.0,0.0,0.0,0.0,0.0,0.0,-0.1324,-0.1402,-0.3202,-0.1903,-0.1356,-0.2302,-0.0956,0.0106,-0.0227,0.0916,0.1505,0.0,0.0,0.0,0.0,0.0,0.0,0.0,0.0,0.0,0.0,0.0,0.0,0.0,0.0,0.0,0.0,0.0,0.0,0.0,0.0,0.0,0.0,0.0,0.0,0.0,0.0,0.0,0.0,0.0,0.0,0.0,0.0,0.0,0.0,0.0,0.0,0.0,0.0,0.0,0.0,0.0,0.0,0.0,0.0,0.0,0.0,0.0,0.0,0.0,0.0,0.0,0.0,0.0,0.0,0.2776,0.3595,0.0577,-0.0458,0.0763,-0.061,-0.1375,-0.1373,-0.1329,-0.0856,0.0,0.0,0.0,0.0,0.0,0.0,0.0,0.0,0.0,0.0,0.0,0.0,0.0,0.0,0.0,0.0,0.0,0.0,0.0,0.0,0.0,0.0,0.0,0.0,0.0,0.0,0.0,0.0,0.0144,0.0143,0.0149,0.0,0.0,0.0,0.0,0.0,0.0,0.0,0.0,0.0,0.0,-0.4343,-0.4811,-0.3953,-0.3298,-0.3268,-0.1834,-0.0649,-0.0552,0.0338,0.0792,-0.0218,0.0,0.0,0.0,0.0,0.0,0.0,0.0,0.0,0.0,0.0,0.0,0.0,0.0,0.0,0.0,0.0,0.0,0.0,0.0,0.0,0.0,0.0,0.0,0.0,0.0,0.0,0.0,0.0,0.0,0.0,0.0,0.0,0.0,0.0,0.0,0.0,0.0,0.0,0.0,0.0,0.0,0.0,0.0,0.0,0.0,0.0,0.0,0.0,0.0,0.0,0.0,0.0,0.0,0.1236,0.1502,-0.1432,-0.2441,-0.1677,-0.2747,-0.3344,-0.3312,-0.3182,-0.2482,0.0,0.0,0.0,0.0,0.0,0.0,0.0,0.0,0.0,0.0,0.0,0.0,0.0,0.0,0.0,0.0,0.0,0.0,0.0,0.0,0.0,0.0,0.0,0.0,0.0,0.0,0.0,0.0,0.0642,0.064,0.0646,0.0,0.0,0.0,0.0,0.0,0.0,0.0,0.0,0.0,0.0,-0.4827,-0.5342,-0.4618,0.0,0.0,-0.2746,-0.1684,-0.2025,-0.0989,-0.0329,-0.0924,-0.0826,0.0,0.0,0.0,0.0,0.0,0.0,0.0,0.0,0.0,0.0,0.0,0.0,0.0,0.0,0.0,0.0,0.0,0.0,0.0,0.0,0.0,0.0,0.0,0.0,0.0,0.0,0.0,0.0,0.0,0.0,0.0,0.0,0.0,0.0,0.0,0.0,0.0,0.0,0.0,0.0,0.0,0.0,0.0,0.0,0.0,0.0,0.0,0.0,0.0,0.0,0.0,0.0,0.0,0.0499,-0.2284,-0.3654,-0.3191,-0.4258,-0.4809,-0.4693,-0.4418,-0.3476,0.0,0.0,0.0,0.0,0.0,0.0,0.0,0.0,0.0,0.0,0.0,0.0,0.0,0.0,0.0,0.0,0.0,0.0,0.0,0.0,0.0,0.0,0.0,0.0,0.0,0.0,0.0,0.0,0.0,0.0,0.0,0.0,0.0,0.0,0.0,0.0,0.0,0.0,0.0,0.0,0.0,-0.3716,-0.4901,-0.426,-0.4185,0.0,0.0,-0.2866,-0.4087,-0.2649,-0.1379,-0.1681,0.0,0.0,0.0,0.0,0.0,0.0,0.0,0.0,0.0,0.0,0.0,0.0,0.0,0.0,0.0,0.0,0.0,0.0,0.0,0.0,0.0,0.0,0.0,0.0,0.0,0.0,0.0,0.0,0.0,0.0,0.0,0.0,0.0,0.0,0.0,0.0,0.0,0.0,0.0,0.0,0.0,0.0,0.0,0.0,0.0,0.0,0.0,0.0,0.0,0.0,0.0,0.0,0.0,0.0,-0.1455,-0.3543,-0.4534,-0.4304,-0.4598,-0.4544,-0.4426,-0.4156,0.0,0.0,0.0,0.0,0.0,0.0,0.0,0.0,0.0,0.0,0.0,0.0,0.0,0.0,0.0,0.0,0.0,0.0,0.0,0.0,0.0,0.0,0.0,0.0,0.0,0.0,0.0,0.1195,0.0,0.0,0.0,0.0,0.0,0.0,0.0,0.0,0.0,0.0,0.0,0.0,0.0,0.0,-0.5444,-0.539,-0.4625,-0.4376,0.0,0.0,-0.2732,-0.3141,-0.2113,-0.1433,0.0,0.0,0.0,0.0,0.0,0.0,0.0,0.0,0.0,0.0,0.0,0.0,0.0,0.0,0.0,0.0,0.0,0.0,0.0,0.0,0.0,0.0,0.0,0.0,0.0,0.0,0.0,0.0,0.0,0.0,0.0,0.0,0.0,0.0,0.0,0.0,0.0,0.0,0.0,0.0,0.0,0.0,0.0,0.0,0.0,0.0,0.0,0.0,0.0,0.0,0.0,0.0,0.0,0.0,-0.0932,-0.2643,-0.3868,-0.4864,-0.5584,-0.5727,-0.5489,-0.5291,-0.4945,-0.4234,0.0,0.0,0.0,0.0,0.0,0.0,0.0,0.0,0.0,0.0,0.0,0.0,0.0,0.0,0.0,0.0,0.0,0.0,0.0,0.0,0.0,0.0,0.0,0.0,0.0,0.0,0.0,0.0,0.0,0.0,0.0,0.0,0.0,0.0,0.0,0.0,0.0,0.0,0.0,0.0,0.0,0.0,-0.5906,-0.4826,0.0,0.0,0.0,-0.3427,-0.3876,0.0,0.0,0.0,0.0,0.0,0.0,0.0,0.0,0.0,0.0,0.0,0.0,0.0,0.0,0.0,0.0,0.0,0.0,0.0,0.0,0.0,0.0,0.0,0.0,0.0,0.0,0.0,0.0,0.0,0.0,0.0,0.0,0.0,0.0,0.0,0.0,0.0,0.0,0.0,0.0,0.0,0.0,0.0,0.0,0.0,0.0,0.0,0.0,0.0,0.0,0.0,0.0,0.0,0.0,0.0,0.0,0.0,-0.334,-0.3855,-0.4967,-0.6977,-0.6843,-0.6692,-0.6652,-0.6311,-0.5512,0.0,0.0,0.0,0.0,0.0,0.0,0.0,0.0,0.0,0.0,0.0,0.0,0.0,0.0,0.0,0.0,0.0,0.0,0.0,0.0,0.0,0.0,0.0,0.0,0.0,0.0,0.0,0.0,0.0,0.0,0.0,0.0,0.0,0.0,0.0,0.0,0.0,0.0,0.0,0.0,0.0,-0.5194,-0.6511,-0.5257,-0.444,0.0,0.0,-0.4604,-0.5391,-0.4321,0.0,0.0,0.0,0.0,0.0,0.0,0.0,0.0,0.0,0.0,0.0,0.0,0.0,0.0,0.0,0.0,0.0,0.0,0.0,0.0,0.0,0.0,0.0,0.0,0.0,0.0,0.0,0.0,0.0,0.0,0.0,0.0,0.0,0.0,0.0,0.0,0.0,0.0,0.0,0.0,0.0,0.0,0.0,0.0,0.0,0.0,0.0,0.0,0.0,0.0,0.0,0.0,0.0,0.0,0.0,0.0,-0.4031,-0.4434,-0.5511,-0.731,-0.6356,-0.6129,-0.6728,-0.6632,-0.5577,0.0,0.0,0.0,0.0,0.0,0.0,0.0,0.0,0.0,0.0,0.0,0.0,0.0,0.0,0.0,0.0,0.0,0.0,0.0,0.0,0.0,0.0,0.0,0.0,0.0,0.0,0.0,0.0,0.0,0.0,0.0,0.0,0.0,0.0,0.0,0.0,0.0,0.0,0.0,0.0,0.0,-0.6557,-0.6992,-0.6165,0.0,0.0,0.0,0.0,-0.504,-0.3688,0.0,0.0,0.0,0.0,0.0,0.0,0.0,0.0,0.0,0.0,0.0,0.0,0.0,0.0,0.0,0.0,0.0,0.0,0.0,0.0,0.0,0.0,0.0,0.0,0.0,0.0,0.0,0.0,0.0,0.0,0.0,0.0,0.0,0.0,0.0,0.0,0.0,0.0,0.0,0.0,0.0,0.0,0.0,0.0,0.0,0.0,0.0,0.0,0.0,0.0,0.0,0.0,0.0,0.0,0.0,0.0,-0.4188,-0.4586,-0.5348,-0.6516,-0.6528,-0.6315,-0.601,-0.627,-0.5631,0.0,0.0,0.0,0.0,0.0,0.0,0.0,0.0,0.0,0.0,0.0,0.0,0.0,0.0,0.0,0.0,0.0,0.0,0.0,0.0,0.0,0.0,0.0,0.0,0.0,0.0,0.0,0.0,0.0,0.0,0.0,0.0,0.0,0.0,0.0,0.0,0.0,0.0,0.0,0.0,-0.7199,-0.7032,-0.7698,0.0,0.0,0.0,0.0,0.0,0.0,-0.4302,-0.3559,0.0,0.0,0.0,0.0,0.0,0.0,0.0,0.0,0.0,0.0,0.0,0.0,0.0,0.0,0.0,0.0,0.0,0.0,0.0,0.0,0.0,0.0,0.0,0.0,0.0,0.0,0.0,0.0,0.0,0.0,0.0,0.0,0.0,0.0,0.0,0.0,0.0,0.0,0.0,0.0,0.0,0.0,0.0,0.0,0.0,0.0,0.0,0.0,0.0,0.0,0.0,0.0,0.0,0.0,0.0,-0.443,-0.4214,-0.4672,-0.5494,-0.6465,-0.6546,-0.5482,-0.6052,-0.5695,-0.4239,0.0,0.0,0.0,0.0,0.0,0.0,0.0,0.0,0.0,0.0,0.0,0.0,0.0,0.0,0.0,0.0,0.0,0.0,0.0,0.0,0.0,0.0,0.0,0.0,0.0,0.0,0.0,0.0,0.0,0.0,0.0,0.0,0.0,0.0,0.0,0.0,0.0,0.0,0.0,-0.7759,-0.7398,0.0,0.0,0.0,0.0,0.0,0.0,0.0,0.0,-0.463,0.0,0.0,0.0,0.0,0.0,0.0,0.0,0.0,0.0,0.0,0.0,0.0,0.0,0.0,0.0,0.0,0.0,0.0,0.0,0.0,0.0,0.0,0.0,0.0,0.0,0.0,0.0,0.0,0.0,0.0,0.0,0.0,0.0,0.0,0.0,0.0,0.0,0.0,0.0,0.0,0.0,0.0,0.0,0.0,0.0,0.0,0.0,0.0,0.0,0.0,0.0,0.0,0.0,0.0,0.0,0.0,-0.2408,-0.2792,-0.556,-0.5059,-0.4977,-0.5742,-0.6548,-0.5931,-0.37,0.0,0.0,0.0,0.0,0.0,0.0,0.0,0.0,0.0,0.0,0.0,0.0,0.0,0.0,0.0,0.0,0.0,0.0,0.0,0.0,0.0,0.0,0.0,0.0,0.0,0.0,0.0,0.0,0.0,0.0,0.0,0.0,0.0,0.0,0.0,0.0,0.0,0.0,-0.782,-0.8042,0.0,0.0,0.0,0.0,0.0,0.0,0.0,0.0,-0.5533,0.0,0.0,0.0,0.0,0.0,0.0,0.0,0.0,0.0,0.0,0.0,0.0,0.0,0.0,0.0,0.0,0.0,0.0,0.0,0.0,0.0,0.0,0.0,0.0,0.0,0.0,0.0,0.0,0.0,0.0,0.0,0.0,0.0,0.0,0.0,0.0,0.0,0.0,0.0,0.0,0.0,0.0,0.0,0.0,0.0,0.0,0.0,0.0,0.0,0.0,0.0,0.0,0.0,0.0,0.0,0.0,0.0,0.0,-0.3595,-0.4738,-0.5783,-0.5872,-0.4945,-0.5866,-0.5497,0.0,0.0,0.0,0.0,0.0,0.0,0.0,0.0,0.0,0.0,0.0,0.0,0.0,0.0,0.0,0.0,0.0,0.0,0.0,0.0,0.0,0.0,0.0,0.0,0.0,0.0,0.0,0.0,0.0,0.0,0.0,0.0,0.0,0.0,0.0,0.0,0.0,0.0,0.0,0.0,0.0,0.0,0.0,0.0,0.0,0.0,0.0,0.0,0.0,0.0,0.0,0.0,0.0,0.0,0.0,0.0,0.0,0.0,0.0,0.0,0.0,0.0,0.0,0.0,0.0,0.0,0.0,0.0,0.0,0.0,0.0,0.0,0.0,0.0,0.0,0.0,0.0,0.0,0.0,0.0,0.0,0.0,0.0,0.0,0.0,0.0,0.0,0.0,0.0,0.0,0.0,0.0,0.0,0.0,0.0,0.0,0.0,0.0,0.0,0.0,0.0,0.0,0.0,0.0,0.0,0.0,0.0,0.0,-0.4218,-0.3833,-0.6534,-0.6652,-0.4171,-0.5113,-0.4964,0.0,0.0,0.0,0.0,0.0,0.0,0.0,0.0,0.0,0.0,0.0,0.0,0.0,0.0,0.0,0.0,0.0,0.0,0.0,0.0,0.0,0.0,0.0,0.0,0.0,0.0,0.0,0.0,0.0,0.0,0.0,0.0,0.0,0.0,0.0,0.0,0.0,0.0,0.0,0.0,0.0,0.0,0.0,0.0,0.0,0.0,0.0,0.0,-0.5754,0.0,0.0,0.0,0.0,0.0,0.0,0.0,0.0,0.0,0.0,0.0,0.0,0.0,0.0,0.0,0.0,0.0,0.0,0.0,0.0,0.0,0.0,0.0,0.0,0.0,0.0,0.0,0.0,0.0,0.0,0.0,0.0,0.0,0.0,0.0,0.0,0.0,0.0,0.0,0.0,0.0,0.0,0.0,0.0,0.0,0.0,0.0,0.0,0.0,0.0,0.0,0.0,0.0,0.0,0.0,0.0,0.0,0.0,0.0,-0.2554,-0.3485,-0.5452,-0.5735,-0.4161,-0.5116,-0.4959,0.0,0.0,0.0,0.0,0.0,0.0,0.0,0.0,0.0,0.0,0.0,0.0,0.0,0.0,0.0,0.0,0.0,0.0,0.0,0.0,0.0,0.0,0.0,0.0,0.0,0.0,0.0,0.0,0.0,0.0,0.0,0.0,0.0,0.0,0.0,0.0,0.0,0.0,0.0,0.0,0.0,0.0,0.0,0.0,0.0,0.0,0.0,0.0,0.0,0.0,0.0,0.0,0.0,0.0,0.0,0.0,0.0,0.0,0.0,0.0,0.0,0.0,0.0,0.0,0.0,0.0,0.0,0.0,0.0,0.0,0.0,0.0,0.0,0.0,0.0,0.0,0.0,0.0,0.0,0.0,0.0,0.0,0.0,0.0,0.0,0.0,0.0,0.0,0.0,0.0,0.0,0.0,0.0,0.0,0.0,0.0,0.0,0.0,0.0,0.0,0.0,0.0,0.0,0.0,0.0,0.0,0.0,0.0,-0.2655,-0.2561,-0.5556,-0.6084,-0.3538,-0.3556,-0.3202,0.0,0.0,0.0,0.0,0.0,0.0,0.0,0.0,0.0,0.0,0.0,0.0,0.0,0.0,0.0,0.0,0.0,0.0,0.0,0.0,0.0,0.0,0.0,0.0,0.0,0.0,0.0,0.0,0.0,0.0,0.0,0.0,0.0,0.0,0.0,0.0,0.0,0.0,0.0,0.0,0.0,0.0,0.0,0.0,0.0,0.0,0.0,0.0,0.0,0.0,0.0,0.0,0.0,0.0,0.0,0.0,0.0,0.0,0.0,0.0,0.0,0.0,0.0,0.0,0.0,0.0,0.0,0.0,0.0,0.0,0.0,0.0,0.0,0.0,0.0,0.0,0.0,0.0,0.0,0.0,0.0,0.0,0.0,0.0,0.0,0.0,0.0,0.0,0.0,0.0,0.0,0.0,0.0,0.0,0.0,0.0,0.0,0.0,0.0,0.0,0.0,0.0,0.0,0.0,0.0,0.0,0.0,0.0,0.0,-0.2226,-0.5514,-0.594,-0.2906,-0.2432,-0.2003,0.0,0.0,0.0,0.0,0.0,0.0,0.0,0.0,0.0,0.0,0.0,0.0,0.0,0.0,0.0,0.0,0.0,0.0,0.0,0.0,0.0,0.0,0.0,0.0,0.0,0.0,0.0,0.0,0.0,0.0,0.0,0.0,0.0,0.0,0.0,0.0,0.0,0.0,0.0,0.0,0.0,0.0,0.0,0.0,0.0,0.0,0.0,0.0,0.0,0.0,0.0,0.0,0.0,0.0,0.0,0.0,0.0,0.0,0.0,0.0,0.0,0.0,0.0,0.0,0.0,0.0,0.0,0.0,0.0,0.0,0.0,0.0,0.0,0.0,0.0,0.0,0.0,0.0,0.0,0.0,0.0,0.0,0.0,0.0,0.0,0.0,0.0,0.0,0.0,0.0,0.0,0.0,0.0,0.0,0.0,0.0,0.0,0.0,0.0,0.0,0.0,0.0,0.0,0.0,0.0,0.0,0.0,0.0,0.0,-0.2699,-0.4834,-0.4627,-0.1866,-0.2199,-0.2233,0.0,0.0,0.0,0.0,0.0,0.0,0.0,0.0,0.0,0.0,0.0,0.0,0.0,0.0,0.0,0.0,0.0,0.0,0.0,0.0,0.0,0.0,0.0,0.0,0.0,0.0,0.0,0.0,0.0,0.0,0.0,0.0,0.0,0.0,0.0,0.0,0.0,0.0,0.0,0.0,0.0,0.0,0.0,0.0,0.0,0.0,0.0,0.0,0.0,0.0,0.0,0.0,0.0,0.0,0.0,0.0,0.0,0.0,0.0,0.0,0.0,0.0,0.0,0.0,0.0,0.0,0.0,0.0,0.0,0.0,0.0,0.0,0.0,0.0,0.0,0.0,0.0,0.0,0.0,0.0,0.0,0.0,0.0,0.0,0.0,0.0,0.0,0.0,0.0,0.0,0.0,0.0,0.0,0.0,0.0,0.0,0.0,0.0,0.0,0.0,0.0,0.0,0.0,0.0,0.0,0.0,0.0,0.0,0.0,-0.1121,-0.2124,-0.2128,-0.0932,-0.0552,-0.0261,-0.0236,0.0,0.0,0.0,0.0,0.0,0.0,0.0,0.0,0.0,0.0,0.0,0.0,0.0,0.0,0.0,0.0,0.0,0.0,0.0,0.0,0.0,0.0,0.0,0.0,0.0,0.0,0.0,0.0,0.0,0.0,0.0,0.0,0.0,0.0,0.0,0.0,0.0,0.0,0.0,0.0,0.0,0.0,0.0,0.0,0.0,0.0,0.0,0.0,0.0,0.0,0.0,0.0,0.0,0.0,0.0,0.0,0.0,0.0,0.0,0.0,0.0,0.0,0.0,0.0,0.0,0.0,0.0,0.0,0.0,0.0,0.0,0.0,0.0,0.0,0.0,0.0,0.0,0.0,0.0,0.0,0.0,0.0,0.0,0.0,0.0,0.0,0.0,0.0,0.0,0.0,0.0,0.0,0.0,0.0,0.0,0.0,0.0,0.0,0.0,0.0,0.0,0.0,0.0,0.0,0.0,0.0,0.0,0.0,0.0,-0.0806,-0.089,-0.0257,0.0342,0.0658,0.0,0.0,0.0,0.0,0.0,0.0,0.0,0.0,0.0,0.0,0.0,0.0,0.0,0.0,0.0,0.0,0.0,0.0,0.0,0.0,0.0,0.0,0.0,0.0,0.0,0.0,0.0,0.0,0.0,0.0,0.0,0.0,0.0,0.0,0.0,0.0,0.0,0.0,0.0,0.0,0.0,0.0,0.0,0.0,0.0,0.0,0.0,0.0,0.0,0.0,0.0,0.0,0.0,0.0,0.0,0.0,0.0,0.0,0.0,0.0,0.0,0.0,0.0,0.0,0.0,0.0,0.0,0.0,0.0,0.0,0.0,0.0,0.0,0.0,0.0,0.0,0.0,0.0,0.0,0.0,0.0,0.0,0.0,0.0,0.0,0.0,0.0,0.0,0.0,0.0,0.0,0.0,0.0,0.0,0.0,0.0,0.0,0.0,0.0,0.0,0.0,0.0,0.0,0.0,0.0,0.0,0.0,0.0,0.07,0.035,-0.1134,-0.1113,0.0082,0.0,0.0157,0.0,0.0,0.0,0.0,0.0,0.0,0.0,0.0,0.0,0.0,0.0,0.0,0.0,0.0,0.0,0.0,0.0,0.0,0.0,0.0,0.0,0.0,0.0,0.0,0.0,0.0,0.0,0.0,0.0,0.0,0.0,0.0,0.0,0.0,0.0,0.0,0.0,0.0,0.0,0.0,0.0,0.0,0.0,0.0,0.0,0.0,0.0,0.0,0.0,0.0,0.0,0.0,0.0,0.0,0.0,0.0,0.0,0.0,0.0,0.0,0.0,0.0,0.0,0.0,0.0,0.0,0.0,0.0,0.0,0.0,0.0,0.0,0.0,0.0,0.0,0.0,0.0,0.0,0.0,0.0,0.0,0.0,0.0,0.0,0.0,0.0,0.0,0.0,0.0,0.0,0.0,0.0,0.0,0.0,0.0,0.0,0.0,0.0,0.0,0.0,0.0,0.0,0.0,0.0,0.0,0.0,0.0,0.0,0.0,0.1048,0.0,0.026,0.0,0.0832,0.0875,0.0,0.0,0.0,0.0,0.0,0.0,0.0,0.0,0.0,0.0,0.0,0.0,0.0,0.0,0.0,0.0,0.0,0.0,0.0,0.0,0.0,0.0,0.0,0.0,0.0,0.0,0.0,0.0,0.0,0.0,0.0,0.0,0.0,0.0,0.0,0.0,0.0,0.0,0.0,0.0,0.0,0.0,0.0,0.0,0.0,0.0,0.0,0.0,0.0,0.0,0.0,0.0,0.0,0.0,0.0,0.0,0.0,0.0,0.0,0.0,0.0,0.0,0.0,0.0,0.0,0.0,0.0,0.0,0.0,0.0,0.0,0.0,0.0,0.0,0.0,0.0,0.0,0.0,0.0,0.0,0.0,0.0,0.0,0.0,0.0,0.0,0.0,0.0,0.0,0.0,0.0,0.0,0.0,0.0,0.0,0.0,0.0,0.0,0.0,0.0,0.0,0.0,0.0,0.0,0.0,0.0,0.0,0.0,0.0,0.1485,0.1205,0.0926,0.0815,0.0966,0.1008,0.0,0.0,0.0,0.0,0.0,0.0,0.0,0.0,0.0,0.0,0.0,0.0,0.0,0.0,0.0,0.0,0.0,0.0,0.0,0.0,0.0,0.0,0.0,0.0,0.0,0.0,0.0,0.0,0.0,0.0,0.0,0.0,0.0,0.0,0.0,0.0,0.0,0.0,0.0,0.0,0.0,0.0,0.0,0.0,0.0,0.0,0.0,0.0,0.0,0.0,0.0,0.0,0.0,0.0,0.0,0.0,0.0,0.0,0.0,0.0,0.0,0.0,0.0,0.0,0.0,0.0,0.0,0.0,0.0,0.0,0.0,0.0,0.0,0.0,0.0,0.0,0.0,0.0,0.0,0.0,0.0,0.0,0.0,0.0,0.0,0.0,0.0,0.0,0.0,0.0,0.0,0.0,0.0,0.0,0.0,0.0,0.0,0.0,0.0,0.0,0.0,0.0,0.0,0.0,0.0,0.0,0.0,0.0,0.0,0.0,0.1507,0.1098,0.0937,0.0669,0.0655,0.0,0.0,0.0,0.0,0.0,0.0,0.0,0.0,0.0,0.0,0.0,0.0,0.0,0.0,0.0,0.0,0.0,0.0,0.0,0.0,0.0,0.0,0.0,0.0,0.0,0.0,0.0,0.0,0.0,0.0,0.0,0.0,0.0,0.0,0.0,0.0,0.0,0.0,0.0,0.0,0.0,0.0,0.0,0.0,0.0,0.0,0.0,0.0,0.0,0.0,0.0,0.0,0.0,0.0,0.0,0.0,0.0,0.0,0.0,0.0,0.0,0.0,0.0,0.0,0.0,0.0,0.0,0.0,0.0,0.0,0.0,0.0,0.0,0.0,0.0,0.0,0.0,0.0,0.0,0.0,0.0,0.0,0.0,0.0,0.0,0.0,0.0,0.0,0.0,0.0,0.0,0.0,0.0,0.0,0.0,0.0,0.0,0.0,0.0,0.0,0.0,0.0,0.0,0.0,0.0,0.0,0.0,0.0,0.0,0.0,0.4704,0.0,0.472,0.3323,0.2204,0.1736,0.0,0.0,0.0,0.0,0.0,0.0,0.0,0.0,0.0,0.0,0.0,0.0,0.0,0.0,0.0,0.0,0.0,0.0,0.0,0.0,0.0,0.0,0.0,0.0,0.0,0.0,0.0,0.0,0.0,0.0,0.0,0.0,0.0,0.0,0.0,0.0,0.0,0.0,0.0,0.0,0.0,0.0,0.0,0.0,0.0,0.0,0.0,0.0,0.0,0.0,0.0,0.0,0.0,0.0,0.0,0.0,0.0,0.0,0.0,0.0,0.0,0.0,0.0,0.0,0.0,0.0,0.0,0.0,0.0,0.0,0.0,0.0,0.0,0.0,0.0,0.0,0.0,0.0,0.0,0.0,0.0,0.0,0.0,0.0,0.0,0.0,0.0,0.0,0.0,0.0,0.0,0.0,0.0,0.0,0.0,0.0,0.0,0.0,0.0,0.0,0.0,0.0,0.0,0.0,0.0,0.0,0.0,0.0,0.0,0.0,0.0,0.6189,0.4718,0.3549,0.0,0.0,0.0,0.0,0.0,0.0,0.0,0.0,0.0,0.0,0.0,0.0,0.0,0.0,0.0,0.0,0.0,0.0,0.0,0.0,0.0,0.0,0.0,0.0,0.0,0.0,0.0,0.0,0.0,0.0,0.0,0.0,0.0,0.0,0.0,0.0,0.0,0.0,0.0,0.0,0.0,0.0,0.0,0.0,0.0,0.0,0.0,0.0,0.0,0.0,0.0,0.0,0.0,0.0,0.0,0.0,0.0,0.0,0.0,0.0,0.0,0.0,0.0,0.0,0.0,0.0,0.0,0.0,0.0,0.0,0.0,0.0,0.0,0.0,0.0,0.0,0.0,0.0,0.0,0.0,0.0,0.0,0.0,0.0,0.0,0.0,0.0,0.0,0.0,0.0,0.0,0.0,0.0,0.0,0.0,0.0,0.0,0.0,0.0,0.0,0.0,0.0,0.0,0.0,0.0,0.0,0.0,0.0,0.0,0.0,0.0,0.6541,0.6368,0.5535,0.0,0.3945,0.0,0.0,0.0,0.0,0.0,0.0,0.0,0.0,0.0,0.0,0.0,0.0,0.0,0.0,0.0,0.0,0.0,0.0,0.0,0.0,0.0,0.0,0.0,0.0,0.0,0.0,0.0,0.0,0.0,0.0,0.0,0.0,0.0,0.0,0.0,0.0,0.0,0.0,0.0,0.0,0.0,0.0,0.0,0.0,0.0,0.0,0.0,0.0,0.0,0.0,0.0,0.0,0.0,0.0,0.0,0.0,0.0,0.0,0.0,0.0,0.0,0.0,0.0,0.0,0.0,0.0,0.0,0.0,0.0,0.0,0.0,0.0,0.0,0.0,0.0,0.0,0.0,0.0,0.0,0.0,0.0,0.0,0.0,0.0,0.0,0.0,0.0,0.0,0.0,0.0,0.0,0.0,0.0,0.0,0.0,0.0,0.0,0.0,0.0,0.0,0.0,0.0,0.0,0.0,0.0,0.0,0.0,0.0,0.0,0.0,0.0,0.0,0.8094,0.6464,0.5641,0.0,0.0,0.0,0.0,0.0,0.0,0.0,0.0,0.0,0.0,0.0,0.0,0.0,0.0,0.0,0.0,0.0,0.0,0.0,0.0,0.0,0.0,0.0,0.0,0.0,0.0,0.0,0.0,0.0,0.0,0.0,0.0,0.0,0.0,0.0,0.0,0.0,0.0,0.0,0.0,0.0,0.0,0.0,0.0,0.0,0.0,0.0,0.0,0.0,0.0,0.0,0.0,0.0,0.0,0.0,0.0,0.0,0.0,0.0,0.0,0.0,0.0,0.0,0.0,0.0,0.0,0.0,0.0,0.0,0.0,0.0,0.0,0.0,0.0,0.0,0.0,0.0,0.0,0.0,0.0,0.0,0.0,0.0,0.0,0.0,0.0,0.0,0.0,0.0,0.0,0.0,0.0,0.0,0.0,0.0,0.0,0.0,0.0,0.0,0.0,0.0,0.0,0.0,0.0,0.0,0.0,0.0,0.0,0.0,0.0,1.1246,1.0867,0.903,0.7597,0.6503,0.0,0.0,0.0,0.0,0.0,0.0,0.0,0.0,0.0,0.0,0.0,0.0,0.0,0.0,0.0,0.0,0.0,0.0,0.0,0.0,0.0,0.0,0.0,0.0,0.0,0.0,0.0,0.0,0.0,0.0,0.0,0.0,0.0,0.0,0.0,0.0,0.0,0.0,0.0,0.0,0.0,0.0,0.0,0.0,0.0,0.0,0.0,0.0,0.0,0.0,0.0,0.0,0.0,0.0,0.0,0.0,0.0,0.0,0.0,0.0,0.0,0.0,0.0,0.0,0.0,0.0,0.0,0.0,0.0,0.0,0.0,0.0,0.0,0.0,0.0,0.0,0.0,0.0,0.0,0.0,0.0,0.0,0.0,0.0,0.0,0.0,0.0,0.0,0.0,0.0,0.0,0.0,0.0,0.0,0.0,0.0,0.0,0.0,0.0,0.0,0.0,0.0,0.0,0.0,0.0,0.0,0.0,0.0,0.0,0.0,0.0,0.0,0.0,0.0,0.6786,0.0,0.0,0.0,0.0,0.0,0.0,0.0,0.0,0.0,0.0,0.0,0.0,0.0,0.0,0.0,0.0,0.0,0.0,0.0,0.0,0.0,0.0,0.0,0.0,0.0,0.0,0.0,0.0,0.0,0.0,0.0,0.0,0.0,0.0,0.0,0.0,0.0,0.0,0.0,0.0,0.0,0.0,0.0,0.0,0.0,0.0,0.0,0.0,0.0,0.0,0.0,0.0,0.0,0.0,0.0,0.0,0.0,0.0,0.0,0.0,0.0,0.0,0.0,0.0,0.0,0.0,0.0,0.0,0.0,0.0,0.0,0.0,0.0,0.0,0.0,0.0,0.0,0.0,0.0,0.0,0.0,0.0,0.0,0.0,0.0,0.0,0.0,0.0,0.0,0.0,0.0,0.0,0.0,0.0,0.0,0.0,0.0,0.0,0.0,0.0,0.0,0.0,0.0,0.0,0.0,0.0,0.0,0.0,0.0,0.0,0.0,0.0,0.0,0.0,0.0,0.0,0.0,0.0,0.0,0.0,0.0,0.0,0.0,0.0,0.0,0.0,0.0,0.0,0.0,0.0,0.0,0.0,0.0,0.0,0.0,0.0,0.0,0.0,0.0,0.0,0.0,0.0,0.0,0.0,0.0,0.0,0.0,0.0,0.0,0.0,0.0,0.0,0.0,0.0,0.0,0.0,0.0,0.0,0.0,0.0,0.0,0.0,0.0,0.0,0.0,0.0,0.0,0.0,0.0,0.0,0.0,0.0,0.0,0.0,0.0,0.0,0.0,0.0,0.0,0.0,0.0,0.0,0.0,0.0,0.0,0.0,0.0,0.0,0.0,0.0,0.0,0.0,0.0,0.0,0.0,0.0,0.0,0.0,0.0,0.0,0.0,0.0,0.0,0.0,0.0,0.0,0.0,0.0,0.0,0.0,0.0,0.0,0.0,0.0,0.0,0.0,0.0,0.0,0.0,0.0,0.0,0.0,0.0,0.0,0.0,0.0,0.0,0.0,0.0,0.0,0.0,0.0,0.0,0.0,0.0,0.0,0.0,0.0,0.0,0.0,0.0,0.0,0.0,0.0,0.0,0.0,0.0,0.0,0.0,0.0,0.0,0.0,0.0,0.0,0.0,0.0,0.0,0.0,0.0,0.0,0.0,0.0,0.0,0.0,0.0,0.0,0.0,0.0,0.0,0.0,0.0,0.0,0.0,0.0,0.0,0.0,0.0,0.0,0.0,0.0,0.0,0.0,0.0,0.0,0.0,0.0,0.0,0.0,0.0,0.0,0.0,0.0,0.0,0.0,0.0,0.0,0.0,0.0,0.0,0.0,0.0,0.0,0.0,0.0,0.0,0.0,0.0,0.0,0.0,0.0,0.0,0.0,0.0,0.0,0.0,0.0,0.0,0.0,0.0,0.0,0.0,0.0,0.0,0.0,0.0,0.0,0.0,0.0,0.0,0.0,0.0,0.0,0.0,0.0,0.0,0.0,0.0,0.0,0.0,0.0,0.0,0.0,0.0,0.0,0.0,0.0,0.0,0.0,0.0,0.0,0.0,0.0,0.0,0.0,0.0,0.0,0.0,0.0,0.0,0.0,0.0,0.0,0.0,0.0,0.0,0.0,0.0,0.0,0.0,0.0,0.0,0.0,0.0,0.0,0.0,0.0,0.0,0.0,0.0,0.0,0.0,0.0,0.0,0.0,0.0,0.0,0.0,0.0,0.0,0.0,0.0,0.0,0.0,0.0,0.0,0.0,0.0,0.0,0.0,0.0,0.0,0.0,0.0,0.0,0.0,0.0,0.0,0.0,0.0,0.0,0.0,0.0,0.0,0.0,0.0,0.0,0.0,0.0,0.0,0.0,0.0,0.0,0.0,0.0,0.0,0.0,0.0,0.0,0.0,0.0,0.0,0.0,0.0,0.0,0.0,0.0,0.0,0.0,0.0,0.0,0.0,0.0,0.0,0.0,0.0,0.0,0.0,0.0,0.0,0.0,0.0,0.0,0.0,0.0,0.0,0.0,0.0,0.0,0.0,0.0,0.0,0.0,0.0,0.0,0.0,0.0,0.0,0.0,0.0,0.0,0.0,0.0,0.0,0.0,0.0,0.0,0.0,0.0,0.0,0.0,0.0,0.0,0.0,0.0,0.0,0.0,0.0,0.0,0.0,0.0,0.0,0.0,0.0,0.0,0.0,0.0,0.0,0.0,0.0,0.0,0.0,0.0,0.0,0.0,0.0,0.0,0.0,0.0,0.0,0.0,0.0,0.0,0.0,0.0,0.0,0.0,0.0,0.0,0.0,0.0,0.0,0.0,0.0,0.0,0.0,0.0,0.0,0.0,0.0,0.0,0.0,0.0,0.0,0.0,0.0,0.0,0.0,0.0,0.0,0.0,0.0,0.0,0.0,0.0,0.0,0.0,0.0,0.0,0.0,0.0,0.0,0.0,0.0,0.0,0.0,0.0,0.0,0.0,0.0,0.0,0.0,0.0,0.0,0.0,0.0,0.0,0.0,0.0,0.0,0.0,0.0,0.0,0.0,0.0,0.0,0.0,0.0,0.0,0.0,0.0,0.0,0.0,0.0,0.0,0.0,0.0,0.0,0.0,0.0,0.0,0.0,0.0,0.0,0.0,0.0,0.0,0.0,0.0,0.0,0.0,0.0,0.0,0.0,0.0,0.0,0.0,0.0,0.0,0.0,0.0,0.0,0.0,0.0,0.0,0.0,0.0,0.0,0.0,0.0,0.0,0.0,0.0,0.0,0.0,0.0,0.0,0.0,0.0,0.0,0.0,0.0,0.0,0.0,0.0,0.0,0.0,0.0,0.0,0.0,0.0,0.0,0.0,0.0,0.0,0.0,0.0,0.0,0.0,0.0,0.0,0.0,0.0,0.0,0.0,0.0,0.0,0.0,0.0,0.0,0.0,0.0,0.0,0.0,0.0,0.0,0.0,0.0,0.0,0.0,0.0,0.0,0.0,0.0,0.0,0.0,0.0,0.0,0.0,0.0,0.0,0.0,0.0,0.0,0.0,0.0,0.0,0.0,0.0,0.0,0.0,0.0,0.0,0.0,0.0,0.0,0.0,0.0,0.0,0.0,0.0,0.0,0.0,0.0,0.0,0.0,0.0,0.0,0.0,0.0,0.0,0.0,0.0,0.0,0.0,0.0,0.0,0.0,0.0,0.0,0.0,0.0,0.0,0.0,0.0,0.0,0.0,0.0,0.0,0.0,0.0,0.0,0.0,0.0,0.0,0.0,0.0,0.0,0.0,0.0,0.0,0.0,0.0,0.0,0.0,0.0,0.0,0.0,0.0,0.0,0.0,0.0,0.0,0.0,0.0,0.0,0.0,0.0,0.0,0.0,0.0,0.0,0.0,0.0,0.0,0.0,0.0,0.0,0.0,0.0,0.0,0.0,0.0,0.0,0.0,0.0,0.0,0.0,0.0,0.0,0.0,0.0,0.0,0.0,0.0,0.0,0.0,0.0,0.0,0.0,0.0,0.0,0.0,0.0,0.0,0.0,0.0,0.0,0.0,0.0,0.0,0.0,0.0,0.0,0.0,0.0,0.0,0.0,0.0,0.0,0.0,0.0,0.0,0.0,0.0,0.0,0.0,0.0,0.0,0.0,0.0,0.0,0.0,0.0,0.0,0.0,0.0,0.0,0.0,0.0,0.0,0.0,0.0,0.0,0.0,0.0,0.0,0.0,0.0,0.0,0.0,0.0,0.0,0.0,0.0,0.0,0.0,0.0,0.0,0.0,0.0,0.0,0.0,0.0,0.0,0.0,0.0,0.0,0.0,0.0,0.0,0.0,0.0,0.0,0.0,0.0,0.0,0.0,0.0,0.0,0.0,0.0,0.0,0.0,0.0,0.0,0.0,0.0,0.0,0.0,0.0,0.0,0.0,0.0,0.0,0.0,0.0,0.0,0.0,0.0,0.0,0.0,0.0,0.0,0.0,0.0,0.0,0.0,0.0,0.0,0.0,0.0,0.0,0.0,0.0,0.0,0.0,0.0,0.0,0.0,0.0,0.0,0.0,0.0,0.0,0.0,0.0,0.0,0.0,0.0,0.0,0.0,0.0,0.0,0.0,0.0,0.0,0.0,0.0,0.0,0.0,0.0,0.0,0.0,0.0,0.0,0.0,0.0,0.0,0.0,0.0,0.0,0.0,0.0,0.0,0.0,0.0,0.0,0.0,0.0,0.0,0.0,0.0,0.0,0.0,0.0,0.0,0.0,0.0,0.0,0.0,0.0,0.0,0.0,0.0,0.0,0.0,0.0,0.0,0.0,0.0,0.0,0.0,0.0,0.0,0.0,0.0,0.0,0.0,0.0,0.0,0.0,0.0,0.0,0.0,0.0,0.0,0.0,0.0]}],[{"header":{"parameterUnit":"kt","parameterCategory":2,"dx":1,"dy":1,"la1":29.587661999999998,"la2":31.0,"lo1":-88.76705300000003,"lo2":-86.6583820000003,"nx":115,"ny":88,"refTime":"2022-10-28T12:00:00:Z","depth":0,"parameterNumber":2,"parameterNumberName":"V-component_of_WINDS"},"data":[9.8704,9.8548,9.8407,9.8172,9.7824,9.7779,9.7779,9.7779,9.7779,9.7779,9.7779,9.7779,9.7779,9.7779,9.7779,9.7779,9.7779,9.7779,9.7779,9.7779,9.7779,9.7779,9.7779,9.7779,9.7779,9.7779,9.7779,9.7779,9.7733,9.7733,9.7509,9.7104,9.7003,9.672,9.6207,9.6035,9.5977,9.5859,9.5799,9.5556,9.5678,9.5895,9.5977,9.5836,9.5504,9.525,9.5185,9.512,9.4687,9.4267,9.4048,9.3935,9.3935,9.3935,9.3935,9.3935,9.3935,9.3935,9.3935,9.3935,9.3935,9.3935,9.3935,9.3935,9.3935,9.3935,9.3935,9.3935,9.3935,9.3935,9.3935,9.3935,9.3935,9.3935,9.3935,9.3935,9.3935,9.3935,9.3935,9.3935,9.3935,9.3899,9.3792,9.315,9.2722,9.2008,9.1331,8.9654,8.7834,8.6871,8.5944,8.5515,8.5016,8.4516,8.4516,8.4516,8.4516,8.4516,8.4516,8.4516,8.4516,8.4516,8.5301,8.6621,8.7549,8.8762,9.0225,9.2294,9.2936,9.3543,9.3792,9.3578,9.3328,9.2508,9.1259,9.9218,9.9132,9.8617,9.8135,9.7824,9.7779,9.7779,9.7779,9.7779,9.7779,9.7779,9.7779,9.7779,9.7779,9.7779,9.7779,9.7779,9.7779,9.7779,9.7779,9.7779,9.7779,9.7779,9.7779,9.7779,9.7779,9.7779,9.7779,9.7779,9.7779,9.7733,9.7733,9.765,9.7604,9.7388,9.7054,9.6667,9.6576,9.6357,9.5977,9.613,9.6393,9.6862,9.6862,9.6504,9.613,9.6187,9.6013,9.5378,9.489,9.4444,9.4267,9.4158,9.4012,9.4048,9.3935,9.3935,9.3935,9.3935,9.3935,9.3935,9.3935,9.3935,9.3935,9.3935,9.3935,9.3935,9.3935,9.3935,9.3935,9.3935,9.3935,9.3935,9.3935,9.3935,9.3935,9.3935,9.3935,9.3935,9.3935,9.3899,9.3864,9.3328,9.2437,9.1794,9.1045,8.9904,8.8227,8.68,8.5908,8.5301,8.4838,8.4516,8.4516,8.4516,8.4516,8.4516,8.4516,8.4516,8.4516,8.4624,8.5016,8.5694,8.6835,8.8369,8.9832,9.1259,9.2151,9.29,9.3578,9.3221,9.2508,9.2258,9.1687,9.0974,9.9544,9.9469,9.8901,9.8441,9.8135,9.7957,9.7824,9.7779,9.7779,9.7779,9.7779,9.7779,9.7779,9.7779,9.7779,9.7779,9.7779,9.7779,9.7779,9.7779,9.7779,9.7779,9.7779,9.7779,9.7779,9.7779,9.7779,9.7779,9.7779,9.7779,9.7779,9.7733,9.7733,9.7733,9.7733,9.7557,9.7339,9.7339,9.7104,9.6966,9.7054,9.7192,9.7557,9.7425,9.7054,9.665,9.6613,9.6559,9.5955,9.5468,9.5341,9.512,9.448,9.4339,9.4195,9.4048,9.3935,9.3935,9.3935,9.3935,9.3935,9.3935,9.3935,9.3935,9.3935,9.3935,9.3935,9.3935,9.3935,9.3935,9.3935,9.3935,9.3935,9.3935,9.3935,9.3935,9.3935,9.3935,9.3935,9.3864,9.3685,9.3543,9.2579,9.1687,9.0439,8.969,8.8619,8.7049,8.5944,8.4945,8.4766,8.4516,8.4516,8.4516,8.4516,8.4516,8.4516,8.4516,8.4516,8.4516,8.4588,8.523,8.6336,8.7977,8.9547,9.0724,9.1295,9.1937,9.2686,9.2579,9.2008,9.1331,9.076,9.0189,8.8833,9.9712,9.9674,9.925,9.8765,9.837,9.8212,9.8005,9.7824,9.7824,9.7824,9.7832,9.7869,9.7869,9.7913,9.7913,9.7913,9.7869,9.7869,9.7824,9.7824,9.7779,9.7779,9.7779,9.7779,9.7779,9.7779,9.7779,9.7779,9.7779,9.7779,9.7779,9.7779,9.7779,9.7779,9.7779,9.7733,9.765,9.765,9.752,9.7557,9.7557,9.7696,9.7779,9.7604,9.7425,9.7054,9.681,9.672,9.6301,9.5739,9.6187,9.5715,9.4755,9.4618,9.4303,9.4012,9.3935,9.3935,9.3935,9.3935,9.3935,9.3935,9.3935,9.3935,9.3899,9.3935,9.3935,9.3935,9.3935,9.3935,9.3935,9.3935,9.3935,9.3935,9.3935,9.3935,9.3935,9.3935,9.3935,9.3721,9.3471,9.2758,9.1794,9.0617,8.9226,8.8084,8.7121,8.6158,8.5052,8.4659,8.4552,8.4516,8.4516,8.4516,8.4516,8.4516,8.4516,8.4516,8.4516,8.4516,8.4516,8.5587,8.6871,8.8762,9.0011,9.0367,9.0867,9.1402,9.1224,9.0974,9.0474,8.9868,8.9297,8.8262,8.6586,9.9712,9.9688,9.9411,9.8986,9.8553,9.8516,9.8295,9.7994,9.7957,9.8,9.8085,9.8122,9.8122,9.808,9.808,9.808,9.808,9.7994,9.795,9.7913,9.7869,9.7824,9.7824,9.7779,9.7824,9.7779,9.7779,9.7779,9.7779,9.7779,9.7779,9.7779,9.7779,9.7779,9.7779,9.7779,9.7779,9.7779,9.7779,9.7779,9.7779,9.7779,9.7779,9.7779,9.765,9.7425,9.7054,9.6613,9.6244,9.5405,9.5054,9.4988,9.4479,9.4303,9.4195,9.4012,9.3974,9.3974,9.4012,9.3974,9.3899,9.3935,9.3899,9.365,9.315,9.2936,9.2793,9.2793,9.2686,9.2686,9.3114,9.3257,9.365,9.3864,9.3899,9.3935,9.3935,9.3935,9.3685,9.3079,9.2615,9.1402,9.0439,8.9297,8.787,8.6942,8.6015,8.5159,8.4552,8.4552,8.4516,8.4516,8.4516,8.4516,8.4516,8.4516,8.4516,8.4516,8.4516,8.4588,8.5087,8.6193,8.7478,8.8512,8.9547,8.9975,9.0011,8.9654,8.9475,8.9226,8.8833,8.8334,8.7371,8.6193,8.5087,9.9777,9.979,9.9634,9.9411,9.9107,9.8741,9.8579,9.8548,9.837,9.8295,9.8369,9.8246,9.8164,9.8164,9.8164,9.8164,9.8164,9.8122,9.808,9.8043,9.8043,9.8037,9.7994,9.7913,9.795,9.7861,9.7824,9.7779,9.7779,9.7779,9.7779,9.7779,9.7779,9.7779,9.7779,9.7779,9.7779,9.7779,9.7779,9.7779,9.7779,9.7779,9.7779,9.7779,9.7779,9.765,9.7388,9.7425,9.7204,9.672,9.6613,9.6244,9.5715,9.5112,9.4885,9.4195,9.3943,9.3763,9.3873,9.3871,9.3902,9.3935,9.3899,9.2936,9.208,9.1545,9.1473,9.1473,9.1402,9.1473,9.2008,9.2579,9.315,9.3685,9.3757,9.3792,9.3792,9.3792,9.3221,9.2437,9.1402,9.0189,8.894,8.7799,8.6728,8.5908,8.5087,8.4516,8.4516,8.4516,8.4516,8.4516,8.4516,8.4516,8.4516,8.4516,8.4516,8.4516,8.4552,8.4945,8.5765,8.6514,8.7049,8.7977,8.8976,8.919,8.9297,8.8655,8.7763,8.7299,8.6942,8.655,8.5765,8.4873,8.4766,9.9841,9.9891,9.9815,9.9735,9.9559,9.9119,9.8992,9.9056,9.8741,9.8654,9.8661,9.8368,9.8324,9.8287,9.8246,9.8287,9.8246,9.8246,9.8206,9.8206,9.8127,9.8164,9.8122,9.8043,9.8037,9.7994,9.795,9.7913,9.7824,9.7824,9.7824,9.7779,9.7779,9.7779,9.7779,9.7779,9.7779,9.7779,9.7779,9.7779,9.7779,9.7779,9.7779,9.7779,9.7779,9.752,9.7388,9.7376,9.7155,9.6966,9.6914,9.6757,9.6077,9.518,9.4496,9.3901,9.3227,9.2798,9.3046,9.2762,9.233,9.2187,9.2258,9.0974,9.0118,8.9511,8.9582,8.9832,8.9939,9.0189,9.0688,9.0938,9.1259,9.1545,9.1652,9.1687,9.1687,9.1652,9.1509,9.0831,9.0474,8.919,8.7763,8.6621,8.5872,8.5016,8.4516,8.4516,8.4516,8.4516,8.4516,8.4516,8.4516,8.4516,8.4516,8.4516,8.4516,8.4516,8.4588,8.4838,8.5551,8.6122,8.6657,8.7264,8.7834,8.8155,8.8262,8.7371,8.6265,8.5729,8.5515,8.4945,8.4516,8.4588,8.4552,9.9864,9.9902,9.9902,9.9891,9.9891,9.9777,9.9682,9.9451,9.8976,9.8816,9.8885,9.8666,9.852,9.852,9.852,9.8481,9.8481,9.8404,9.8364,9.8324,9.8246,9.8206,9.8206,9.8127,9.8164,9.8164,9.8085,9.8,9.7994,9.795,9.7869,9.7824,9.7779,9.7779,9.7779,9.7779,9.7779,9.7779,9.7779,9.7779,9.7779,9.7779,9.7779,9.7779,9.7733,9.752,9.7265,9.6809,9.6478,9.6007,9.5387,9.5024,9.4277,9.2832,9.2083,9.1332,9.0473,9.0223,9.0255,9.0259,8.9939,8.9404,8.9368,8.9333,8.8798,8.8334,8.8155,8.8227,8.8191,8.8691,8.9226,8.9333,8.9475,8.9832,8.9975,8.9939,8.9904,8.9832,8.9761,8.9333,8.8976,8.812,8.6657,8.5765,8.5016,8.4516,8.4516,8.4516,8.4516,8.4516,8.4516,8.4516,8.4516,8.4516,8.4516,8.4516,8.4516,8.4516,8.4588,8.4873,8.523,8.5801,8.6372,8.68,8.6978,8.6728,8.6336,8.5622,8.4909,8.4659,8.4552,8.4053,8.3732,8.3946,8.3196,9.8256,9.8407,9.9458,9.9914,9.9897,9.9897,9.9864,9.9749,9.9413,9.9157,9.9041,9.8885,9.8698,9.8594,9.852,9.852,9.852,9.8481,9.8519,9.8481,9.8443,9.8404,9.8327,9.8327,9.8287,9.8246,9.8206,9.8127,9.808,9.8037,9.795,9.7869,9.7824,9.7779,9.7779,9.7779,9.7779,9.7779,9.7779,9.7779,9.7779,9.7779,9.7779,9.7668,9.7622,9.7502,9.7139,9.6573,9.5785,9.5282,9.4444,9.3414,9.2964,9.2165,9.1566,9.1027,9.0385,9.026,8.9589,8.9321,8.7973,8.6761,8.6193,8.6158,8.6158,8.6514,8.6443,8.6372,8.6015,8.6621,8.7442,8.7692,8.8191,8.9297,8.9404,8.9333,8.9261,8.9154,8.9012,8.8048,8.7478,8.6586,8.5551,8.4909,8.4516,8.4516,8.4516,8.4516,8.4516,8.4516,8.4516,8.4516,8.4516,8.4516,8.4516,8.4516,8.4516,8.4516,8.4802,8.5123,8.5408,8.5373,8.6051,8.6621,8.6086,8.5515,8.4766,8.4409,8.4409,8.4195,8.3589,8.3125,8.3054,8.2198,8.1127,9.6502,9.6691,9.8342,9.873,9.8322,9.8778,9.9034,9.909,9.9449,9.9521,9.9272,9.9024,9.8828,9.8701,9.8594,9.852,9.852,9.852,9.852,9.852,9.852,9.852,9.852,9.8443,9.8404,9.8404,9.8287,9.8206,9.8164,9.8037,9.7994,9.7906,9.7824,9.7779,9.7779,9.7779,9.7779,9.7779,9.7779,9.7742,9.7779,9.7742,9.7482,9.6851,9.6851,9.6442,9.5766,9.4942,9.4497,9.4229,9.3385,9.2575,9.2178,9.0803,9.0418,9.0037,8.9156,8.9352,8.8904,8.8427,8.7145,8.5945,8.5199,8.5205,8.4655,8.4516,8.4516,8.4695,8.4945,8.5301,8.5836,8.6122,8.6479,8.762,8.7941,8.7906,8.7977,8.7906,8.7834,8.6835,8.6122,8.5337,8.5016,8.4624,8.4516,8.4516,8.4516,8.4516,8.4516,8.4516,8.4516,8.4516,8.4516,8.4516,8.4516,8.4516,8.4516,8.4516,8.4802,8.5087,8.5052,8.498,8.5408,8.5658,8.5087,8.4516,8.4516,8.4481,8.4195,8.3268,8.2162,8.1484,8.1448,8.0735,7.9558,9.4818,9.5046,9.6632,9.6412,9.5236,9.6602,9.7353,9.7505,9.89,9.9523,9.9466,9.917,9.8967,9.886,9.8701,9.8594,9.8557,9.852,9.852,9.852,9.852,9.852,9.852,9.852,9.8481,9.8519,9.8443,9.8287,9.8206,9.808,9.795,9.7861,9.7869,9.7824,9.7779,9.7779,9.7779,9.7779,9.7779,9.7631,9.7482,9.7371,9.6479,9.5737,9.5365,9.4808,9.4065,9.3286,9.2877,9.2648,9.1899,9.1342,9.1161,8.973,8.8938,8.861,8.7423,8.6802,8.6493,8.642,8.6306,8.5695,8.5355,8.523,8.4782,8.4516,8.4516,8.4516,8.4516,8.4624,8.4588,8.4659,8.4802,8.523,8.5373,8.5444,8.5587,8.5622,8.5836,8.5408,8.4873,8.4552,8.4552,8.4516,8.4516,8.4516,8.4516,8.4516,8.4516,8.4516,8.4516,8.4516,8.4516,8.4516,8.4516,8.4516,8.4516,8.4516,8.4588,8.4695,8.4695,8.4695,8.4659,8.4624,8.4409,8.4195,8.4302,8.4338,8.2982,8.1627,8.0592,8.0093,7.9879,7.9415,7.8416,9.3225,9.3414,9.4932,9.4704,9.3528,9.4932,9.5615,9.5881,9.7436,9.8597,9.9515,9.9431,9.9204,9.9004,9.8865,9.8733,9.8594,9.852,9.852,9.852,9.852,9.852,9.852,9.852,9.852,9.852,9.8481,9.8404,9.8287,9.8164,9.8037,9.7994,9.7957,9.7957,9.7913,9.7824,9.7779,9.7779,9.7668,9.7371,9.6182,9.6034,9.5328,9.3954,9.3694,9.3174,9.258,9.1652,9.1206,9.075,9.0187,8.947,8.9012,8.8626,8.8027,8.7615,8.7087,8.6715,8.6539,8.6539,8.659,8.6202,8.588,8.5502,8.5131,8.4811,8.4864,8.4726,8.4659,8.4552,8.4552,8.4731,8.4802,8.4838,8.4802,8.4516,8.4516,8.4516,8.4516,8.4516,8.4516,8.4552,8.4516,8.4516,8.4516,8.4516,8.4516,8.4516,8.4516,8.4516,8.4516,8.4516,8.4516,8.4516,8.4516,8.4516,8.4516,8.4516,8.4516,8.4516,8.4516,8.4552,8.4552,8.4088,8.3839,8.3839,8.3375,8.2626,8.1413,7.9986,7.9629,7.9165,7.8808,7.7809,7.6917,9.1555,9.1631,9.258,9.2428,9.1669,9.3263,9.3946,9.4249,9.5691,9.6976,9.768,9.8333,9.8751,9.9044,9.9014,9.8828,9.8698,9.8631,9.8557,9.852,9.852,9.852,9.852,9.852,9.852,9.852,9.8519,9.8404,9.8364,9.8206,9.8122,9.808,9.8085,9.8122,9.808,9.7957,9.7467,9.7163,9.6717,9.6041,9.4808,9.4363,9.3657,9.2134,9.1949,9.1726,9.102,8.998,8.9646,8.9238,8.8644,8.838,8.819,8.8231,8.7914,8.7591,8.7546,8.7345,8.7169,8.7252,8.7299,8.6879,8.6471,8.6072,8.5786,8.5967,8.5866,8.5957,8.6254,8.6728,8.6229,8.5836,8.5444,8.5266,8.5052,8.4659,8.4516,8.4516,8.4516,8.4516,8.4516,8.4516,8.4516,8.4516,8.4516,8.4516,8.4516,8.4516,8.4516,8.4516,8.4516,8.4516,8.4516,8.4516,8.4516,8.4516,8.4516,8.4516,8.4516,8.4516,8.4516,8.4409,8.3553,8.3339,8.3018,8.2305,8.1591,8.0913,7.9665,7.7988,7.756,7.7881,7.7132,7.6061,7.5812,9.0,9.0,9.0075,9.0113,9.0227,9.1745,9.239,9.2504,9.4022,9.4773,9.5098,9.624,9.7765,9.8768,9.8704,9.8722,9.8946,9.8701,9.863,9.8594,9.8557,9.852,9.852,9.852,9.852,9.8557,9.8519,9.8404,9.8324,9.8246,9.8246,9.8206,9.8246,9.8206,9.809,9.7717,9.693,9.6139,9.539,9.4492,9.3297,9.266,9.1954,9.0691,9.0129,8.9609,8.8235,8.8309,8.8347,8.8347,8.8124,8.8012,8.8012,8.8012,8.8012,8.7893,8.7851,8.7851,8.7772,8.7851,8.8008,8.7925,8.7731,8.7504,8.7623,8.7935,8.7948,8.7976,8.8271,8.8685,8.8439,8.8084,8.7192,8.6728,8.6051,8.5622,8.5266,8.5087,8.4731,8.4588,8.4516,8.4516,8.4516,8.4516,8.4516,8.4516,8.4516,8.4873,8.4838,8.523,8.5052,8.4516,8.4516,8.4445,8.4445,8.4231,8.4017,8.3946,8.3767,8.3874,8.3803,8.3089,8.2091,8.1876,8.1662,8.0628,7.9736,7.8808,7.7631,7.5954,7.5419,7.6133,7.5812,7.5455,7.5348,9.0,9.0,9.0,9.0,9.0038,9.0417,9.0683,9.0834,9.239,9.3111,9.3521,9.4719,9.6213,9.7319,9.7577,9.8025,9.8957,9.8908,9.886,9.8767,9.8666,9.8557,9.852,9.852,9.852,9.852,9.8481,9.8443,9.8404,9.8404,9.8443,9.8443,9.8254,9.8254,9.7991,9.7056,9.6195,9.5254,9.4397,9.2941,9.1598,9.1263,9.0295,8.9363,8.8728,8.8576,8.8127,8.8049,8.809,8.809,8.809,8.809,8.8049,8.8049,8.8012,8.8012,8.8053,8.8053,8.809,8.8198,8.8049,8.8342,8.8661,8.969,9.0177,9.0273,9.0219,8.9771,9.0176,8.9851,8.9329,8.9012,8.8655,8.8155,8.7264,8.6728,8.6265,8.5658,8.5266,8.5301,8.5266,8.5016,8.5159,8.4873,8.4731,8.4659,8.4802,8.5194,8.5694,8.6336,8.5729,8.4552,8.4445,8.4195,8.4195,8.4053,8.3518,8.3232,8.284,8.2519,8.1698,8.0985,8.0556,8.0449,8.0378,7.9379,7.8202,7.6917,7.5669,7.5419,7.5241,7.5241,7.5241,7.5241,7.5241,9.0,9.0,9.0,9.0,9.0,9.0,9.0,9.0189,9.1024,9.1441,9.1707,9.3149,9.4226,9.5038,9.5833,9.6817,9.7956,9.8001,9.8271,9.8735,9.8833,9.8628,9.852,9.852,9.852,9.852,9.852,9.8481,9.8519,9.8519,9.852,9.8407,9.7884,9.7398,9.7098,9.5603,9.493,9.4294,9.3099,9.1457,9.0114,8.9592,8.9182,8.8361,8.8323,8.8247,8.8172,8.817,8.817,8.8172,8.813,8.813,8.813,8.809,8.8012,8.8053,8.8093,8.817,8.8316,8.8874,8.913,8.9502,9.0532,9.1708,9.225,9.2472,9.2377,9.2033,9.2131,9.2123,9.1894,9.0831,9.0475,8.9797,8.8798,8.8262,8.7656,8.6728,8.6158,8.6158,8.6229,8.6728,8.7049,8.6942,8.6907,8.655,8.6336,8.6193,8.6372,8.6514,8.548,8.4516,8.416,8.3625,8.3446,8.3161,8.234,8.1591,8.1234,8.0842,7.9879,7.9236,7.8987,7.8844,7.8487,7.7738,7.681,7.5954,7.5526,7.5348,7.5241,7.5241,7.5241,7.5241,7.5241,9.0,9.0,9.0,9.0,9.0,9.0,9.0,9.0,9.0075,9.0,9.0303,9.1555,9.22,9.2708,9.3764,9.5279,9.6281,9.6633,9.7044,9.7716,9.8164,9.8166,9.822,9.8333,9.852,9.852,9.852,9.8407,9.7473,9.7435,9.766,9.7361,9.6239,9.5715,9.5529,9.4071,9.3285,9.295,9.1532,8.9966,8.8735,8.8511,8.8474,8.8288,8.825,8.825,8.825,8.825,8.825,8.8213,8.825,8.8248,8.8286,8.8093,8.8053,8.813,8.8358,8.8548,8.8956,8.9992,9.0806,9.1062,9.2283,9.3026,9.3628,9.4124,9.4747,9.4821,9.4814,9.4678,9.409,9.3113,9.2403,9.165,9.0718,8.9864,8.9009,8.7899,8.7834,8.7799,8.7442,8.8013,8.8438,8.8689,8.8832,8.8227,8.7656,8.7049,8.655,8.5622,8.4624,8.4088,8.3696,8.2376,8.1876,8.1341,8.0556,7.9772,7.9593,7.9379,7.8452,7.7667,7.7417,7.7096,7.6311,7.5669,7.5705,7.5669,7.5383,7.5241,7.5241,7.5241,7.5241,7.5241,7.5241,9.0,9.0,9.0,9.0,9.0,9.0,9.0,9.0,9.0,9.0,9.0038,9.0379,9.0607,9.0941,9.2215,9.38,9.5203,9.5152,9.5234,9.5723,9.6463,9.6774,9.7022,9.766,9.822,9.7884,9.8034,9.7136,9.5416,9.4968,9.4669,9.4706,9.4444,9.4033,9.3696,9.2425,9.1864,9.1117,8.9997,8.9063,8.8689,8.8577,8.8543,8.8435,8.8361,8.8362,8.8325,8.8288,8.8288,8.8288,8.8288,8.825,8.825,8.825,8.825,8.8399,8.9439,9.0037,9.0593,9.1632,9.2479,9.2591,9.4035,9.4697,9.5209,9.5935,9.6747,9.6509,9.632,9.613,9.5678,9.5203,9.4751,9.4189,9.2826,9.1341,9.0344,8.9822,8.9758,8.9115,8.8762,8.8725,8.8858,8.9002,8.8025,8.7416,8.677,8.6304,8.5873,8.4876,8.3643,8.3256,8.2548,8.1092,8.02,7.97,7.8701,7.8095,7.7952,7.7845,7.7025,7.6311,7.6097,7.599,7.5241,7.5241,7.5241,7.5241,7.5241,7.5241,7.5241,7.5241,7.5241,7.5241,7.5241,8.9953,9.0,9.0,9.0,9.0,9.0,9.0,9.0,9.0,9.0,9.0,9.0,9.0,9.0227,9.1024,9.22,9.3369,9.3657,9.3977,9.4497,9.5021,9.5222,9.5208,9.5638,9.6089,9.6127,9.6089,9.4968,9.3659,9.3435,9.3659,9.3323,9.2687,9.2388,9.2014,9.0817,9.007,8.9808,8.9172,8.8649,8.8612,8.8612,8.8649,8.8543,8.847,8.8435,8.8435,8.8399,8.8399,8.8435,8.8399,8.8325,8.8361,8.8473,8.8734,8.9593,9.0339,9.1046,9.197,9.3269,9.404,9.4343,9.5669,9.6479,9.6814,9.7036,9.7456,9.7253,9.7104,9.6667,9.6247,9.594,9.5895,9.5593,9.4864,9.3599,9.2585,9.2201,9.1402,9.0413,8.9563,8.8958,8.9138,8.8101,8.7255,8.656,8.5911,8.5539,8.5141,8.3733,8.2122,8.1748,8.1247,7.9898,7.8844,7.7881,7.6703,7.6489,7.6382,7.6204,7.574,7.574,7.5455,7.5241,7.5241,7.5241,7.5241,7.5241,7.5241,7.5241,7.5241,7.5241,7.5241,7.5241,7.5241,8.9445,8.9563,8.9829,9.0012,9.0,9.0,9.0,9.0,9.0,9.0,9.0,9.0,9.0,9.0038,9.0038,9.0758,9.1821,9.2109,9.2547,9.3252,9.3835,9.3728,9.3623,9.3975,9.3431,9.2984,9.2687,9.265,9.2425,9.2724,9.2126,9.2238,9.1341,9.0743,9.0331,8.9471,8.8873,8.8873,8.8724,8.8612,8.8612,8.8612,8.8612,8.8612,8.8543,8.8543,8.8577,8.8543,8.8505,8.8612,8.8505,8.8507,8.847,8.8577,8.9364,9.0412,9.0899,9.157,9.2798,9.4204,9.4869,9.5421,9.5862,9.6642,9.671,9.6776,9.6368,9.638,9.6107,9.6007,9.6103,9.5326,9.5438,9.5381,9.4848,9.4493,9.4216,9.3117,9.1554,8.9935,8.9498,8.904,8.7884,8.6751,8.5554,8.4481,8.401,8.3756,8.3403,8.2194,8.0756,8.0254,7.9833,7.8647,7.7524,7.6311,7.5597,7.5633,7.5597,7.5455,7.5383,7.5276,7.5241,7.5241,7.5241,7.5241,7.5241,7.5241,7.5241,7.5241,7.5241,7.5241,7.5241,7.5241,7.5241,8.7599,8.7776,8.9219,8.9895,9.0006,9.0,9.0006,9.0,9.0,9.0006,9.0,9.0,9.0,9.0,9.0,9.0075,9.0417,9.0524,9.0689,9.115,9.1988,9.2112,9.2145,9.2512,9.2202,8.9581,8.9733,8.9696,8.9696,8.9434,8.9995,8.9509,8.9098,8.9285,8.9135,8.8686,8.8612,8.8612,8.8612,8.8612,8.8612,8.8612,8.8612,8.8612,8.8612,8.8612,8.8612,8.8649,8.8649,8.8612,8.8612,8.8612,8.8612,8.8724,8.9397,9.1007,9.1047,9.1794,9.31,9.362,9.3689,9.3621,9.399,9.3943,9.3785,9.3785,9.378,9.3657,9.3532,9.3406,9.3488,9.3231,9.2851,9.2287,9.2366,9.2766,9.2531,9.0149,8.8746,8.7688,8.6986,8.6319,8.5593,8.5426,8.3792,8.2484,8.2176,8.1852,8.1377,8.0549,7.9474,7.8735,7.8233,7.7264,7.6454,7.5419,7.5383,7.5383,7.5348,7.5276,7.5276,7.5241,7.5241,7.5241,7.5205,7.5241,7.5241,7.5205,7.5205,7.5241,7.5027,7.442,7.4599,7.5169,7.4991,8.5798,8.6001,8.7728,8.8498,8.8682,8.9578,8.9986,8.9986,8.998,8.9975,9.0012,9.0006,9.0,9.0,9.0,9.0,9.0,9.0,8.9939,9.0055,9.0354,9.0602,9.0561,9.0753,9.0654,8.9053,8.8612,8.8612,8.8612,8.8686,8.8612,8.8612,8.8649,8.8612,8.8612,8.8612,8.8612,8.8612,8.8612,8.8612,8.8612,8.8612,8.8612,8.8612,8.8612,8.8612,8.8612,8.8612,8.8612,8.8387,8.7789,8.7602,8.835,8.7864,8.8652,9.0485,9.101,9.1757,9.2914,9.3284,9.2835,9.2054,9.194,9.1491,9.0782,9.0519,9.0516,9.0472,9.0472,9.0394,9.0352,9.0352,8.9006,8.8031,8.8642,9.0788,9.1537,8.8235,8.5003,8.4775,8.4007,8.3503,8.3401,8.3794,8.2672,8.1351,8.0974,8.0231,7.9705,7.8825,7.7825,7.7372,7.6777,7.6168,7.5455,7.5241,7.5241,7.5241,7.5241,7.5241,7.5241,7.5241,7.5169,7.5205,7.5169,7.5169,7.4599,7.5134,7.5134,7.4456,7.3778,7.3386,7.3207,7.3207,7.3243,8.3971,8.411,8.5933,8.6878,8.7506,8.8801,8.9629,8.9965,8.9995,8.9991,8.9986,8.9975,9.0006,9.0006,9.0006,9.0,9.0,9.0,9.0,8.9993,8.9769,8.9542,8.9432,8.941,8.9121,8.8833,8.8679,8.8612,8.8612,8.8612,8.8612,8.8612,8.8612,8.8612,8.8612,8.8612,8.8612,8.8612,8.8612,8.8612,8.8612,8.8612,8.8612,8.8612,8.8612,8.8612,8.8612,8.8612,8.8425,8.7789,8.6705,8.6331,8.7378,8.6854,8.7867,9.0074,9.0785,9.1085,9.2353,9.2279,9.1606,9.0488,9.0264,8.9593,8.8027,8.7915,8.7692,8.7206,8.7205,8.7129,8.7052,8.705,8.5856,8.4591,8.5481,8.7641,8.8356,8.5081,8.2403,8.2107,8.1994,8.2069,8.2032,8.1619,8.1134,8.0397,7.9494,7.8673,7.7853,7.6949,7.6439,7.626,7.5847,7.5705,7.5241,7.5241,7.5241,7.5241,7.5241,7.5241,7.5241,7.5205,7.4741,7.4706,7.4848,7.4135,7.3243,7.36,7.3493,7.2957,7.2315,7.203,7.1709,7.1245,7.1174,8.2024,8.2299,8.3925,8.5664,8.7038,8.7506,8.8422,8.9743,8.9813,8.9889,8.9999,8.9991,8.9986,8.9986,9.0012,9.0,9.0,9.0,9.0,8.9962,8.9909,8.9769,8.9527,8.9338,8.9143,8.8935,8.8707,8.8645,8.8612,8.8612,8.8612,8.8612,8.8612,8.8612,8.8612,8.8612,8.8612,8.8612,8.8612,8.8612,8.8612,8.8612,8.8612,8.8612,8.8612,8.8612,8.8612,8.8387,8.7901,8.648,8.4835,8.5247,8.6293,8.6406,8.7789,9.0035,8.9848,8.9736,9.0857,9.0186,8.9138,8.8951,8.8839,8.8094,8.6755,8.6309,8.5788,8.4637,8.3966,8.4079,8.3931,8.3706,8.2925,8.2179,8.2663,8.2256,8.0548,7.9285,7.884,7.884,7.8951,7.8914,7.8728,7.8464,7.8381,7.9137,7.8411,7.7813,7.7277,7.6554,7.613,7.5824,7.5635,7.5324,7.5324,7.5324,7.5383,7.5463,7.5521,7.5324,7.5324,7.4741,7.4277,7.3707,7.3314,7.2743,7.2101,7.1658,7.1301,7.0944,7.0968,7.0714,7.0282,6.9426,6.914,8.1116,8.0532,8.2198,8.3374,8.4202,8.5371,8.6811,8.8191,8.8535,8.9022,8.9895,9.0003,8.9995,8.9995,8.9986,8.9975,8.9975,9.0006,9.0,9.0,9.0,8.9846,8.9608,8.9356,8.9151,8.899,8.8739,8.8645,8.8686,8.8612,8.8612,8.8686,8.8612,8.8612,8.8649,8.8612,8.8612,8.8612,8.8612,8.8612,8.8612,8.8612,8.8612,8.8612,8.8612,8.8612,8.8462,8.7677,8.6892,8.6181,8.5583,8.5845,8.7266,8.6705,8.7228,8.9359,8.9098,8.8873,8.9397,8.9098,8.82,8.7415,8.7153,8.6297,8.5251,8.4732,8.4586,8.351,8.2543,8.2136,8.1806,8.0955,8.025,8.0028,8.0065,7.9768,7.8654,7.8357,7.8394,7.8394,7.8394,7.8394,7.8358,7.8209,7.8172,7.8096,7.7586,7.7292,7.7121,7.6749,7.644,7.6389,7.6323,7.613,7.6077,7.606,7.606,7.613,7.6077,7.5635,7.5177,7.4277,7.3301,7.2087,7.1801,7.148,7.1377,7.1039,7.018,6.9429,6.9533,6.9158,6.7999,6.7035,6.7142,8.0719,7.9465,8.0625,8.1443,8.211,8.3352,8.5067,8.6621,8.7245,8.8268,8.9216,8.9781,9.0006,9.0006,8.9995,8.9991,8.9986,8.9975,9.0006,9.0006,9.0006,8.9855,8.9697,8.9392,8.9174,8.9058,8.8796,8.8873,8.9285,8.9397,8.9397,8.9285,8.9434,8.9172,8.8649,8.8612,8.8612,8.8612,8.8612,8.8612,8.8612,8.8612,8.8612,8.8612,8.8612,8.8612,8.8462,8.7004,8.5994,8.5583,8.5508,8.6256,8.7452,8.6742,8.6892,8.8425,8.8649,8.8649,8.8649,8.8649,8.8088,8.6892,8.7116,8.6107,8.4536,8.4424,8.413,8.3462,8.2607,8.1864,8.1536,8.035,7.939,7.9022,7.8946,7.8611,7.8392,7.8356,7.8356,7.8356,7.8357,7.8357,7.832,7.8209,7.8172,7.8172,7.7746,7.7292,7.7292,7.703,7.6603,7.6737,7.6833,7.6797,7.6797,7.6701,7.6616,7.6628,7.6004,7.5392,7.4311,7.3393,7.2027,7.07,7.0552,6.9934,6.997,6.996,6.903,6.7902,6.7882,6.762,6.6355,6.5962,6.6228,8.0719,7.9365,7.9427,8.048,8.1842,8.2083,8.3255,8.5116,8.6562,8.7321,8.7928,8.9103,8.9861,8.9897,8.9968,9.0003,8.9999,8.9991,8.9986,8.9986,8.9986,8.998,8.9917,8.9504,8.9281,8.9136,8.8848,8.9394,9.0369,9.0631,9.1042,9.0855,9.0855,9.0331,8.9135,8.8758,8.8761,8.8649,8.8612,8.8612,8.8612,8.8612,8.8612,8.8612,8.8499,8.8425,8.8163,8.6779,8.5321,8.42,8.4312,8.5097,8.6032,8.6219,8.6966,8.8462,8.8612,8.8612,8.8612,8.8612,8.8462,8.8238,8.8197,8.7789,8.6326,8.599,8.5648,8.4461,8.3863,8.3569,8.3167,8.1752,8.0977,8.0723,7.9977,7.9124,7.8639,7.8571,7.8536,7.8427,7.8356,7.8394,7.8357,7.8019,7.8019,7.8058,7.7623,7.7459,7.7459,7.7379,7.6938,7.6891,7.7067,7.7113,7.7247,7.7121,7.6765,7.6362,7.519,7.4257,7.3099,7.2248,7.1077,7.0108,6.9438,6.8618,6.8137,6.7927,6.734,6.7112,6.681,6.5998,6.5819,6.5987,6.6145,8.1696,7.9403,7.929,7.9708,8.0291,8.049,8.1522,8.3111,8.3973,8.4891,8.6106,8.7663,8.8421,8.8611,8.952,8.9973,9.0009,9.0003,9.0003,9.0006,9.0003,8.9999,8.9953,8.9779,8.9571,8.9261,8.9006,8.914,8.9655,9.0593,9.1191,9.1416,9.2163,9.1827,9.0406,9.0182,8.9621,8.8724,8.8649,8.8612,8.8612,8.8612,8.8612,8.8462,8.7602,8.7116,8.6929,8.5471,8.4798,8.5172,8.5247,8.6069,8.749,8.7677,8.7976,8.8537,8.8612,8.8612,8.8612,8.8612,8.8612,8.8679,8.8802,8.8496,8.7963,8.7865,8.7684,8.6771,8.5882,8.5247,8.4765,8.2756,8.2271,8.3877,8.2499,8.1831,8.1536,8.0723,7.972,7.868,7.8388,7.839,7.8355,7.8135,7.8134,7.8246,7.8019,7.7941,7.7904,7.7864,7.7824,7.7783,7.748,7.7365,7.7554,7.7249,7.6864,7.5491,7.4157,7.2993,7.1895,7.0987,7.0383,6.9438,6.8617,6.7855,6.7594,6.7046,6.6849,6.6893,6.6994,6.6541,6.6366,6.6412,6.6259,8.226,7.9403,7.929,7.9301,7.9435,7.9614,8.0277,8.1353,8.2183,8.3069,8.4322,8.5954,8.7017,8.7701,8.8649,8.9483,8.9939,8.9444,8.9518,8.9939,9.0009,9.0006,9.0006,9.0003,8.975,8.9442,8.9572,8.9869,9.0512,9.1977,9.2687,9.2836,9.3809,9.3397,9.1977,9.1864,9.1079,8.9621,8.9434,8.9098,8.8649,8.8612,8.8312,8.7789,8.6742,8.6144,8.6069,8.506,8.506,8.6032,8.6593,8.7415,8.835,8.8612,8.8612,8.8612,8.8612,8.8612,8.8612,8.8612,8.8612,8.8679,8.8802,8.8802,8.8674,8.8765,8.869,8.8454,8.7639,8.6892,8.6443,8.4279,8.3499,8.5172,8.342,8.1893,8.2084,8.1155,7.9895,7.8781,7.849,7.8422,7.8422,7.8388,7.8355,7.8319,7.832,7.8283,7.8283,7.8284,7.8357,7.8246,7.7614,7.7171,7.639,7.5716,7.4791,7.3315,7.2501,7.1654,7.062,6.9729,6.9398,6.8771,6.8023,6.7503,6.7353,6.7197,6.7234,6.7275,6.7412,6.7297,6.7114,6.6871,6.6687,8.2223,7.9516,7.929,7.9369,7.948,7.9591,7.9779,8.028,8.1619,8.2272,8.2613,8.4208,8.5726,8.7017,8.7321,8.8346,8.9105,8.808,8.827,8.9675,8.9787,8.9823,9.0013,9.0009,8.9892,8.9924,9.0796,9.1957,9.3132,9.463,9.5528,9.579,9.5828,9.5192,9.3509,9.3472,9.2724,9.149,9.1117,9.0444,8.8873,8.8836,8.82,8.6817,8.6256,8.6069,8.5994,8.5957,8.5957,8.6256,8.7602,8.8537,8.8574,8.8612,8.8612,8.8612,8.8612,8.8612,8.8612,8.8612,8.8612,8.8645,8.8645,8.8712,8.8645,8.8679,8.8712,8.8608,8.835,8.8312,8.7939,8.6443,8.506,8.3826,8.1695,8.061,8.0984,7.9937,7.8785,7.8878,7.8632,7.8561,7.8528,7.8494,7.846,7.8316,7.8167,7.7983,7.7911,7.7688,7.8097,7.7763,7.6723,7.5869,7.5021,7.4059,7.2578,7.1426,7.0986,7.0767,6.9919,6.9143,6.8812,6.9327,6.8592,6.8186,6.8112,6.8876,6.8656,6.7979,6.7946,6.8016,6.8097,6.806,6.7631,8.1208,7.9441,7.929,7.9338,7.9354,7.9536,7.962,7.9827,8.0406,8.0746,8.1133,8.2537,8.3524,8.4132,8.5233,8.6144,8.6448,8.6068,8.6676,8.8232,8.8308,8.8877,8.9826,8.9978,9.054,9.1498,9.1831,9.2548,9.3811,9.5295,9.5977,9.6164,9.7211,9.6912,9.5491,9.5192,9.4369,9.3061,9.2762,9.25,9.1902,9.0892,9.007,8.9322,8.7303,8.5658,8.4574,8.5546,8.6144,8.6331,8.7714,8.8612,8.8612,8.8612,8.8612,8.8612,8.8574,8.8612,8.8612,8.8612,8.8574,8.8645,8.8734,8.8833,8.8679,8.8802,8.8802,8.8417,8.7714,8.6892,8.6593,8.5434,8.4349,8.3751,8.2854,8.2442,8.2816,8.1396,8.0467,8.0099,7.9289,7.8702,7.8524,7.8419,7.8313,7.8356,7.7241,7.6684,7.6426,7.5757,7.494,7.4866,7.4495,7.4198,7.3569,7.2016,7.0414,7.0154,6.9828,7.0088,6.9754,6.9008,6.8786,6.9598,6.9643,6.9242,6.9548,7.0511,7.0207,6.9228,6.9273,6.9694,6.951,6.9439,6.9108,7.9666,7.9253,7.8651,7.8764,7.9301,7.9518,7.9629,7.9735,7.9901,8.0025,8.0297,8.1133,8.1892,8.2461,8.2993,8.3524,8.4018,8.4018,8.4967,8.641,8.6562,8.7435,8.8953,8.9105,9.0244,9.2175,9.2245,9.304,9.4822,9.6258,9.6948,9.7136,9.8034,9.8034,9.7136,9.6949,9.6089,9.4519,9.3734,9.321,9.25,9.1079,9.0631,9.0967,8.8462,8.6555,8.5583,8.648,8.7004,8.7004,8.8051,8.8612,8.8574,8.8088,8.749,8.6966,8.6892,8.6892,8.6892,8.6892,8.6892,8.6887,8.7041,8.6966,8.6953,8.701,8.7108,8.6733,8.577,8.4947,8.4312,8.2928,8.1919,8.1919,8.1882,8.1695,8.1732,8.1059,8.0311,8.0162,7.9495,7.8424,7.7913,7.7699,7.741,7.6716,7.5715,7.5084,7.4752,7.4049,7.3455,7.3269,7.2824,7.2229,7.185,7.0023,6.9397,6.9471,6.9959,7.0888,7.1301,7.0781,7.0558,7.145,7.1338,7.1012,7.1237,7.2098,7.2062,7.1284,7.1508,7.1766,7.1508,7.1433,7.0948,7.7786,7.8877,7.7448,7.7711,7.9188,7.9377,7.9559,7.9735,7.9933,8.0069,8.007,8.0183,8.0943,8.212,8.0905,8.0943,8.2196,8.2347,8.3259,8.4739,8.4853,8.5764,8.7435,8.7549,8.9257,9.2291,9.2485,9.384,9.6505,9.7857,9.8555,9.8518,9.852,9.8482,9.8146,9.8071,9.751,9.5603,9.4182,9.2874,9.1378,8.9621,8.9471,9.0631,8.9434,8.8462,8.8462,8.8574,8.8574,8.8574,8.8425,8.8425,8.8312,8.6892,8.5396,8.4162,8.3938,8.3901,8.3975,8.405,8.405,8.3938,8.4194,8.3938,8.4237,8.4269,8.4269,8.3901,8.3676,8.2779,8.1433,8.0162,7.919,7.9077,7.8928,7.8965,7.8921,7.9077,7.8741,7.8816,7.8816,7.8292,7.6909,7.646,7.6072,7.4791,7.3908,7.3616,7.3337,7.3006,7.2709,7.2449,7.1631,7.04,6.9334,7.0146,7.1009,7.1207,7.1882,7.3221,7.3337,7.3344,7.3269,7.3232,7.2749,7.2675,7.3158,7.3272,7.3164,7.3868,7.4089,7.3203,7.2468,7.298,7.2159,7.8,7.7325,7.6874,7.6937,7.7349,7.7631,7.8456,7.9621,7.9901,8.0022,8.007,8.007,8.0335,8.0639,8.0297,8.0297,8.0677,8.0715,8.1588,8.2993,8.3107,8.4663,8.7283,8.7511,8.9219,9.2256,9.3623,9.5106,9.6709,9.8043,9.8626,9.8555,9.8519,9.7958,9.6837,9.6725,9.5902,9.4332,9.3809,9.3323,9.2537,9.007,8.8836,8.9247,8.8836,8.8612,8.8612,8.8612,8.8612,8.8574,8.7452,8.6817,8.6742,8.5284,8.4237,8.3826,8.3751,8.3751,8.3751,8.3751,8.3751,8.3751,8.3751,8.3751,8.3751,8.3751,8.3751,8.3527,8.1545,8.0118,7.9451,7.8965,7.8741,7.8704,7.8704,7.8704,7.8704,7.8704,7.8704,7.8704,7.8704,7.8517,7.818,7.7926,7.7198,7.5425,7.4313,7.3312,7.2015,7.0867,7.0085,6.9824,6.9676,6.9594,7.0474,7.1883,7.2716,7.2988,7.3179,7.4113,7.4938,7.3901,7.3418,7.4903,7.3826,7.3641,7.4458,7.3975,7.3532,7.5646,7.5833,7.4573,7.3171,7.2093,7.1237,7.7396,7.6534,7.5821,7.5547,7.5698,7.6516,7.7493,7.8584,7.9476,7.9928,8.0022,8.0025,8.0025,8.0025,8.0069,8.007,8.007,8.007,8.0639,8.1436,8.2158,8.3828,8.6334,8.7093,8.9219,9.2446,9.3547,9.4654,9.5789,9.6599,9.6869,9.667,9.664,9.6121,9.5152,9.5041,9.4555,9.3547,9.2874,9.2201,9.1451,8.9655,8.8612,8.8612,8.8612,8.8612,8.8574,8.7939,8.7602,8.749,8.6069,8.5134,8.5134,8.3639,8.2741,8.2741,8.2106,8.1732,8.1732,8.1695,8.1695,8.1695,8.1732,8.1732,8.1695,8.1695,8.1732,8.1539,7.9982,7.885,7.8771,7.8704,7.8704,7.8704,7.8704,7.8704,7.8704,7.8704,7.8704,7.8704,7.8704,7.8704,7.8666,7.8225,7.7043,7.5345,7.4375,7.3375,7.2412,7.1368,7.0474,6.9952,7.0347,7.1159,7.2121,7.3689,7.4524,7.4723,7.5068,7.5631,7.6608,7.5867,7.5572,7.6649,7.546,7.4978,7.5646,7.4643,7.3641,7.4643,7.5017,7.4425,7.3134,7.2317,7.0934,7.6732,7.632,7.4745,7.3984,7.4009,7.5533,7.633,7.6816,7.8718,7.9553,7.9166,7.9369,7.9376,7.9653,7.9761,7.9918,8.007,8.007,8.0107,8.0335,8.1702,8.3297,8.5043,8.6676,8.9181,9.1915,9.2484,9.3217,9.4191,9.4479,9.4326,9.3961,9.3922,9.3863,9.35,9.35,9.3316,9.3022,9.1712,9.0288,8.8894,8.8679,8.8645,8.8645,8.8645,8.8608,8.8271,8.6962,8.6069,8.5807,8.4387,8.3527,8.3377,8.1807,8.0797,8.0723,7.919,7.8285,7.8255,7.8255,7.8255,7.8255,7.8292,7.8367,7.8554,7.8434,7.8314,7.8335,7.8514,7.8439,7.8531,7.8464,7.8464,7.8659,7.8704,7.8704,7.8704,7.8704,7.8704,7.8704,7.8704,7.8704,7.8591,7.7769,7.6244,7.5101,7.4354,7.3503,7.2995,7.2734,7.2323,7.2174,7.3159,7.4151,7.4254,7.5525,7.6363,7.6526,7.7438,7.7559,7.738,7.7462,7.7763,7.6347,7.6052,7.5161,7.5086,7.4458,7.3415,7.3938,7.3789,7.3269,7.3046,7.2527,7.1375,7.7529,7.6294,7.4647,7.3178,7.2171,7.2647,7.3708,7.512,7.687,7.687,7.5651,7.5733,7.6593,7.7738,7.8015,7.8817,7.9956,8.007,8.007,8.0259,8.1702,8.3335,8.5005,8.6676,8.8536,9.051,9.1915,9.2534,9.2665,9.385,9.4346,9.4057,9.3909,9.3247,9.1914,9.1914,9.1207,8.9933,8.952,8.9215,8.884,8.8802,8.8802,8.8802,8.8696,8.8171,8.6897,8.6498,8.5643,8.4332,8.2736,8.1844,8.1695,7.9077,7.747,7.732,7.5862,7.4965,7.4965,7.4927,7.4965,7.4965,7.4965,7.5488,7.6639,7.5832,7.511,7.5135,7.547,7.604,7.6849,7.7062,7.7509,7.8584,7.8704,7.8547,7.8666,7.8704,7.8704,7.8704,7.8704,7.8734,7.8666,7.8434,7.7881,7.7096,7.5309,7.3329,7.2142,7.188,7.3001,7.4599,7.6572,7.6909,7.6124,7.7021,7.7813,7.8131,7.7391,7.673,7.64,7.5478,7.4919,7.4886,7.4472,7.4142,7.4002,7.3556,7.3225,7.2935,7.2861,7.2712,7.1672,7.0633,6.9221,7.7582,7.7171,7.4852,7.3385,7.2477,7.107,7.147,7.3153,7.4104,7.3896,7.3136,7.4119,7.507,7.5932,7.6258,7.6918,7.783,7.8589,7.9348,8.0221,8.2499,8.4436,8.6144,8.7771,8.9019,8.9927,9.0783,9.1079,9.088,9.1696,9.2036,9.1763,9.1706,9.1235,9.0357,9.0282,8.9764,8.8833,8.7371,8.6583,8.6546,8.5024,8.4244,8.4244,8.4207,8.3757,8.2866,8.2161,8.1375,8.044,7.806,7.7096,7.7769,7.5488,7.4404,7.5152,7.4366,7.388,7.388,7.388,7.388,7.388,7.388,7.3955,7.4105,7.3455,7.3362,7.4004,7.4292,7.4764,7.5512,7.5478,7.5736,7.6507,7.662,7.6565,7.6593,7.7137,7.7754,7.7753,7.8436,7.8939,7.8763,7.8138,7.7904,7.8434,7.6685,7.5152,7.489,7.4254,7.4628,7.6834,7.7574,7.7245,7.6572,7.6572,7.646,7.6513,7.5661,7.5114,7.486,7.4387,7.3791,7.3642,7.2903,7.2499,7.2355,7.1771,7.1255,7.1078,7.1041,7.0855,7.0113,6.9147,6.8442,7.6647,7.7395,7.4441,7.317,7.2946,6.9917,6.9607,7.1108,7.0659,7.0597,7.0981,7.27,7.3678,7.4132,7.4497,7.4791,7.5096,7.6539,7.8095,7.988,8.2841,8.5157,8.6789,8.8359,8.9241,8.9423,8.9303,8.9307,8.9393,8.9468,8.9302,8.9119,8.9028,8.9075,8.9057,8.9057,8.8765,8.8114,8.5413,8.41,8.4287,8.1397,7.9766,7.9504,7.9392,7.9055,7.8793,7.7341,7.6294,7.6032,7.3048,7.2038,7.3348,7.1777,7.1328,7.2712,7.2599,7.2637,7.2796,7.2833,7.2908,7.317,7.3207,7.246,7.0879,7.1237,7.2104,7.3249,7.3535,7.3881,7.4097,7.3935,7.3927,7.4222,7.4184,7.4093,7.4209,7.5446,7.6245,7.6159,7.7659,7.8363,7.7824,7.6937,7.6624,7.7519,7.6397,7.6302,7.6818,7.6901,7.6714,7.7529,7.6892,7.621,7.5843,7.4815,7.4338,7.3862,7.3702,7.3353,7.3353,7.292,7.2666,7.289,7.1629,7.0786,7.0637,6.9391,6.8988,6.8876,6.8882,6.877,6.8702,6.861,6.8417,7.3656,7.2497,7.0628,6.988,6.973,6.7749,6.7861,6.9271,0.0,0.0,0.0,6.8229,6.9972,7.2493,7.2835,7.369,7.5018,7.5362,7.6387,7.8057,8.0032,8.1778,8.3373,8.4909,8.6401,8.7678,8.756,8.8172,8.9355,8.9372,8.9302,8.9055,8.9028,8.9028,8.9065,8.9065,8.7685,8.5102,8.4426,8.4828,8.6154,8.5628,8.4624,8.3235,8.1845,8.053,7.9216,7.7512,7.5948,7.4672,7.2609,7.1684,7.1834,6.9136,6.7637,6.7824,6.6615,6.644,6.765,6.7774,6.8384,6.9768,6.9842,6.9158,6.765,6.9033,7.0093,7.0329,7.0607,7.1238,7.2445,7.2489,7.2959,7.4265,7.4399,7.4324,7.4328,7.4685,7.4798,7.4856,7.5171,7.5323,7.5311,7.4872,7.4717,7.504,7.4772,7.4525,7.4722,7.4734,7.4708,7.5085,7.4847,7.4507,7.4642,7.4125,7.4046,7.3659,7.2643,7.1834,7.1572,7.0685,6.9937,7.0087,6.9639,6.9359,6.9219,6.8975,6.8751,6.8619,6.8566,6.8573,6.8603,6.8724,6.8387,7.2086,0.0,6.9693,6.8496,0.0,6.5917,6.5692,6.6328,6.4683,6.4527,6.5437,6.5728,6.6787,6.8371,6.858,6.9625,7.1259,7.3008,7.5134,7.764,8.0107,8.212,8.3714,8.4449,8.516,8.5874,8.5742,8.6107,8.6731,8.6745,8.6284,8.5268,8.5306,8.4892,8.414,8.4128,8.2899,8.0456,8.122,8.1984,8.2773,8.1206,7.9866,7.9077,7.8214,0.0,0.0,0.0,0.0,0.0,0.0,0.0,0.0,0.0,0.0,6.6574,6.5051,6.4466,6.5215,6.5304,6.5692,6.649,6.659,6.6203,6.5487,6.6373,6.7397,6.8242,6.8494,6.9245,7.0833,7.0952,7.1252,7.1948,7.2088,7.2026,7.2011,7.2732,7.3313,7.326,7.4118,7.4659,7.4463,7.3768,7.3556,7.4248,7.3533,7.3139,7.3989,7.4215,7.4131,7.4147,7.3529,7.2948,7.2972,7.2346,7.1523,7.1434,7.0745,7.0216,7.0179,6.9506,6.902,6.8993,6.8929,6.8901,6.8836,6.878,6.8677,6.8648,6.8626,6.847,6.7733,6.7759,6.733,7.0254,6.9805,6.8246,6.6814,6.543,6.3748,6.3038,6.3038,6.3075,6.3125,6.3294,6.3848,6.438,6.4779,6.4891,6.5673,6.7119,7.0122,7.3198,7.6235,7.9196,8.1436,8.3031,8.3273,8.3475,8.3649,8.38,8.3963,8.4216,8.4166,8.3463,8.2148,8.211,8.132,7.9817,0.0,0.0,0.0,7.8213,7.9316,7.9441,7.6912,7.5348,7.5048,7.4447,0.0,7.2121,7.1445,7.0545,6.9306,6.7618,0.0,0.0,0.0,0.0,0.0,0.0,0.0,0.0,0.0,0.0,0.0,6.275,6.2922,6.3222,6.3721,6.4485,6.5556,6.64,6.7305,6.848,6.8719,6.8956,6.9259,6.9373,6.939,6.9556,7.0898,7.1816,7.1618,7.3027,7.3923,7.3474,7.2597,7.2275,7.3174,7.2527,7.2344,7.3413,7.3387,7.3428,7.3346,7.2214,7.1425,7.1371,7.0259,6.9536,6.9123,6.9061,6.9084,6.9084,6.9046,6.9009,6.9009,6.8929,6.8836,6.8836,6.8771,6.8743,6.8677,6.8668,6.8309,6.7067,6.6567,6.5774,6.6253,6.4757,6.3225,6.2439,6.2103,6.042,5.971,5.9687,5.9687,5.987,6.0172,6.1912,6.35,6.4871,6.4891,6.502,6.5369,6.7271,6.9135,7.0996,7.2894,7.4678,7.6311,7.7693,7.9028,8.0365,8.1542,8.2877,8.4308,8.424,8.4065,8.3877,8.3877,8.2975,8.1208,7.7035,7.4816,7.4628,7.7674,7.9929,8.1283,8.0882,8.0017,7.8589,7.577,7.4154,7.3854,7.1148,6.9569,6.9343,6.7765,6.6938,6.7088,6.3969,6.2202,0.0,6.0866,0.0,0.0,0.0,0.0,0.0,0.0,0.0,0.0,6.1319,6.1735,6.0692,6.3411,6.4768,6.363,6.4769,6.6135,6.7579,6.7767,6.8336,6.9705,7.012,7.0272,7.0194,7.0463,7.0615,7.0599,7.0307,7.0182,7.0687,7.1147,7.1153,7.0697,7.0368,7.0346,7.0351,7.0152,7.0179,7.0081,6.9694,6.9374,6.9334,6.9262,6.916,6.916,6.9074,6.9011,6.9011,6.9035,6.8982,6.8956,6.8956,6.8956,6.8982,6.8873,6.8446,6.7253,6.5947,6.4445,6.6159,6.3834,6.315,6.2889,6.2789,6.2067,6.1793,6.1793,6.178,6.1931,6.2252,6.3187,6.4089,6.4877,6.4891,6.543,6.6424,6.8067,6.9779,7.1451,7.3122,7.4337,7.5058,7.5737,7.6365,7.7017,7.7657,7.8284,7.894,7.88,7.8267,7.7438,7.8247,7.7373,7.4854,7.2673,7.2485,7.4252,7.5756,7.7749,8.0193,8.0343,7.9553,7.7961,7.6433,7.4779,7.2899,7.147,7.0305,6.9402,6.7786,6.6866,6.6791,6.1958,5.9891,0.0,0.0,0.0,0.0,0.0,0.0,0.0,0.0,0.0,0.0,0.0,5.4518,5.681,6.1031,6.2567,6.0024,6.2112,6.3175,6.2074,6.2795,6.401,6.5718,6.6668,6.7161,6.7161,6.7996,6.8566,6.8565,6.8522,6.8821,6.9854,6.8888,6.7476,6.6249,6.7379,6.8355,6.8342,6.9162,6.9723,6.9554,6.949,6.9374,6.9311,6.9217,6.9245,6.9208,6.9147,6.9133,6.9096,6.9134,6.9096,6.9201,6.9221,6.9239,6.9126,6.8598,6.756,6.6136,6.4567,6.2912,6.6635,6.4213,6.2775,6.2339,6.2584,6.2726,6.3237,6.3946,6.3948,6.3852,6.3782,6.4228,6.4145,6.369,6.371,6.444,6.5772,6.7837,6.9702,7.1373,7.3046,7.3843,7.3843,7.4261,7.4408,7.4307,7.4259,7.441,7.467,7.3737,7.2813,7.2042,7.267,7.1626,6.8951,6.9553,7.117,7.3613,7.4064,7.5531,7.8012,7.8087,7.7523,7.6207,7.5756,7.4365,7.1846,7.1395,7.0606,6.9402,6.741,6.6094,6.5605,5.974,0.0,0.0,0.0,0.0,0.0,0.0,0.0,0.0,0.0,4.6431,4.771,0.0,4.9026,0.0,5.8222,5.9758,5.7252,5.9226,0.0,0.0,5.8923,6.0327,6.2529,6.3706,6.4313,6.4351,6.5794,6.6857,6.6819,6.6857,6.7502,6.9097,6.7159,6.4879,6.3362,6.5604,6.7229,6.678,6.7704,6.851,6.824,6.8568,6.8882,6.9224,6.9224,6.9247,6.9247,6.9268,6.9277,6.9315,6.9257,6.9291,6.9384,6.9398,6.9172,6.8406,6.714,6.5687,6.4436,6.2951,6.1525,6.6337,6.5555,5.9503,5.7814,5.9079,5.9381,6.1146,6.3909,6.3948,6.3215,6.2146,6.35,6.2656,6.0122,6.0232,0.0,6.0762,6.3924,6.6244,6.7918,6.9629,7.0388,7.0464,7.1983,7.2704,7.2704,7.2565,7.3299,7.4576,7.1553,7.066,7.1891,7.0515,6.8902,6.7318,7.0004,7.1696,7.1959,7.3463,7.4403,7.4666,7.4666,7.4591,7.444,7.2974,7.2034,7.1658,7.0342,6.9515,6.929,6.6282,6.3819,6.2184,0.0,0.0,0.0,0.0,0.0,0.0,0.0,0.0,0.0,0.0,0.0,0.0,0.0,0.0,0.0,5.4389,0.0,5.524,5.5467,0.0,0.0,0.0,5.9185,6.2905,6.2866,6.2598,6.2598,0.0,0.0,6.5105,6.5105,6.5749,6.7419,6.7455,6.666,6.499,6.6136,6.6856,6.5367,6.5278,6.5308,6.5632,6.6464,6.7639,6.8863,6.9393,6.9274,6.9215,6.9294,6.9528,6.9352,6.9415,6.9288,6.9364,6.9201,6.8567,6.5878,6.4038,6.2826,6.2669,6.1457,6.07,6.236,5.8669,5.6069,5.5382,5.5987,5.6109,5.8002,6.1102,6.2106,6.173,6.0594,6.3194,6.2695,5.9841,6.0926,0.0,0.0,0.0,6.3431,6.5979,6.6628,6.7996,6.9971,7.0692,7.0996,7.0996,7.0916,7.1253,7.1899,7.0404,6.7974,6.4585,0.0,0.0,6.3876,6.6132,6.8275,7.0305,7.1884,7.3237,7.4215,7.429,7.3764,7.2749,7.2072,7.1282,7.0342,6.9741,6.7974,6.4929,6.2673,5.9722,0.0,0.0,0.0,0.0,0.0,0.0,0.0,0.0,0.0,0.0,0.0,3.8686,3.7671,0.0,0.0,0.0,4.4495,4.5213,4.7303,5.0188,0.0,0.0,0.0,0.0,0.0,0.0,0.0,5.512,5.9068,6.1991,6.1991,6.1907,6.1787,6.1483,6.236,6.2363,6.0693,0.0,6.4498,6.4777,6.4815,6.5123,6.5997,6.5832,6.5766,6.6394,6.7262,6.7687,6.6817,6.7442,6.7718,6.6917,6.6629,6.6598,6.6665,6.6712,6.6237,6.5111,6.3554,6.2453,6.2415,6.1162,6.0213,5.6735,0.0,0.0,0.0,0.0,5.2779,5.4653,5.7782,5.9025,5.8705,5.7511,6.0377,0.0,0.0,0.0,0.0,0.0,0.0,6.198,6.4228,6.5715,6.7388,6.9249,6.9249,6.9249,6.9211,6.83,6.7845,6.7845,6.7256,6.4012,5.8344,0.0,0.0,0.0,0.0,6.5041,6.7899,6.9988,7.1664,7.283,7.2889,7.2346,7.1141,7.1141,7.0577,6.9505,6.8506,6.5871,6.1356,5.8723,0.0,0.0,0.0,0.0,0.0,0.0,0.0,0.0,0.0,0.0,0.0,0.0,0.0,0.0,0.0,0.0,0.0,0.0,0.0,4.1571,4.5478,4.7374,0.0,0.0,0.0,0.0,0.0,0.0,0.0,0.0,0.0,5.6672,5.7195,5.7867,0.0,0.0,6.0541,5.7912,6.0327,6.2325,6.1993,6.1906,0.0,6.4031,6.364,6.33,6.3777,6.5241,6.5803,6.4294,6.4594,6.4659,6.3545,6.3703,6.3211,6.1312,6.0622,6.0351,5.9974,5.9364,5.8873,5.8876,5.8422,5.8119,0.0,0.0,0.0,0.0,0.0,0.0,0.0,0.0,5.4498,5.3607,0.0,5.3932,0.0,0.0,0.0,0.0,0.0,5.9127,0.0,0.0,6.7148,6.8975,6.7457,6.7423,6.7462,6.731,6.4276,6.2795,6.2567,6.0999,0.0,0.0,0.0,0.0,0.0,0.0,6.2748,6.459,6.781,6.9524,6.9638,6.9727,6.9722,6.9684,6.9684,6.9647,6.9458,6.6347,6.307,5.9667,5.4866,0.0,0.0,0.0,0.0,0.0,0.0,0.0,0.0,0.0,0.0,0.0,0.0,0.0,0.0,0.0,0.0,0.0,0.0,0.0,0.0,4.1721,0.0,0.0,0.0,0.0,0.0,0.0,0.0,0.0,0.0,0.0,4.8769,5.0857,5.4459,5.9114,0.0,0.0,0.0,0.0,6.0721,5.6183,5.5282,5.5826,5.7483,5.893,6.0385,6.1941,0.0,0.0,6.2517,6.1201,6.0284,6.0044,6.1151,5.9939,5.2027,5.0754,5.0252,4.8752,4.9739,5.0388,5.0477,5.1963,5.3713,0.0,0.0,0.0,0.0,0.0,0.0,0.0,0.0,0.0,4.5392,0.0,4.6777,0.0,0.0,0.0,0.0,0.0,0.0,0.0,0.0,5.7276,5.8838,5.9375,6.0477,6.0402,0.0,5.9302,5.6493,0.0,0.0,0.0,0.0,0.0,0.0,0.0,0.0,6.2203,6.2988,6.7244,6.9541,6.9526,6.9604,6.96,6.96,6.96,6.8518,6.6376,6.2053,5.8186,0.0,0.0,0.0,0.0,0.0,0.0,0.0,0.0,0.0,0.0,0.0,0.0,0.0,0.0,0.0,0.0,0.0,0.0,0.0,0.0,0.0,0.0,0.0,3.9349,0.0,0.0,0.0,0.0,0.0,0.0,0.0,0.0,0.0,4.7508,5.0391,5.349,5.6219,5.7565,5.8102,5.747,0.0,0.0,0.0,0.0,0.0,0.0,0.0,5.6463,5.5933,5.7256,5.8507,5.8949,5.8733,5.7314,5.3996,0.0,0.0,4.6383,4.5913,4.6477,4.5919,4.626,4.6644,4.6649,4.7981,4.9536,0.0,0.0,0.0,0.0,0.0,0.0,0.0,0.0,0.0,3.8936,3.821,0.0,0.0,0.0,0.0,0.0,0.0,0.0,0.0,0.0,0.0,0.0,5.3375,5.5047,0.0,0.0,0.0,0.0,0.0,0.0,0.0,0.0,0.0,0.0,0.0,0.0,6.0906,6.2187,6.7035,6.9639,6.9638,6.9685,6.9721,6.9683,6.9721,6.8146,6.4744,0.0,0.0,0.0,0.0,0.0,0.0,0.0,0.0,0.0,0.0,0.0,0.0,0.0,0.0,0.0,0.0,0.0,0.0,0.0,0.0,0.0,0.0,0.0,0.0,0.0,3.6321,0.0,0.0,0.0,0.0,0.0,0.0,0.0,0.0,0.0,0.0,0.0,4.9743,5.1285,5.342,5.4823,5.4857,5.529,5.5825,0.0,0.0,0.0,0.0,0.0,0.0,0.0,0.0,0.0,0.0,0.0,0.0,0.0,0.0,4.5814,4.0818,4.0764,4.1326,4.0764,0.0,0.0,0.0,0.0,0.0,0.0,0.0,0.0,0.0,0.0,0.0,0.0,0.0,0.0,0.0,3.4536,0.0,0.0,3.4685,0.0,0.0,0.0,0.0,0.0,0.0,0.0,0.0,0.0,0.0,0.0,0.0,0.0,0.0,0.0,0.0,0.0,0.0,0.0,0.0,0.0,0.0,5.8777,6.1886,6.7083,6.9797,6.9782,6.99,6.9962,6.9962,6.9887,6.8243,6.4865,0.0,0.0,0.0,0.0,0.0,0.0,0.0,0.0,0.0,0.0,0.0,0.0,0.0,0.0,0.0,0.0,0.0,0.0,0.0,0.0,0.0,0.0,0.0,0.0,0.0,0.0,3.2839,3.5419,3.7051,0.0,0.0,0.0,0.0,0.0,0.0,0.0,0.0,0.0,0.0,5.0553,5.3551,5.0545,5.1294,5.1767,5.0214,4.8663,4.8748,5.2012,5.2498,5.3055,0.0,0.0,0.0,0.0,0.0,0.0,0.0,0.0,0.0,0.0,0.0,0.0,0.0,0.0,0.0,0.0,0.0,0.0,0.0,0.0,0.0,0.0,0.0,0.0,0.0,0.0,0.0,0.0,0.0,0.0,0.0,0.0,0.0,0.0,0.0,0.0,0.0,0.0,0.0,0.0,0.0,0.0,0.0,0.0,0.0,0.0,0.0,0.0,0.0,0.0,0.0,0.0,0.0,0.0,5.7793,5.8775,6.6134,6.9931,6.9929,6.993,6.9995,6.9919,6.768,6.5409,0.0,0.0,0.0,0.0,0.0,0.0,0.0,0.0,0.0,0.0,0.0,0.0,0.0,0.0,0.0,0.0,0.0,0.0,0.0,0.0,0.0,0.0,0.0,0.0,0.0,0.0,0.0,0.0,3.2992,3.2726,3.4093,0.0,0.0,0.0,0.0,0.0,0.0,0.0,0.0,0.0,0.0,5.0917,4.9959,5.0225,5.031,4.9856,4.9435,4.9541,5.0567,5.1708,5.1855,5.0,0.0,0.0,0.0,0.0,0.0,0.0,0.0,0.0,0.0,0.0,0.0,0.0,0.0,0.0,0.0,0.0,0.0,0.0,0.0,0.0,0.0,0.0,0.0,0.0,0.0,0.0,0.0,0.0,0.0,0.0,0.0,0.0,0.0,0.0,0.0,0.0,0.0,0.0,0.0,0.0,0.0,0.0,0.0,0.0,0.0,0.0,0.0,0.0,0.0,0.0,0.0,0.0,0.0,5.6631,5.7346,6.5627,6.989,6.9875,6.9917,6.9625,6.8942,6.625,6.3164,0.0,0.0,0.0,0.0,0.0,0.0,0.0,0.0,0.0,0.0,0.0,0.0,0.0,0.0,0.0,0.0,0.0,0.0,0.0,0.0,0.0,0.0,0.0,0.0,0.0,0.0,0.0,0.0,3.2682,3.2606,3.291,0.0,0.0,0.0,0.0,0.0,0.0,0.0,0.0,0.0,0.0,4.6906,4.6888,4.6888,0.0,0.0,4.8366,4.8225,4.882,5.0371,5.0341,4.703,4.7336,0.0,0.0,0.0,0.0,0.0,0.0,0.0,0.0,0.0,0.0,0.0,0.0,0.0,0.0,0.0,0.0,0.0,0.0,0.0,0.0,0.0,0.0,0.0,0.0,0.0,0.0,0.0,0.0,0.0,0.0,0.0,0.0,0.0,0.0,0.0,0.0,0.0,0.0,0.0,0.0,0.0,0.0,0.0,0.0,0.0,0.0,0.0,0.0,0.0,0.0,0.0,0.0,0.0,5.7212,6.5413,6.9723,6.9594,6.9613,6.8778,6.7111,6.5227,6.1216,0.0,0.0,0.0,0.0,0.0,0.0,0.0,0.0,0.0,0.0,0.0,0.0,0.0,0.0,0.0,0.0,0.0,0.0,0.0,0.0,0.0,0.0,0.0,0.0,0.0,0.0,0.0,0.0,0.0,0.0,0.0,0.0,0.0,0.0,0.0,0.0,0.0,0.0,0.0,0.0,0.0,4.2473,4.22,4.2308,4.3459,0.0,0.0,4.524,4.6709,4.8524,4.8614,4.53,0.0,0.0,0.0,0.0,0.0,0.0,0.0,0.0,0.0,0.0,0.0,0.0,0.0,0.0,0.0,0.0,0.0,0.0,0.0,0.0,0.0,0.0,0.0,0.0,0.0,0.0,0.0,0.0,0.0,0.0,0.0,0.0,0.0,0.0,0.0,0.0,0.0,0.0,0.0,0.0,0.0,0.0,0.0,0.0,0.0,0.0,0.0,0.0,0.0,0.0,0.0,0.0,0.0,0.0,5.5563,6.49,6.9177,6.7936,6.7879,6.7083,6.5341,6.1364,0.0,0.0,0.0,0.0,0.0,0.0,0.0,0.0,0.0,0.0,0.0,0.0,0.0,0.0,0.0,0.0,0.0,0.0,0.0,0.0,0.0,0.0,0.0,0.0,0.0,0.0,0.0,3.0425,0.0,0.0,0.0,0.0,0.0,0.0,0.0,0.0,0.0,0.0,0.0,0.0,0.0,0.0,4.3549,4.237,4.2231,4.2525,0.0,0.0,4.3118,4.3547,4.608,4.6904,0.0,0.0,0.0,0.0,0.0,0.0,0.0,0.0,0.0,0.0,0.0,0.0,0.0,0.0,0.0,0.0,0.0,0.0,0.0,0.0,0.0,0.0,0.0,0.0,0.0,0.0,0.0,0.0,0.0,0.0,0.0,0.0,0.0,0.0,0.0,0.0,0.0,0.0,0.0,0.0,0.0,0.0,0.0,0.0,0.0,0.0,0.0,0.0,0.0,0.0,0.0,0.0,0.0,0.0,5.341,5.5025,6.3246,6.7442,6.7195,6.7145,6.606,6.3677,5.9515,5.5344,0.0,0.0,0.0,0.0,0.0,0.0,0.0,0.0,0.0,0.0,0.0,0.0,0.0,0.0,0.0,0.0,0.0,0.0,0.0,0.0,0.0,0.0,0.0,0.0,0.0,0.0,0.0,0.0,0.0,0.0,0.0,0.0,0.0,0.0,0.0,0.0,0.0,0.0,0.0,0.0,0.0,0.0,4.0115,4.003,0.0,0.0,0.0,4.124,4.1201,0.0,0.0,0.0,0.0,0.0,0.0,0.0,0.0,0.0,0.0,0.0,0.0,0.0,0.0,0.0,0.0,0.0,0.0,0.0,0.0,0.0,0.0,0.0,0.0,0.0,0.0,0.0,0.0,0.0,0.0,0.0,0.0,0.0,0.0,0.0,0.0,0.0,0.0,0.0,0.0,0.0,0.0,0.0,0.0,0.0,0.0,0.0,0.0,0.0,0.0,0.0,0.0,0.0,0.0,0.0,0.0,0.0,5.4606,6.0851,6.4921,6.6378,6.6506,6.5033,6.1984,5.8813,5.4735,0.0,0.0,0.0,0.0,0.0,0.0,0.0,0.0,0.0,0.0,0.0,0.0,0.0,0.0,0.0,0.0,0.0,0.0,0.0,0.0,0.0,0.0,0.0,0.0,0.0,0.0,0.0,0.0,0.0,0.0,0.0,0.0,0.0,0.0,0.0,0.0,0.0,0.0,0.0,0.0,0.0,3.8796,3.7403,3.7408,3.7514,0.0,0.0,3.9635,3.9613,4.1996,0.0,0.0,0.0,0.0,0.0,0.0,0.0,0.0,0.0,0.0,0.0,0.0,0.0,0.0,0.0,0.0,0.0,0.0,0.0,0.0,0.0,0.0,0.0,0.0,0.0,0.0,0.0,0.0,0.0,0.0,0.0,0.0,0.0,0.0,0.0,0.0,0.0,0.0,0.0,0.0,0.0,0.0,0.0,0.0,0.0,0.0,0.0,0.0,0.0,0.0,0.0,0.0,0.0,0.0,0.0,0.0,5.2694,5.7956,6.1448,6.2942,6.3121,6.2228,6.0218,5.8204,5.4195,0.0,0.0,0.0,0.0,0.0,0.0,0.0,0.0,0.0,0.0,0.0,0.0,0.0,0.0,0.0,0.0,0.0,0.0,0.0,0.0,0.0,0.0,0.0,0.0,0.0,0.0,0.0,0.0,0.0,0.0,0.0,0.0,0.0,0.0,0.0,0.0,0.0,0.0,0.0,0.0,0.0,3.7665,3.8667,3.8923,0.0,0.0,0.0,0.0,3.9621,3.9197,0.0,0.0,0.0,0.0,0.0,0.0,0.0,0.0,0.0,0.0,0.0,0.0,0.0,0.0,0.0,0.0,0.0,0.0,0.0,0.0,0.0,0.0,0.0,0.0,0.0,0.0,0.0,0.0,0.0,0.0,0.0,0.0,0.0,0.0,0.0,0.0,0.0,0.0,0.0,0.0,0.0,0.0,0.0,0.0,0.0,0.0,0.0,0.0,0.0,0.0,0.0,0.0,0.0,0.0,0.0,0.0,5.3215,5.6687,5.9632,6.1998,6.2111,6.137,5.9684,5.7252,5.3578,0.0,0.0,0.0,0.0,0.0,0.0,0.0,0.0,0.0,0.0,0.0,0.0,0.0,0.0,0.0,0.0,0.0,0.0,0.0,0.0,0.0,0.0,0.0,0.0,0.0,0.0,0.0,0.0,0.0,0.0,0.0,0.0,0.0,0.0,0.0,0.0,0.0,0.0,0.0,0.0,3.6194,3.7038,3.7836,0.0,0.0,0.0,0.0,0.0,0.0,3.7759,3.6959,0.0,0.0,0.0,0.0,0.0,0.0,0.0,0.0,0.0,0.0,0.0,0.0,0.0,0.0,0.0,0.0,0.0,0.0,0.0,0.0,0.0,0.0,0.0,0.0,0.0,0.0,0.0,0.0,0.0,0.0,0.0,0.0,0.0,0.0,0.0,0.0,0.0,0.0,0.0,0.0,0.0,0.0,0.0,0.0,0.0,0.0,0.0,0.0,0.0,0.0,0.0,0.0,0.0,0.0,0.0,5.331,5.5079,5.7747,6.1258,6.1507,6.1002,5.9658,5.6397,5.3075,4.9706,0.0,0.0,0.0,0.0,0.0,0.0,0.0,0.0,0.0,0.0,0.0,0.0,0.0,0.0,0.0,0.0,0.0,0.0,0.0,0.0,0.0,0.0,0.0,0.0,0.0,0.0,0.0,0.0,0.0,0.0,0.0,0.0,0.0,0.0,0.0,0.0,0.0,0.0,0.0,3.464,3.596,0.0,0.0,0.0,0.0,0.0,0.0,0.0,0.0,3.5769,0.0,0.0,0.0,0.0,0.0,0.0,0.0,0.0,0.0,0.0,0.0,0.0,0.0,0.0,0.0,0.0,0.0,0.0,0.0,0.0,0.0,0.0,0.0,0.0,0.0,0.0,0.0,0.0,0.0,0.0,0.0,0.0,0.0,0.0,0.0,0.0,0.0,0.0,0.0,0.0,0.0,0.0,0.0,0.0,0.0,0.0,0.0,0.0,0.0,0.0,0.0,0.0,0.0,0.0,0.0,0.0,5.0133,5.3269,5.7744,5.9315,5.9893,5.9634,5.638,5.3087,4.9788,0.0,0.0,0.0,0.0,0.0,0.0,0.0,0.0,0.0,0.0,0.0,0.0,0.0,0.0,0.0,0.0,0.0,0.0,0.0,0.0,0.0,0.0,0.0,0.0,0.0,0.0,0.0,0.0,0.0,0.0,0.0,0.0,0.0,0.0,0.0,0.0,0.0,0.0,2.9702,3.1096,0.0,0.0,0.0,0.0,0.0,0.0,0.0,0.0,3.4449,0.0,0.0,0.0,0.0,0.0,0.0,0.0,0.0,0.0,0.0,0.0,0.0,0.0,0.0,0.0,0.0,0.0,0.0,0.0,0.0,0.0,0.0,0.0,0.0,0.0,0.0,0.0,0.0,0.0,0.0,0.0,0.0,0.0,0.0,0.0,0.0,0.0,0.0,0.0,0.0,0.0,0.0,0.0,0.0,0.0,0.0,0.0,0.0,0.0,0.0,0.0,0.0,0.0,0.0,0.0,0.0,0.0,0.0,5.3068,5.7018,5.8714,5.9621,5.9515,5.466,5.1225,0.0,0.0,0.0,0.0,0.0,0.0,0.0,0.0,0.0,0.0,0.0,0.0,0.0,0.0,0.0,0.0,0.0,0.0,0.0,0.0,0.0,0.0,0.0,0.0,0.0,0.0,0.0,0.0,0.0,0.0,0.0,0.0,0.0,0.0,0.0,0.0,0.0,0.0,0.0,0.0,0.0,0.0,0.0,0.0,0.0,0.0,0.0,0.0,0.0,0.0,0.0,0.0,0.0,0.0,0.0,0.0,0.0,0.0,0.0,0.0,0.0,0.0,0.0,0.0,0.0,0.0,0.0,0.0,0.0,0.0,0.0,0.0,0.0,0.0,0.0,0.0,0.0,0.0,0.0,0.0,0.0,0.0,0.0,0.0,0.0,0.0,0.0,0.0,0.0,0.0,0.0,0.0,0.0,0.0,0.0,0.0,0.0,0.0,0.0,0.0,0.0,0.0,0.0,0.0,0.0,0.0,0.0,0.0,5.3594,5.6591,5.8483,5.9539,5.965,5.3096,4.9296,0.0,0.0,0.0,0.0,0.0,0.0,0.0,0.0,0.0,0.0,0.0,0.0,0.0,0.0,0.0,0.0,0.0,0.0,0.0,0.0,0.0,0.0,0.0,0.0,0.0,0.0,0.0,0.0,0.0,0.0,0.0,0.0,0.0,0.0,0.0,0.0,0.0,0.0,0.0,0.0,0.0,0.0,0.0,0.0,0.0,0.0,0.0,0.0,3.3488,0.0,0.0,0.0,0.0,0.0,0.0,0.0,0.0,0.0,0.0,0.0,0.0,0.0,0.0,0.0,0.0,0.0,0.0,0.0,0.0,0.0,0.0,0.0,0.0,0.0,0.0,0.0,0.0,0.0,0.0,0.0,0.0,0.0,0.0,0.0,0.0,0.0,0.0,0.0,0.0,0.0,0.0,0.0,0.0,0.0,0.0,0.0,0.0,0.0,0.0,0.0,0.0,0.0,0.0,0.0,0.0,0.0,0.0,0.0,5.3167,5.5016,5.7945,5.9558,5.9499,5.3134,4.819,0.0,0.0,0.0,0.0,0.0,0.0,0.0,0.0,0.0,0.0,0.0,0.0,0.0,0.0,0.0,0.0,0.0,0.0,0.0,0.0,0.0,0.0,0.0,0.0,0.0,0.0,0.0,0.0,0.0,0.0,0.0,0.0,0.0,0.0,0.0,0.0,0.0,0.0,0.0,0.0,0.0,0.0,0.0,0.0,0.0,0.0,0.0,0.0,0.0,0.0,0.0,0.0,0.0,0.0,0.0,0.0,0.0,0.0,0.0,0.0,0.0,0.0,0.0,0.0,0.0,0.0,0.0,0.0,0.0,0.0,0.0,0.0,0.0,0.0,0.0,0.0,0.0,0.0,0.0,0.0,0.0,0.0,0.0,0.0,0.0,0.0,0.0,0.0,0.0,0.0,0.0,0.0,0.0,0.0,0.0,0.0,0.0,0.0,0.0,0.0,0.0,0.0,0.0,0.0,0.0,0.0,0.0,0.0,5.0653,5.3318,5.641,5.6699,5.3985,4.9303,4.5789,0.0,0.0,0.0,0.0,0.0,0.0,0.0,0.0,0.0,0.0,0.0,0.0,0.0,0.0,0.0,0.0,0.0,0.0,0.0,0.0,0.0,0.0,0.0,0.0,0.0,0.0,0.0,0.0,0.0,0.0,0.0,0.0,0.0,0.0,0.0,0.0,0.0,0.0,0.0,0.0,0.0,0.0,0.0,0.0,0.0,0.0,0.0,0.0,0.0,0.0,0.0,0.0,0.0,0.0,0.0,0.0,0.0,0.0,0.0,0.0,0.0,0.0,0.0,0.0,0.0,0.0,0.0,0.0,0.0,0.0,0.0,0.0,0.0,0.0,0.0,0.0,0.0,0.0,0.0,0.0,0.0,0.0,0.0,0.0,0.0,0.0,0.0,0.0,0.0,0.0,0.0,0.0,0.0,0.0,0.0,0.0,0.0,0.0,0.0,0.0,0.0,0.0,0.0,0.0,0.0,0.0,0.0,0.0,0.0,5.0977,5.359,5.3163,4.927,4.6406,4.3691,0.0,0.0,0.0,0.0,0.0,0.0,0.0,0.0,0.0,0.0,0.0,0.0,0.0,0.0,0.0,0.0,0.0,0.0,0.0,0.0,0.0,0.0,0.0,0.0,0.0,0.0,0.0,0.0,0.0,0.0,0.0,0.0,0.0,0.0,0.0,0.0,0.0,0.0,0.0,0.0,0.0,0.0,0.0,0.0,0.0,0.0,0.0,0.0,0.0,0.0,0.0,0.0,0.0,0.0,0.0,0.0,0.0,0.0,0.0,0.0,0.0,0.0,0.0,0.0,0.0,0.0,0.0,0.0,0.0,0.0,0.0,0.0,0.0,0.0,0.0,0.0,0.0,0.0,0.0,0.0,0.0,0.0,0.0,0.0,0.0,0.0,0.0,0.0,0.0,0.0,0.0,0.0,0.0,0.0,0.0,0.0,0.0,0.0,0.0,0.0,0.0,0.0,0.0,0.0,0.0,0.0,0.0,0.0,0.0,4.7532,4.908,4.9176,4.7496,4.5772,4.2615,0.0,0.0,0.0,0.0,0.0,0.0,0.0,0.0,0.0,0.0,0.0,0.0,0.0,0.0,0.0,0.0,0.0,0.0,0.0,0.0,0.0,0.0,0.0,0.0,0.0,0.0,0.0,0.0,0.0,0.0,0.0,0.0,0.0,0.0,0.0,0.0,0.0,0.0,0.0,0.0,0.0,0.0,0.0,0.0,0.0,0.0,0.0,0.0,0.0,0.0,0.0,0.0,0.0,0.0,0.0,0.0,0.0,0.0,0.0,0.0,0.0,0.0,0.0,0.0,0.0,0.0,0.0,0.0,0.0,0.0,0.0,0.0,0.0,0.0,0.0,0.0,0.0,0.0,0.0,0.0,0.0,0.0,0.0,0.0,0.0,0.0,0.0,0.0,0.0,0.0,0.0,0.0,0.0,0.0,0.0,0.0,0.0,0.0,0.0,0.0,0.0,0.0,0.0,0.0,0.0,0.0,0.0,0.0,0.0,4.2811,4.4217,4.4293,4.2701,4.2138,3.9939,3.6067,0.0,0.0,0.0,0.0,0.0,0.0,0.0,0.0,0.0,0.0,0.0,0.0,0.0,0.0,0.0,0.0,0.0,0.0,0.0,0.0,0.0,0.0,0.0,0.0,0.0,0.0,0.0,0.0,0.0,0.0,0.0,0.0,0.0,0.0,0.0,0.0,0.0,0.0,0.0,0.0,0.0,0.0,0.0,0.0,0.0,0.0,0.0,0.0,0.0,0.0,0.0,0.0,0.0,0.0,0.0,0.0,0.0,0.0,0.0,0.0,0.0,0.0,0.0,0.0,0.0,0.0,0.0,0.0,0.0,0.0,0.0,0.0,0.0,0.0,0.0,0.0,0.0,0.0,0.0,0.0,0.0,0.0,0.0,0.0,0.0,0.0,0.0,0.0,0.0,0.0,0.0,0.0,0.0,0.0,0.0,0.0,0.0,0.0,0.0,0.0,0.0,0.0,0.0,0.0,0.0,0.0,0.0,0.0,4.0016,4.1033,4.0803,3.9218,3.9217,3.7694,0.0,0.0,0.0,0.0,0.0,0.0,0.0,0.0,0.0,0.0,0.0,0.0,0.0,0.0,0.0,0.0,0.0,0.0,0.0,0.0,0.0,0.0,0.0,0.0,0.0,0.0,0.0,0.0,0.0,0.0,0.0,0.0,0.0,0.0,0.0,0.0,0.0,0.0,0.0,0.0,0.0,0.0,0.0,0.0,0.0,0.0,0.0,0.0,0.0,0.0,0.0,0.0,0.0,0.0,0.0,0.0,0.0,0.0,0.0,0.0,0.0,0.0,0.0,0.0,0.0,0.0,0.0,0.0,0.0,0.0,0.0,0.0,0.0,0.0,0.0,0.0,0.0,0.0,0.0,0.0,0.0,0.0,0.0,0.0,0.0,0.0,0.0,0.0,0.0,0.0,0.0,0.0,0.0,0.0,0.0,0.0,0.0,0.0,0.0,0.0,0.0,0.0,0.0,0.0,0.0,0.0,0.0,0.0,4.0086,4.0052,3.9962,3.9241,3.7662,3.7624,3.5991,0.0,0.0,0.0,0.0,0.0,0.0,0.0,0.0,0.0,0.0,0.0,0.0,0.0,0.0,0.0,0.0,0.0,0.0,0.0,0.0,0.0,0.0,0.0,0.0,0.0,0.0,0.0,0.0,0.0,0.0,0.0,0.0,0.0,0.0,0.0,0.0,0.0,0.0,0.0,0.0,0.0,0.0,0.0,0.0,0.0,0.0,0.0,0.0,0.0,0.0,0.0,0.0,0.0,0.0,0.0,0.0,0.0,0.0,0.0,0.0,0.0,0.0,0.0,0.0,0.0,0.0,0.0,0.0,0.0,0.0,0.0,0.0,0.0,0.0,0.0,0.0,0.0,0.0,0.0,0.0,0.0,0.0,0.0,0.0,0.0,0.0,0.0,0.0,0.0,0.0,0.0,0.0,0.0,0.0,0.0,0.0,0.0,0.0,0.0,0.0,0.0,0.0,0.0,0.0,0.0,0.0,0.0,0.0,0.0,4.004,0.0,3.9749,0.0,3.8108,3.6437,0.0,0.0,0.0,0.0,0.0,0.0,0.0,0.0,0.0,0.0,0.0,0.0,0.0,0.0,0.0,0.0,0.0,0.0,0.0,0.0,0.0,0.0,0.0,0.0,0.0,0.0,0.0,0.0,0.0,0.0,0.0,0.0,0.0,0.0,0.0,0.0,0.0,0.0,0.0,0.0,0.0,0.0,0.0,0.0,0.0,0.0,0.0,0.0,0.0,0.0,0.0,0.0,0.0,0.0,0.0,0.0,0.0,0.0,0.0,0.0,0.0,0.0,0.0,0.0,0.0,0.0,0.0,0.0,0.0,0.0,0.0,0.0,0.0,0.0,0.0,0.0,0.0,0.0,0.0,0.0,0.0,0.0,0.0,0.0,0.0,0.0,0.0,0.0,0.0,0.0,0.0,0.0,0.0,0.0,0.0,0.0,0.0,0.0,0.0,0.0,0.0,0.0,0.0,0.0,0.0,0.0,0.0,0.0,0.0,4.0026,3.9428,3.8562,3.7349,3.689,3.5522,0.0,0.0,0.0,0.0,0.0,0.0,0.0,0.0,0.0,0.0,0.0,0.0,0.0,0.0,0.0,0.0,0.0,0.0,0.0,0.0,0.0,0.0,0.0,0.0,0.0,0.0,0.0,0.0,0.0,0.0,0.0,0.0,0.0,0.0,0.0,0.0,0.0,0.0,0.0,0.0,0.0,0.0,0.0,0.0,0.0,0.0,0.0,0.0,0.0,0.0,0.0,0.0,0.0,0.0,0.0,0.0,0.0,0.0,0.0,0.0,0.0,0.0,0.0,0.0,0.0,0.0,0.0,0.0,0.0,0.0,0.0,0.0,0.0,0.0,0.0,0.0,0.0,0.0,0.0,0.0,0.0,0.0,0.0,0.0,0.0,0.0,0.0,0.0,0.0,0.0,0.0,0.0,0.0,0.0,0.0,0.0,0.0,0.0,0.0,0.0,0.0,0.0,0.0,0.0,0.0,0.0,0.0,0.0,0.0,0.0,3.8354,3.5937,3.3017,3.4087,3.3365,0.0,0.0,0.0,0.0,0.0,0.0,0.0,0.0,0.0,0.0,0.0,0.0,0.0,0.0,0.0,0.0,0.0,0.0,0.0,0.0,0.0,0.0,0.0,0.0,0.0,0.0,0.0,0.0,0.0,0.0,0.0,0.0,0.0,0.0,0.0,0.0,0.0,0.0,0.0,0.0,0.0,0.0,0.0,0.0,0.0,0.0,0.0,0.0,0.0,0.0,0.0,0.0,0.0,0.0,0.0,0.0,0.0,0.0,0.0,0.0,0.0,0.0,0.0,0.0,0.0,0.0,0.0,0.0,0.0,0.0,0.0,0.0,0.0,0.0,0.0,0.0,0.0,0.0,0.0,0.0,0.0,0.0,0.0,0.0,0.0,0.0,0.0,0.0,0.0,0.0,0.0,0.0,0.0,0.0,0.0,0.0,0.0,0.0,0.0,0.0,0.0,0.0,0.0,0.0,0.0,0.0,0.0,0.0,0.0,0.0,3.7635,0.0,3.5259,3.374,3.2538,3.1806,0.0,0.0,0.0,0.0,0.0,0.0,0.0,0.0,0.0,0.0,0.0,0.0,0.0,0.0,0.0,0.0,0.0,0.0,0.0,0.0,0.0,0.0,0.0,0.0,0.0,0.0,0.0,0.0,0.0,0.0,0.0,0.0,0.0,0.0,0.0,0.0,0.0,0.0,0.0,0.0,0.0,0.0,0.0,0.0,0.0,0.0,0.0,0.0,0.0,0.0,0.0,0.0,0.0,0.0,0.0,0.0,0.0,0.0,0.0,0.0,0.0,0.0,0.0,0.0,0.0,0.0,0.0,0.0,0.0,0.0,0.0,0.0,0.0,0.0,0.0,0.0,0.0,0.0,0.0,0.0,0.0,0.0,0.0,0.0,0.0,0.0,0.0,0.0,0.0,0.0,0.0,0.0,0.0,0.0,0.0,0.0,0.0,0.0,0.0,0.0,0.0,0.0,0.0,0.0,0.0,0.0,0.0,0.0,0.0,0.0,0.0,3.6495,3.3573,3.1769,0.0,0.0,0.0,0.0,0.0,0.0,0.0,0.0,0.0,0.0,0.0,0.0,0.0,0.0,0.0,0.0,0.0,0.0,0.0,0.0,0.0,0.0,0.0,0.0,0.0,0.0,0.0,0.0,0.0,0.0,0.0,0.0,0.0,0.0,0.0,0.0,0.0,0.0,0.0,0.0,0.0,0.0,0.0,0.0,0.0,0.0,0.0,0.0,0.0,0.0,0.0,0.0,0.0,0.0,0.0,0.0,0.0,0.0,0.0,0.0,0.0,0.0,0.0,0.0,0.0,0.0,0.0,0.0,0.0,0.0,0.0,0.0,0.0,0.0,0.0,0.0,0.0,0.0,0.0,0.0,0.0,0.0,0.0,0.0,0.0,0.0,0.0,0.0,0.0,0.0,0.0,0.0,0.0,0.0,0.0,0.0,0.0,0.0,0.0,0.0,0.0,0.0,0.0,0.0,0.0,0.0,0.0,0.0,0.0,0.0,0.0,3.6627,3.658,3.3525,0.0,2.9962,0.0,0.0,0.0,0.0,0.0,0.0,0.0,0.0,0.0,0.0,0.0,0.0,0.0,0.0,0.0,0.0,0.0,0.0,0.0,0.0,0.0,0.0,0.0,0.0,0.0,0.0,0.0,0.0,0.0,0.0,0.0,0.0,0.0,0.0,0.0,0.0,0.0,0.0,0.0,0.0,0.0,0.0,0.0,0.0,0.0,0.0,0.0,0.0,0.0,0.0,0.0,0.0,0.0,0.0,0.0,0.0,0.0,0.0,0.0,0.0,0.0,0.0,0.0,0.0,0.0,0.0,0.0,0.0,0.0,0.0,0.0,0.0,0.0,0.0,0.0,0.0,0.0,0.0,0.0,0.0,0.0,0.0,0.0,0.0,0.0,0.0,0.0,0.0,0.0,0.0,0.0,0.0,0.0,0.0,0.0,0.0,0.0,0.0,0.0,0.0,0.0,0.0,0.0,0.0,0.0,0.0,0.0,0.0,0.0,0.0,0.0,0.0,3.3079,3.1423,3.1195,0.0,0.0,0.0,0.0,0.0,0.0,0.0,0.0,0.0,0.0,0.0,0.0,0.0,0.0,0.0,0.0,0.0,0.0,0.0,0.0,0.0,0.0,0.0,0.0,0.0,0.0,0.0,0.0,0.0,0.0,0.0,0.0,0.0,0.0,0.0,0.0,0.0,0.0,0.0,0.0,0.0,0.0,0.0,0.0,0.0,0.0,0.0,0.0,0.0,0.0,0.0,0.0,0.0,0.0,0.0,0.0,0.0,0.0,0.0,0.0,0.0,0.0,0.0,0.0,0.0,0.0,0.0,0.0,0.0,0.0,0.0,0.0,0.0,0.0,0.0,0.0,0.0,0.0,0.0,0.0,0.0,0.0,0.0,0.0,0.0,0.0,0.0,0.0,0.0,0.0,0.0,0.0,0.0,0.0,0.0,0.0,0.0,0.0,0.0,0.0,0.0,0.0,0.0,0.0,0.0,0.0,0.0,0.0,0.0,0.0,3.65,3.5822,3.3702,3.2262,3.1609,0.0,0.0,0.0,0.0,0.0,0.0,0.0,0.0,0.0,0.0,0.0,0.0,0.0,0.0,0.0,0.0,0.0,0.0,0.0,0.0,0.0,0.0,0.0,0.0,0.0,0.0,0.0,0.0,0.0,0.0,0.0,0.0,0.0,0.0,0.0,0.0,0.0,0.0,0.0,0.0,0.0,0.0,0.0,0.0,0.0,0.0,0.0,0.0,0.0,0.0,0.0,0.0,0.0,0.0,0.0,0.0,0.0,0.0,0.0,0.0,0.0,0.0,0.0,0.0,0.0,0.0,0.0,0.0,0.0,0.0,0.0,0.0,0.0,0.0,0.0,0.0,0.0,0.0,0.0,0.0,0.0,0.0,0.0,0.0,0.0,0.0,0.0,0.0,0.0,0.0,0.0,0.0,0.0,0.0,0.0,0.0,0.0,0.0,0.0,0.0,0.0,0.0,0.0,0.0,0.0,0.0,0.0,0.0,0.0,0.0,0.0,0.0,0.0,0.0,3.1588,0.0,0.0,0.0,0.0,0.0,0.0,0.0,0.0,0.0,0.0,0.0,0.0,0.0,0.0,0.0,0.0,0.0,0.0,0.0,0.0,0.0,0.0,0.0,0.0,0.0,0.0,0.0,0.0,0.0,0.0,0.0,0.0,0.0,0.0,0.0,0.0,0.0,0.0,0.0,0.0,0.0,0.0,0.0,0.0,0.0,0.0,0.0,0.0,0.0,0.0,0.0,0.0,0.0,0.0,0.0,0.0,0.0,0.0,0.0,0.0,0.0,0.0,0.0,0.0,0.0,0.0,0.0,0.0,0.0,0.0,0.0,0.0,0.0,0.0,0.0,0.0,0.0,0.0,0.0,0.0,0.0,0.0,0.0,0.0,0.0,0.0,0.0,0.0,0.0,0.0,0.0,0.0,0.0,0.0,0.0,0.0,0.0,0.0,0.0,0.0,0.0,0.0,0.0,0.0,0.0,0.0,0.0,0.0,0.0,0.0,0.0,0.0,0.0,0.0,0.0,0.0,0.0,0.0,0.0,0.0,0.0,0.0,0.0,0.0,0.0,0.0,0.0,0.0,0.0,0.0,0.0,0.0,0.0,0.0,0.0,0.0,0.0,0.0,0.0,0.0,0.0,0.0,0.0,0.0,0.0,0.0,0.0,0.0,0.0,0.0,0.0,0.0,0.0,0.0,0.0,0.0,0.0,0.0,0.0,0.0,0.0,0.0,0.0,0.0,0.0,0.0,0.0,0.0,0.0,0.0,0.0,0.0,0.0,0.0,0.0,0.0,0.0,0.0,0.0,0.0,0.0,0.0,0.0,0.0,0.0,0.0,0.0,0.0,0.0,0.0,0.0,0.0,0.0,0.0,0.0,0.0,0.0,0.0,0.0,0.0,0.0,0.0,0.0,0.0,0.0,0.0,0.0,0.0,0.0,0.0,0.0,0.0,0.0,0.0,0.0,0.0,0.0,0.0,0.0,0.0,0.0,0.0,0.0,0.0,0.0,0.0,0.0,0.0,0.0,0.0,0.0,0.0,0.0,0.0,0.0,0.0,0.0,0.0,0.0,0.0,0.0,0.0,0.0,0.0,0.0,0.0,0.0,0.0,0.0,0.0,0.0,0.0,0.0,0.0,0.0,0.0,0.0,0.0,0.0,0.0,0.0,0.0,0.0,0.0,0.0,0.0,0.0,0.0,0.0,0.0,0.0,0.0,0.0,0.0,0.0,0.0,0.0,0.0,0.0,0.0,0.0,0.0,0.0,0.0,0.0,0.0,0.0,0.0,0.0,0.0,0.0,0.0,0.0,0.0,0.0,0.0,0.0,0.0,0.0,0.0,0.0,0.0,0.0,0.0,0.0,0.0,0.0,0.0,0.0,0.0,0.0,0.0,0.0,0.0,0.0,0.0,0.0,0.0,0.0,0.0,0.0,0.0,0.0,0.0,0.0,0.0,0.0,0.0,0.0,0.0,0.0,0.0,0.0,0.0,0.0,0.0,0.0,0.0,0.0,0.0,0.0,0.0,0.0,0.0,0.0,0.0,0.0,0.0,0.0,0.0,0.0,0.0,0.0,0.0,0.0,0.0,0.0,0.0,0.0,0.0,0.0,0.0,0.0,0.0,0.0,0.0,0.0,0.0,0.0,0.0,0.0,0.0,0.0,0.0,0.0,0.0,0.0,0.0,0.0,0.0,0.0,0.0,0.0,0.0,0.0,0.0,0.0,0.0,0.0,0.0,0.0,0.0,0.0,0.0,0.0,0.0,0.0,0.0,0.0,0.0,0.0,0.0,0.0,0.0,0.0,0.0,0.0,0.0,0.0,0.0,0.0,0.0,0.0,0.0,0.0,0.0,0.0,0.0,0.0,0.0,0.0,0.0,0.0,0.0,0.0,0.0,0.0,0.0,0.0,0.0,0.0,0.0,0.0,0.0,0.0,0.0,0.0,0.0,0.0,0.0,0.0,0.0,0.0,0.0,0.0,0.0,0.0,0.0,0.0,0.0,0.0,0.0,0.0,0.0,0.0,0.0,0.0,0.0,0.0,0.0,0.0,0.0,0.0,0.0,0.0,0.0,0.0,0.0,0.0,0.0,0.0,0.0,0.0,0.0,0.0,0.0,0.0,0.0,0.0,0.0,0.0,0.0,0.0,0.0,0.0,0.0,0.0,0.0,0.0,0.0,0.0,0.0,0.0,0.0,0.0,0.0,0.0,0.0,0.0,0.0,0.0,0.0,0.0,0.0,0.0,0.0,0.0,0.0,0.0,0.0,0.0,0.0,0.0,0.0,0.0,0.0,0.0,0.0,0.0,0.0,0.0,0.0,0.0,0.0,0.0,0.0,0.0,0.0,0.0,0.0,0.0,0.0,0.0,0.0,0.0,0.0,0.0,0.0,0.0,0.0,0.0,0.0,0.0,0.0,0.0,0.0,0.0,0.0,0.0,0.0,0.0,0.0,0.0,0.0,0.0,0.0,0.0,0.0,0.0,0.0,0.0,0.0,0.0,0.0,0.0,0.0,0.0,0.0,0.0,0.0,0.0,0.0,0.0,0.0,0.0,0.0,0.0,0.0,0.0,0.0,0.0,0.0,0.0,0.0,0.0,0.0,0.0,0.0,0.0,0.0,0.0,0.0,0.0,0.0,0.0,0.0,0.0,0.0,0.0,0.0,0.0,0.0,0.0,0.0,0.0,0.0,0.0,0.0,0.0,0.0,0.0,0.0,0.0,0.0,0.0,0.0,0.0,0.0,0.0,0.0,0.0,0.0,0.0,0.0,0.0,0.0,0.0,0.0,0.0,0.0,0.0,0.0,0.0,0.0,0.0,0.0,0.0,0.0,0.0,0.0,0.0,0.0,0.0,0.0,0.0,0.0,0.0,0.0,0.0,0.0,0.0,0.0,0.0,0.0,0.0,0.0,0.0,0.0,0.0,0.0,0.0,0.0,0.0,0.0,0.0,0.0,0.0,0.0,0.0,0.0,0.0,0.0,0.0,0.0,0.0,0.0,0.0,0.0,0.0,0.0,0.0,0.0,0.0,0.0,0.0,0.0,0.0,0.0,0.0,0.0,0.0,0.0,0.0,0.0,0.0,0.0,0.0,0.0,0.0,0.0,0.0,0.0,0.0,0.0,0.0,0.0,0.0,0.0,0.0,0.0,0.0,0.0,0.0,0.0,0.0,0.0,0.0,0.0,0.0,0.0,0.0,0.0,0.0,0.0,0.0,0.0,0.0,0.0,0.0,0.0,0.0,0.0,0.0,0.0,0.0,0.0,0.0,0.0,0.0,0.0,0.0,0.0,0.0,0.0,0.0,0.0,0.0,0.0,0.0,0.0,0.0,0.0,0.0,0.0,0.0,0.0,0.0,0.0,0.0,0.0,0.0,0.0,0.0,0.0,0.0,0.0,0.0,0.0,0.0,0.0,0.0,0.0,0.0,0.0,0.0,0.0,0.0,0.0,0.0,0.0,0.0,0.0,0.0,0.0,0.0,0.0,0.0,0.0,0.0,0.0,0.0,0.0,0.0,0.0,0.0,0.0,0.0,0.0,0.0,0.0,0.0,0.0,0.0,0.0,0.0,0.0,0.0,0.0,0.0,0.0,0.0,0.0,0.0,0.0,0.0,0.0,0.0,0.0,0.0,0.0,0.0,0.0,0.0,0.0,0.0,0.0,0.0,0.0,0.0,0.0,0.0,0.0,0.0,0.0,0.0,0.0,0.0,0.0,0.0,0.0,0.0,0.0,0.0,0.0,0.0,0.0,0.0,0.0,0.0,0.0,0.0,0.0,0.0,0.0,0.0,0.0,0.0,0.0,0.0,0.0,0.0,0.0,0.0,0.0,0.0,0.0,0.0,0.0,0.0,0.0,0.0,0.0,0.0,0.0,0.0,0.0,0.0,0.0,0.0,0.0,0.0,0.0,0.0,0.0,0.0,0.0,0.0,0.0,0.0,0.0,0.0,0.0,0.0,0.0,0.0,0.0,0.0,0.0,0.0,0.0,0.0,0.0,0.0,0.0,0.0,0.0,0.0,0.0,0.0,0.0,0.0,0.0,0.0,0.0,0.0,0.0,0.0,0.0,0.0,0.0,0.0,0.0,0.0,0.0,0.0,0.0,0.0,0.0,0.0,0.0,0.0,0.0,0.0,0.0,0.0,0.0,0.0,0.0,0.0,0.0,0.0,0.0,0.0,0.0,0.0,0.0,0.0,0.0,0.0,0.0,0.0,0.0,0.0,0.0,0.0,0.0,0.0,0.0,0.0,0.0,0.0,0.0,0.0,0.0,0.0,0.0,0.0,0.0,0.0,0.0,0.0,0.0,0.0,0.0,0.0,0.0,0.0,0.0,0.0,0.0,0.0,0.0,0.0,0.0,0.0,0.0,0.0,0.0]}]]]